[[[{"header":{"parameterUnit":"kt","parameterCategory":2,"dx":1,"dy":1,"la1":29.285339999999998,"la2":30.599998999999997,"lo1":-89.70041500000002,"lo2":-87.6738589999976,"nx":112,"ny":82,"refTime":"2022-10-28T06:00:00:Z","depth":0,"parameterNumber":1,"parameterNumberName":"U-component_of_WINDS"},"data":[5.934,5.5375,5.2196,5.2196,6.3716,6.8808,4.4797,3.6061,3.3076,3.3076,3.1208,2.8255,2.3957,2.6984,2.7917,2.0998,1.9971,2.003,0.0,2.0941,2.1662,0.0,0.0,0.0,0.0,0.0,4.1411,4.7397,4.9512,5.3198,5.9341,6.4882,7.0951,7.7782,7.8971,8.0311,8.201,8.0348,7.9518,7.9518,7.9461,7.9442,7.9422,7.9249,7.9234,7.9288,7.9065,7.904,7.9178,7.8896,7.8775,7.8784,7.8734,7.8704,7.868,7.8462,8.2479,8.8049,8.8049,8.8049,8.8049,8.8049,8.8049,8.8049,8.8049,8.8049,8.8904,9.3137,9.128,8.8049,8.8049,8.8049,8.8049,8.8049,8.8049,8.8049,8.8049,8.8049,8.8049,8.8049,8.8049,8.8049,8.8049,8.8049,8.8049,8.8049,8.8049,8.8049,8.8049,9.0055,9.3137,9.7333,9.1949,8.8049,8.8049,8.8049,8.8049,8.8049,9.1986,9.3471,9.1577,9.5551,9.8332,9.9506,9.9529,9.9529,9.9529,9.9529,9.9529,9.9529,9.9529,9.9529,4.7699,4.4363,4.1672,3.7239,4.9204,5.7541,4.0081,3.2703,2.889,2.6648,2.6199,2.4854,2.0444,1.9622,1.9719,1.9978,2.0639,2.1056,0.0,2.2348,2.4014,2.5705,3.275,0.0,0.0,4.7585,5.1249,5.4532,5.6861,5.9091,6.1259,6.7699,7.3329,7.782,8.0065,8.1745,8.2878,8.0613,7.9518,7.9518,7.9518,7.9518,7.9518,7.9401,7.9422,7.9461,7.9219,7.9211,7.9376,7.9115,7.904,7.904,7.9078,7.9817,8.0656,7.9234,8.1279,8.5119,8.7648,8.8288,8.8049,8.8049,8.8049,8.8458,9.0686,9.1317,9.2246,9.6554,9.31,8.8049,8.8049,8.8049,8.8049,8.8049,8.8049,8.8049,8.8049,8.8049,8.8718,9.0909,8.9572,8.8049,8.8049,8.8049,8.8049,8.8049,8.8049,8.8049,8.8049,8.8049,8.9683,9.4028,9.0612,8.8049,8.8049,8.8049,8.8049,8.8049,9.2097,9.3546,9.1429,9.5899,9.8725,9.9506,9.9529,9.9529,9.9529,9.9529,9.9529,9.9529,9.9529,9.9529,4.0199,4.384,4.5485,3.274,2.9376,2.9302,2.9488,2.9376,2.7395,2.0967,1.9629,1.9637,1.9637,1.9719,1.992,2.0208,2.2119,0.0,0.0,2.4207,2.7231,3.2561,4.1679,4.7636,4.7787,6.0766,6.6582,6.0301,6.5807,6.804,6.4897,7.1123,7.6216,7.9405,8.2859,8.4615,8.4577,8.1254,7.9555,7.9518,7.9518,7.9518,7.9518,7.9518,7.9518,7.9518,7.9518,7.9518,7.9461,7.9376,7.9309,7.9332,7.9461,8.1519,8.4049,8.0952,7.919,7.9425,8.6849,8.884,8.809,8.809,8.8239,8.9576,9.5848,9.7779,9.7779,9.7779,9.3211,8.8347,8.8347,8.8347,8.8309,8.8087,8.8049,8.8049,8.8049,8.8049,8.998,9.6516,9.2691,8.8309,8.8087,8.8235,8.8272,8.8087,8.8049,8.8049,8.8049,8.8049,8.8049,8.8049,8.8049,8.8049,8.8049,8.8049,8.8049,8.8049,8.8049,9.0872,9.7222,9.8584,9.9303,9.9529,9.9529,9.9529,9.9529,9.9529,9.9529,9.9529,9.9529,9.9529,3.7696,3.6029,3.4048,3.0423,2.59,2.3621,2.8442,2.5826,2.1827,1.9995,1.9783,0.0,0.0,0.0,2.3839,2.4697,0.0,2.8056,2.7942,2.8304,3.3621,4.7075,5.2076,5.5893,5.9592,6.0318,6.1319,6.319,6.504,6.5661,6.4768,7.3271,7.8593,7.9459,8.3971,8.5785,8.4577,8.2425,8.0726,7.9518,7.9518,7.9518,7.9518,7.9518,7.9518,7.9518,7.9518,7.9518,7.9518,7.948,7.9461,7.9461,7.9499,8.0084,8.1368,8.5257,8.3495,8.0175,8.7045,8.907,8.8641,8.8641,9.1822,9.594,9.7361,9.7779,9.7779,9.7779,9.6479,9.5105,9.5105,9.5105,9.3917,8.9164,8.8049,8.8049,8.8049,8.8049,8.998,9.6516,9.6331,9.362,8.8866,9.1986,9.3508,8.8755,8.8049,8.8049,8.8049,8.8049,8.8049,8.8049,8.8049,8.8049,8.8049,8.8049,8.8049,8.8049,8.8049,8.8829,9.0649,9.1669,9.4507,9.9416,9.9529,9.9529,9.9529,9.9529,9.9529,9.9529,9.9529,9.9529,3.3899,3.1019,2.8046,2.591,2.2513,2.074,2.4648,2.2566,1.9794,1.9794,0.0,0.0,0.0,0.0,0.0,0.0,3.2647,3.4901,3.4181,3.7098,4.2662,5.1633,5.3513,5.6838,6.4045,6.6472,6.7961,6.8839,7.0823,7.1416,7.0003,7.6703,8.0877,8.1592,8.5199,8.6616,8.5634,8.3256,8.1557,8.0575,7.982,7.9518,7.9518,7.9518,7.9518,7.9518,7.9518,7.9518,7.9518,7.9518,7.9518,7.9518,7.9518,7.9518,8.0311,8.6956,8.6956,8.42,8.8051,8.9184,8.8833,8.8833,9.3221,9.8441,9.7926,9.7779,9.7779,9.7779,9.7779,9.7779,9.7779,9.7779,9.6814,9.3026,9.2134,9.1392,8.8644,8.8049,8.998,9.6516,9.7779,9.6554,9.2766,9.5254,9.6479,9.2691,8.9795,8.8049,8.8049,8.8049,8.8049,8.8049,8.8049,8.8049,8.8049,8.8049,8.8049,8.8049,8.8049,8.8049,8.8049,8.8925,9.126,9.5225,9.8057,9.9529,9.9529,9.9529,9.9529,9.9454,9.6622,9.53,2.9436,2.7851,2.5533,2.0849,1.9761,2.0083,2.0973,0.0,2.1132,2.1132,0.0,3.0053,3.0432,0.0,0.0,3.444,3.9378,4.2538,4.1439,4.893,5.4052,5.2748,5.2575,5.6153,6.5268,7.5268,7.9469,7.5226,7.915,8.0473,7.7606,8.0535,8.2991,8.4538,8.6369,8.7258,8.7069,8.4124,8.2406,8.1991,8.0499,7.9706,7.9518,7.9518,7.9518,7.9518,7.9518,7.9518,7.9518,7.9518,7.9518,7.9518,7.9518,7.9971,8.133,8.722,8.941,8.941,8.941,8.9547,8.9712,8.9937,9.3953,9.8545,9.8135,9.7963,9.7963,9.7824,9.7779,9.7779,9.7779,9.7779,9.7779,9.7779,9.7779,9.6219,9.0389,8.9164,9.0872,9.6665,9.7779,9.7779,9.7779,9.7779,9.7779,9.7779,9.284,8.9164,8.9164,8.8495,8.8049,8.8049,8.8049,8.8049,8.8049,8.8049,8.8049,8.8049,8.8049,8.8093,8.8212,8.9732,9.0543,9.0543,9.6471,9.9529,9.9529,9.8736,9.8396,9.8208,9.2204,8.941,2.607,2.448,2.2746,2.0517,1.9973,2.1388,0.0,0.0,0.0,2.8042,2.9028,3.0774,3.3506,3.6238,3.9515,4.3835,4.5528,4.7125,4.9546,6.0528,6.868,6.9739,6.9867,7.114,7.4443,7.557,7.6224,7.664,7.8722,7.9706,7.9103,8.2255,8.4218,8.4538,8.7426,8.8353,8.7107,8.6427,8.4728,8.2028,8.1726,8.082,7.9518,7.9518,7.9518,7.9518,7.9518,7.9518,7.9518,7.9518,7.9518,7.9518,7.9518,8.2803,8.7673,8.8957,8.941,8.941,8.941,9.1784,9.5096,9.6907,9.834,9.9334,9.9218,9.9192,9.8983,9.8048,9.7779,9.7779,9.7779,9.7779,9.7779,9.7779,9.7779,9.7445,9.6182,9.5922,9.6294,9.7519,9.7779,9.7779,9.7779,9.7779,9.7779,9.7779,9.6702,9.5922,9.5922,9.128,8.8049,8.8049,8.8049,8.8049,8.8049,8.8049,8.8049,8.8049,8.8049,8.8397,8.9108,9.4591,9.7566,9.7566,9.885,9.9529,9.9491,9.4017,9.1374,9.1336,9.0014,8.941,2.3753,2.2367,2.0978,2.0214,2.2536,0.0,0.0,2.9939,3.0865,3.4057,3.9981,4.3105,3.8306,4.1477,4.6167,5.0378,5.3118,5.6218,6.0365,6.5917,7.0207,7.1901,7.2851,7.4383,7.693,7.7101,7.7423,7.8272,7.9839,8.1518,8.3217,8.4897,8.6181,8.6973,8.8579,8.9033,8.8277,8.7484,8.6218,8.452,8.284,8.1594,8.0764,7.9895,7.9518,7.9518,7.9518,7.9518,7.9518,7.9518,7.9518,7.9669,8.1368,8.4086,8.7182,8.8806,8.941,8.9901,9.3299,9.598,9.8057,9.9189,9.9529,9.9529,9.9529,9.9529,9.9421,9.8828,9.8658,9.8518,9.7919,9.7779,9.7779,9.7779,9.7779,9.7779,9.7779,9.7779,9.7779,9.7779,9.7779,9.7779,9.7779,9.7779,9.7779,9.7779,9.7779,9.7779,9.7779,9.492,9.2914,9.2914,9.2914,9.1614,8.8309,8.8049,8.9704,9.3558,9.321,9.3436,9.4448,9.7755,10.1115,10.4438,10.1228,9.9529,9.9529,9.6131,9.447,9.447,9.447,9.447,2.1871,2.0978,2.003,2.003,2.5004,0.0,3.1608,3.4948,3.8094,3.9323,5.112,5.7444,4.4971,4.7558,5.2672,5.6154,5.981,6.4169,6.98,6.9399,6.9291,7.127,7.2443,7.4536,7.8248,7.9443,8.0272,8.0933,8.2253,8.4328,8.7389,8.754,8.8126,8.9372,8.941,8.941,8.941,8.8164,8.7389,8.7049,8.4331,8.267,8.1991,8.0613,7.982,7.9518,7.9518,7.9518,7.9518,7.9518,7.9895,8.0764,8.3256,8.4766,8.5823,8.8428,9.0241,9.2166,9.7641,9.9529,9.9529,9.9529,9.9529,9.9529,9.9529,9.9529,9.9529,9.9529,9.9529,9.9308,9.837,9.8131,9.809,9.7824,9.7779,9.7779,9.7779,9.7779,9.7779,9.7779,9.7779,9.7779,9.7779,9.7779,9.7779,9.7779,9.7779,9.7779,9.7779,9.7779,9.7779,9.7779,9.7779,9.5662,9.0389,8.9943,9.2688,9.9105,9.8658,9.8553,9.9506,9.9529,10.2021,10.7383,10.3531,10.0813,9.9529,9.9529,9.9529,9.9529,9.9529,9.9529,2.0246,2.0141,2.003,2.003,2.5004,0.0,3.7566,5.2702,6.0665,4.3501,5.5322,6.5511,5.4791,5.595,5.9643,6.2904,6.2762,6.4981,7.2948,7.3933,7.4952,7.8045,7.7347,7.848,8.3256,8.2537,8.3008,8.6012,8.6407,8.7275,8.907,8.9146,8.9221,8.941,8.941,8.941,8.941,8.9221,8.8466,8.7087,8.6692,8.4955,8.2028,8.1821,8.0915,7.9518,7.9518,7.9518,7.9518,7.9518,8.1292,8.3935,8.3256,8.5408,8.8919,8.9259,9.3224,9.851,9.9265,9.9529,9.9529,9.9529,9.9529,9.9529,9.9529,9.9529,9.9529,9.9529,9.9529,9.9468,9.9371,9.9334,9.9042,9.8048,9.7779,9.7779,9.7779,9.7779,9.7779,9.7779,9.7779,9.7779,9.7779,9.7779,9.7779,9.7779,9.7779,9.7779,9.7779,9.7779,9.7779,9.7779,9.7779,9.7482,9.6776,9.6702,9.7509,9.9407,9.9421,9.9396,9.9529,9.9529,9.9869,10.0624,10.5721,10.5419,9.9529,9.9529,9.9529,9.9529,9.9529,9.9529,2.1206,2.0791,2.0943,2.4814,0.0,0.0,3.9384,4.6518,5.3461,5.68,6.4088,6.8523,6.4067,6.5283,6.7367,6.8724,6.9231,7.1022,7.5478,7.6119,7.7328,8.0593,8.1292,8.267,8.5728,8.6218,8.6936,8.8315,8.8428,8.873,8.9372,8.941,8.941,8.941,8.941,8.941,8.941,8.941,8.907,8.8428,8.7522,8.5823,8.3482,8.2463,8.1103,7.9518,7.9518,7.9518,7.9593,8.0575,8.1821,8.318,8.4313,8.6654,8.941,8.941,9.1185,9.4205,9.817,9.9529,9.9529,9.9529,9.9529,9.9529,9.9529,9.9529,9.9529,9.9529,9.9529,9.9529,9.9529,9.9529,9.9396,9.8885,9.879,9.8623,9.7919,9.7779,9.7963,9.8658,9.879,9.8589,9.7876,9.7779,9.8005,9.8692,9.8215,9.8048,9.8692,9.879,9.879,9.879,9.8175,9.7779,9.7779,9.8408,9.9013,9.9468,9.9529,9.9529,9.9529,9.9529,9.9529,9.9529,10.2248,10.2323,9.9529,9.9529,9.9529,9.9529,9.9529,10.1606,2.2083,0.0,0.0,0.0,0.0,0.0,4.0029,4.1471,4.7959,6.6248,6.9867,6.9778,6.9653,7.1014,7.2437,7.3374,7.4928,7.6421,7.7647,7.8196,7.9573,8.2406,8.4237,8.5899,8.7577,8.8768,8.941,8.941,8.941,8.941,8.941,8.941,8.941,8.941,8.941,8.941,8.941,8.941,8.941,8.9372,8.8277,8.688,8.5219,8.352,8.1783,8.0197,7.9706,7.9518,7.9631,8.133,8.2312,8.2954,8.5446,8.7635,8.941,8.941,8.941,9.0392,9.7188,9.9529,9.9529,9.9529,9.9529,9.9529,9.9529,9.9529,9.9529,9.9529,9.9529,9.9529,9.9529,9.9529,9.9529,9.9529,9.9529,9.9282,9.8445,9.8254,9.8518,9.9371,9.9529,9.9256,9.8408,9.8254,9.8553,9.9396,9.879,9.8589,9.9421,9.9529,9.9529,9.9529,9.8758,9.8254,9.8254,9.9013,9.9529,9.9529,9.9529,9.9529,9.9529,9.9529,9.9529,9.9529,9.9529,9.9529,9.9529,9.9529,9.9529,9.9529,9.9529,10.3078,0.0,0.0,0.0,2.9104,3.5024,4.0029,4.0029,4.5038,5.3537,6.7196,6.9867,6.9773,6.9802,7.1054,7.317,7.6497,7.8324,7.9404,7.9442,8.0839,8.2538,8.4294,8.5974,8.7615,8.9184,8.9372,8.941,8.941,8.941,8.941,8.941,8.941,8.941,8.941,8.941,8.941,8.941,8.941,8.941,8.941,8.9372,8.8504,8.6956,8.5257,8.3558,8.1859,8.0235,7.9518,7.9631,8.133,8.2991,8.4653,8.6389,8.8013,8.941,8.941,8.941,9.0392,9.7188,9.9529,9.9529,9.9529,9.9529,9.9529,9.9529,9.9529,9.9529,9.9529,9.9529,9.9529,9.9529,9.9529,9.9529,9.9529,9.9529,9.9529,9.9506,9.9445,9.9506,9.9529,9.9529,9.9529,9.9506,9.9445,9.9506,9.9529,9.9468,9.9506,9.9529,9.9529,9.9529,9.9529,9.9468,9.9445,9.9445,9.9506,9.9529,9.9529,9.9529,9.9529,9.9529,9.9529,9.9529,9.9529,9.9529,9.9529,9.9529,9.9529,9.9529,9.9529,9.9529,10.3078,2.5042,3.0316,3.5289,3.6352,4.8377,5.8735,5.422,5.8431,6.454,6.905,6.9948,6.9883,6.982,7.2917,7.6227,7.8479,7.9193,7.9518,7.9518,8.0952,8.2651,8.437,8.605,8.7711,8.9259,8.9486,8.9523,8.941,8.9489,8.9507,8.943,8.941,8.941,8.941,8.941,8.941,8.941,8.941,8.941,8.941,8.941,8.8579,8.7031,8.5332,8.3633,8.1934,8.0235,8.0159,8.1292,8.2991,8.4728,8.6389,8.7975,8.8957,8.941,8.941,8.941,9.0392,9.7188,9.9529,9.9529,9.9529,9.9529,9.9529,9.9529,9.9529,9.9529,9.9529,9.9529,9.9529,9.9529,9.9529,9.9529,9.9529,9.9529,9.9529,9.9529,9.9529,9.9529,9.9529,9.9529,9.9529,9.9529,9.9529,9.9529,9.9529,9.9529,9.9529,9.9529,9.9529,9.9529,9.9529,9.9529,9.9529,9.9529,9.9529,9.9529,9.9529,9.9529,9.9529,9.9529,9.9529,9.9529,9.9529,9.9529,9.9529,9.9529,9.9529,9.9529,9.9529,9.9529,10.07,2.8914,3.4983,4.0788,4.3975,5.5662,6.5868,6.3933,6.6855,6.996,6.996,6.996,7.0524,7.2179,7.56,7.8485,7.9506,7.962,7.978,8.0348,8.1859,8.3577,8.5238,8.69,8.8355,8.945,8.9602,8.9602,8.9563,8.9632,8.9648,8.9563,8.9527,8.9507,8.9507,8.943,8.941,8.941,8.941,8.941,8.941,8.941,8.8882,8.7862,8.6201,8.4539,8.2878,8.1783,8.1934,8.3067,8.4766,8.6125,8.722,8.8806,8.941,8.9523,9.0354,9.0128,9.0392,9.7188,9.9529,9.9529,9.9529,9.9529,9.9529,9.9529,9.9529,9.9529,9.9529,9.9529,9.9529,9.9529,9.9529,9.9529,9.9529,9.9529,9.9529,9.9529,9.9529,9.9529,9.9529,9.9529,9.9529,9.9529,9.9529,9.9529,9.9529,9.9529,9.9529,9.9529,9.9529,9.9529,9.9529,9.9529,9.9529,9.9529,9.9529,9.9529,9.9529,9.9529,9.9529,9.9529,9.9529,9.9529,9.9529,9.9529,9.9529,9.9529,9.9529,9.9529,9.9529,9.9529,9.9529,3.3356,3.8059,4.2989,5.1484,5.7023,6.2074,6.8519,6.996,6.9998,7.0074,7.0194,7.1738,7.6594,7.8822,7.9865,7.9735,7.9709,8.0241,8.182,8.3501,8.52,8.6875,8.8468,8.9545,8.9783,8.9701,8.9686,8.9797,8.9811,8.9811,8.9797,8.9686,8.9598,8.9598,8.947,8.941,8.941,8.941,8.941,8.941,8.941,8.941,8.9335,8.7787,8.6201,8.469,8.469,8.469,8.4804,8.6427,8.7107,8.7371,8.8844,8.941,8.9712,9.2053,9.1525,9.0543,9.7226,9.9529,9.9529,9.9529,9.9529,9.9529,9.9529,9.9529,9.9529,9.9529,9.9529,9.9529,9.9529,9.9529,9.9529,9.9529,9.9529,9.9529,9.9529,9.9529,9.9529,9.9529,9.9529,9.9529,9.9529,9.9529,9.9529,9.9529,9.9529,9.9529,9.9529,9.9529,9.9529,9.9529,9.9529,9.9529,9.9529,9.9529,9.9529,9.9529,9.9529,9.9529,9.9529,9.9529,9.9529,9.9529,9.9529,9.9529,9.9529,9.9529,9.9529,9.9529,9.9529,9.9529,3.5937,4.5762,5.3916,5.7331,6.2833,6.7874,6.9581,6.996,7.0345,7.1597,7.2888,7.4861,7.8566,7.9606,7.9875,7.9865,7.9773,8.029,8.1956,8.3608,8.5325,8.7005,8.8694,8.9716,8.9797,8.9761,8.9761,8.9797,8.9811,8.9811,8.9811,8.9686,8.9598,8.9598,8.947,8.941,8.941,8.941,8.941,8.941,8.941,8.941,8.9335,8.7787,8.6843,8.6427,8.6427,8.6427,8.6465,8.6918,8.7749,8.8882,8.9259,8.941,8.9712,9.2053,9.2544,9.2733,9.7792,9.9529,9.9529,9.9529,9.9529,9.9529,9.9529,9.9529,9.9529,9.9529,9.9529,9.9529,9.9529,9.9529,9.9529,9.9529,9.9529,9.9529,9.9529,9.9529,9.9529,9.9529,9.9529,9.9529,9.9529,9.9529,9.9529,9.9529,9.9529,9.9529,9.9529,9.9529,9.9529,9.9529,9.9529,9.9529,9.9529,9.9529,9.9529,9.9529,9.9529,9.9529,9.9529,9.9529,9.9529,9.9529,9.9529,9.9529,9.9529,9.9529,9.9529,9.9529,9.9529,9.9529,3.6328,4.8045,5.828,6.1315,6.5527,6.9055,6.9814,6.996,7.0687,7.3115,7.4367,7.6042,7.93,7.9894,7.991,7.9884,7.9817,8.0618,8.2993,8.4167,8.5644,8.8105,8.9218,8.9824,8.9883,8.9855,8.9817,8.9883,8.9875,8.9865,8.9811,8.9745,8.9686,8.9598,8.947,8.941,8.941,8.941,8.941,8.941,8.941,8.941,8.9372,8.8504,8.8126,8.8126,8.8126,8.8126,8.8126,8.8126,8.8617,8.941,8.941,8.941,8.975,9.2544,9.3299,9.3563,9.7981,9.9529,9.9529,9.9529,9.9529,9.9529,9.9529,9.9529,9.9529,9.9529,9.9529,9.9529,9.9529,9.9529,9.9529,9.9529,9.9529,9.9529,9.9529,9.9529,9.9529,9.9529,9.9529,9.9529,9.9529,9.9529,9.9529,9.9529,9.9529,9.9529,9.9529,9.9529,9.9529,9.9529,9.9529,9.9529,9.9529,9.9529,9.9529,9.9529,9.9529,9.9529,9.9529,9.9529,9.9529,9.9529,9.9529,9.9529,9.9529,9.9529,9.9529,9.9529,9.9529,9.9529,3.6713,4.7673,5.8507,6.3933,6.6551,6.8183,6.9662,6.996,7.0915,7.4329,7.5018,7.6042,7.93,7.9907,7.9901,7.9901,7.9893,8.105,8.4305,8.4759,8.6021,8.9448,8.9822,8.9872,8.9993,8.9893,8.9884,9.0,9.0,8.9947,8.9817,8.9799,8.9731,8.9598,8.947,8.941,8.941,8.941,8.941,8.941,8.941,8.941,8.941,8.941,8.941,8.941,8.941,8.941,8.941,8.941,8.941,8.941,8.941,8.9561,9.0128,9.3299,9.4054,9.4054,9.8094,9.9529,9.9529,9.9529,9.9529,9.9529,9.9529,9.9529,9.9529,9.9529,9.9529,9.9529,9.9529,9.9529,9.9529,9.9529,9.9529,9.9529,9.9529,9.9529,9.9529,9.9529,9.9529,9.9529,9.9529,9.9529,9.9529,9.9529,9.9529,9.9529,9.9529,9.9529,9.9529,9.9529,9.9529,9.9529,9.9529,9.9529,9.9529,9.9529,9.9529,9.9529,9.9529,9.9529,9.9529,9.9529,9.9529,9.9529,9.9529,9.9529,9.9529,9.9529,9.9529,9.9529,4.2215,4.9414,5.7293,6.5071,6.8296,6.9624,6.9923,6.996,7.0915,7.4329,7.5018,7.6042,7.93,7.9907,7.9907,7.9901,7.9901,8.1077,8.4446,8.4902,8.6153,8.9575,8.9947,8.9985,9.0,8.9993,8.9993,9.0,9.0,8.9947,8.9817,8.9799,8.9731,8.9598,8.947,8.941,8.941,8.941,8.941,8.941,8.941,8.941,8.941,8.941,8.941,8.941,8.941,8.941,8.941,8.941,8.941,8.941,8.941,9.0279,9.1751,9.3714,9.5263,9.6584,9.8774,9.9529,9.9529,9.9529,9.9529,9.9529,9.9529,9.9529,9.9529,9.9529,9.9529,9.9529,9.9529,9.9529,9.9529,9.9529,9.9529,9.9529,9.9529,9.9529,9.9529,9.9529,9.9529,9.9529,9.9529,9.9529,9.9529,9.9529,9.9529,9.9529,9.9529,9.9529,9.9529,9.9529,9.9529,9.9529,9.9529,9.9529,9.9529,9.9529,9.9529,9.9529,9.9529,9.9529,9.9529,9.9529,9.9529,9.9529,9.9529,9.9529,9.9529,9.9529,9.9529,9.9529,4.4644,5.1747,5.8721,6.3615,6.7396,6.996,6.996,6.996,7.0194,7.0915,7.3191,7.5511,7.7061,7.8731,7.9907,7.9907,8.0628,8.207,8.4612,8.5712,8.7192,8.9696,9.0,9.0,9.0,9.0,9.0,9.0,8.9947,8.9875,8.9811,8.9745,8.967,8.9489,8.945,8.941,8.941,8.941,8.941,8.941,8.941,8.941,8.941,8.941,8.941,8.941,8.941,8.941,8.941,8.941,8.941,8.941,8.941,9.043,9.2166,9.3866,9.5527,9.7226,9.8925,9.9529,9.9529,9.9529,9.9529,9.9529,9.9529,9.9529,9.9529,9.9529,9.9529,9.9529,9.9529,9.9529,9.9529,9.9529,9.9529,9.9529,9.9529,9.9529,9.9529,9.9529,9.9529,9.9529,9.9529,9.9529,9.9529,9.9529,9.9529,9.9529,9.9529,9.9529,9.9529,9.9529,9.9529,9.9529,9.9529,9.9529,9.9529,9.9529,9.9529,9.9529,9.9529,9.9529,9.9529,9.9529,9.9529,9.9529,9.9529,9.9529,9.9529,9.9529,9.9529,9.9529,4.4326,5.1934,5.877,6.0852,6.5168,6.8985,6.9359,6.9435,6.9169,6.8183,7.1446,7.4709,7.5392,7.763,7.9452,7.9831,8.1311,8.3018,8.4726,8.6395,8.8102,8.981,9.0,9.0,9.0,9.0,9.0,9.0,8.9884,8.9796,8.9811,8.9686,8.9563,8.943,8.941,8.941,8.941,8.941,8.941,8.941,8.941,8.941,8.941,8.941,8.941,8.941,8.941,8.941,8.941,8.941,8.941,8.9448,8.9825,9.0996,9.2695,9.4394,9.6093,9.7717,9.9076,9.9529,9.9529,9.9529,9.9529,9.9529,9.9529,9.9529,9.9529,9.9529,9.9529,9.9529,9.9529,9.9529,9.9529,9.9529,9.9529,9.9529,9.9529,9.9529,9.9529,9.9529,9.9529,9.9529,9.9529,9.9529,9.9529,9.9529,9.9529,9.9529,9.9529,9.9529,9.9529,9.9529,9.9529,9.9529,9.9529,9.9529,9.9529,9.9529,9.9529,9.9529,9.9529,9.9529,9.9529,9.9529,9.9529,9.9529,9.9529,9.9529,9.9529,9.9529,9.9529,9.9529,4.0129,4.6811,5.3947,5.7153,6.1717,6.5784,6.7315,6.7689,6.8069,6.9473,7.1332,7.3646,7.6606,7.7403,7.8086,7.9641,8.1311,8.3018,8.4726,8.6395,8.8102,8.981,9.0,9.0,9.0,9.0,9.0,9.0,8.9884,8.9796,8.9811,8.9686,8.9563,8.943,8.941,8.941,8.941,8.941,8.941,8.941,8.941,8.941,8.941,8.941,8.941,8.941,8.941,8.941,8.941,8.941,8.941,8.9561,9.1109,9.2733,9.4432,9.6131,9.783,9.9303,9.9454,9.9529,9.9529,9.9529,9.9529,9.9529,9.9529,9.9529,9.9529,9.9529,9.9529,9.9529,9.9529,9.9529,9.9529,9.9529,9.9529,9.9529,9.9529,9.9529,9.9529,9.9529,9.9529,9.9529,9.9529,9.9529,9.9529,9.9529,9.9529,9.9529,9.9529,9.9529,9.9529,9.9529,9.9529,9.9529,9.9529,9.9529,9.9529,9.9529,9.9529,9.9529,9.9529,9.9529,9.9529,9.9529,9.9529,9.9529,9.9529,9.9529,9.9529,9.9529,9.9529,9.9529,4.0444,4.9004,5.7023,5.7326,6.12,6.5369,6.7075,6.7452,6.7373,6.7011,6.989,7.2584,7.285,7.376,7.5316,7.7934,7.9793,8.1842,8.4574,8.7268,8.9241,8.9924,9.0,9.0,9.0,9.0,9.0,9.0,8.9893,8.9799,8.9797,8.9598,8.947,8.941,8.941,8.941,8.941,8.941,8.941,8.941,8.941,8.941,8.941,8.941,8.941,8.941,8.941,8.941,8.941,8.941,8.941,8.9599,9.1298,9.2959,9.4696,9.6358,9.8057,9.9529,9.9529,9.9529,9.9529,9.9529,9.9529,9.9529,9.9529,9.9529,9.9529,9.9529,9.9529,9.9529,9.9529,9.9529,9.9529,9.9529,9.9529,9.9529,9.9529,9.9529,9.9529,9.9529,9.9529,9.9529,9.9529,9.9529,9.9529,9.9529,9.9529,9.9529,9.9529,9.9529,9.9529,9.9529,9.9529,9.9529,9.9529,9.9529,9.9529,9.9529,9.9529,9.9529,9.9529,9.9529,10.0473,10.2399,10.2474,10.2474,10.2474,10.2474,10.2474,10.2512,10.4551,10.5495,3.8994,4.7652,5.5151,5.3927,5.8574,6.3744,6.4919,6.5183,6.5141,6.4962,6.8562,7.1408,7.0204,7.0958,7.2817,7.609,7.8433,8.1083,8.446,8.7875,9.0,9.0,9.0,9.0,9.0,9.0,9.0,9.0,8.9872,8.9797,8.9797,8.9563,8.941,8.941,8.941,8.941,8.941,8.941,8.941,8.941,8.941,8.941,8.941,8.941,8.941,8.941,8.941,8.941,8.941,8.941,8.9712,9.0392,9.2582,9.4168,9.5414,9.7113,9.851,9.9529,9.9529,9.9529,9.9529,9.9529,9.9529,9.9529,9.9529,9.9529,9.9529,9.9529,9.9529,9.9529,9.9529,9.9529,9.9529,9.9529,9.9529,9.9529,9.9529,9.9529,9.9529,9.9529,9.9529,9.9529,9.9529,9.9529,9.9529,9.9529,9.9529,9.9529,9.9529,9.9529,9.9529,9.9529,9.9529,9.9529,9.9529,9.9529,9.9529,9.9529,9.9529,9.9529,9.9529,10.0775,10.2399,10.4324,10.4362,10.4362,10.4362,10.474,10.4891,10.4966,10.8025,10.8893,3.4143,3.9936,4.5056,4.5019,5.2523,5.9924,5.9945,5.9941,6.0888,6.4241,6.7608,7.0014,6.9962,6.9988,7.1076,7.4328,7.7689,8.1083,8.446,8.7875,9.0,9.0,9.0,9.0,9.0,9.0,9.0,9.0,8.9872,8.9797,8.9797,8.9563,8.941,8.941,8.941,8.941,8.941,8.941,8.941,8.941,8.941,8.941,8.941,8.941,8.941,8.941,8.941,8.941,8.941,8.941,9.0392,9.2242,9.564,9.6962,9.715,9.8887,9.9491,9.9529,9.9529,9.9529,9.9529,9.9529,9.9529,9.9529,9.9529,9.9529,9.9529,9.9529,9.9529,9.9529,9.9529,9.9529,9.9529,9.9529,9.9529,9.9529,9.9529,9.9529,9.9529,9.9529,9.9529,9.9529,9.9529,9.9529,9.9529,9.9529,9.9529,9.9529,9.9529,9.9529,9.9529,9.9529,9.9529,9.9529,9.9529,9.9529,9.9529,9.9529,9.9529,9.9529,9.9529,10.372,10.5533,10.44,10.4362,10.4362,10.4362,10.5533,10.6099,10.6174,10.8402,10.7609,3.2021,3.8115,4.4279,4.8918,5.3329,5.6564,5.6527,6.1842,6.5143,5.9351,6.2605,6.6513,6.6527,6.7467,6.9326,7.2713,7.6004,7.9338,8.2753,8.7116,9.0,9.0,9.0,9.0,9.0,9.0,8.9955,8.9884,8.9811,8.9783,8.9686,8.9527,8.941,8.941,8.941,8.941,8.941,8.941,8.941,8.941,8.941,8.941,8.941,8.941,8.941,8.941,8.941,9.009,9.1147,9.1147,9.2129,9.3903,9.6131,9.6999,9.7188,9.8887,9.9529,9.9529,9.9529,9.9529,9.9529,9.9529,9.9529,9.9529,9.9529,9.9529,9.9529,9.9529,9.9529,9.9529,9.9529,9.9529,9.9529,9.9529,9.9529,9.9227,9.8057,9.7792,9.7452,9.6282,9.6055,9.6055,9.6055,9.7037,9.7792,9.7792,9.8774,9.9529,9.9529,9.9529,9.9529,9.9529,9.9529,9.9529,9.9529,9.9529,9.9529,9.9529,10.0964,10.3154,10.6174,10.6552,10.7043,10.7836,10.7836,10.7836,10.7836,10.8213,10.8402,10.8402,10.912,10.8855,3.143,3.6397,4.2002,4.8077,4.9948,5.1061,5.4291,5.934,6.1617,5.5345,5.8835,6.3198,6.387,6.5873,6.8339,7.1123,7.3809,7.7137,8.1766,8.5674,8.8558,8.9848,9.0,9.0,9.0,9.0,8.9947,8.9827,8.9799,8.9731,8.9615,8.9507,8.941,8.941,8.941,8.941,8.941,8.941,8.941,8.941,8.941,8.941,8.9448,9.009,9.0354,9.0392,9.1034,9.194,9.2884,9.2884,9.3903,9.5527,9.6584,9.7377,9.8094,9.9152,9.9529,9.9529,9.9529,9.9529,9.9529,9.9529,9.9529,9.9529,9.9529,9.9529,9.9529,9.9529,9.9529,9.9529,9.9529,9.9529,9.9378,9.8736,9.8585,9.8094,9.6395,9.6055,9.5716,9.4696,9.447,9.447,9.447,9.5867,9.6999,9.6999,9.8434,9.9529,9.9529,9.9529,9.9529,9.9529,9.9529,9.9529,9.9529,9.9529,9.9529,9.9529,10.2588,10.5608,10.8364,10.8062,10.8364,10.9422,10.9422,10.9422,10.9422,10.9422,10.9422,10.9422,10.9422,10.9422,3.1771,3.4678,3.8381,4.3599,4.3602,4.448,5.2617,5.3531,5.2468,5.1709,5.5618,5.9605,6.1043,6.3988,6.6906,6.9089,7.1351,7.505,8.1349,8.3891,8.6357,8.962,9.0,9.0,9.0,9.0,8.9947,8.9827,8.9799,8.9731,8.9615,8.9507,8.941,8.941,8.941,8.941,8.941,8.941,8.9486,8.9599,8.9599,8.9674,8.9825,9.1411,9.2129,9.2204,9.379,9.4545,9.4658,9.4658,9.564,9.715,9.715,9.8132,9.9529,9.9529,9.9529,9.9529,9.9529,9.9529,9.9529,9.9529,9.9529,9.9529,9.9529,9.9529,9.9529,9.9529,9.9529,9.9529,9.9529,9.9416,9.8925,9.7377,9.6886,9.6358,9.4658,9.4281,9.4243,9.413,9.4092,9.4092,9.4092,9.5602,9.6811,9.6811,9.8359,9.9529,9.9529,9.9529,9.9529,9.9529,9.9529,9.9529,9.9529,9.9642,9.9793,10.0058,10.4475,10.7081,10.7081,10.8591,10.9422,10.9422,10.9422,10.9422,10.9422,10.9422,10.9422,10.9422,10.9422,10.9422,2.9726,3.2045,3.5436,4.3027,4.3612,4.3581,4.8177,5.1898,5.2202,4.4416,4.7872,5.2012,5.1102,5.2655,5.6287,6.3073,7.0958,7.7213,8.0097,8.4156,8.7647,8.9734,9.0,9.0,9.0,9.0,8.9947,8.9827,8.9799,8.9731,8.9615,8.9507,8.941,8.941,8.941,8.941,8.941,8.941,9.009,9.1374,9.1374,9.2053,9.3299,9.3677,9.3903,9.3903,9.4281,9.5187,9.6395,9.6395,9.7415,9.8925,9.8925,9.9189,9.9529,9.9529,9.9529,9.9529,9.9529,9.9529,9.9529,9.9529,9.9529,9.9529,9.9529,9.9529,9.9529,9.9529,9.9529,9.9529,9.9529,9.8547,9.749,9.7075,9.6018,9.4621,9.2884,9.2544,9.2166,9.0845,9.0581,9.0581,9.0581,9.3073,9.5036,9.5036,9.7604,9.9529,9.9529,9.9529,9.9529,9.9529,9.9529,9.9529,9.9529,10.0624,10.2436,10.5042,10.7496,10.8855,10.8855,10.9233,10.9422,10.9422,10.9422,10.9422,10.9422,10.9422,10.9422,10.9422,10.9422,10.9422,2.9006,3.0611,3.3129,4.069,4.1309,4.075,4.3334,4.5462,4.5123,3.8885,4.234,4.6448,4.6309,5.0152,5.4858,5.9437,6.5991,7.1332,7.3836,7.9186,8.3739,8.6243,8.8596,9.0,9.0,9.0,8.9939,8.9822,8.9824,8.9716,8.9545,8.945,8.941,8.941,8.941,8.941,8.941,9.0203,9.1449,9.311,9.311,9.3563,9.447,9.5263,9.564,9.5678,9.6471,9.7301,9.817,9.817,9.8698,9.9529,9.9529,9.9529,9.9529,9.9529,9.9529,9.9529,9.9529,9.9529,9.9529,9.9529,9.9529,9.9529,9.9529,9.9529,9.9529,9.9529,9.9529,9.934,9.8585,9.7679,9.6584,9.5036,9.4024,9.2946,9.1245,9.0867,9.0637,8.9769,8.9505,8.9432,8.9565,9.1713,9.3665,9.4459,9.6728,9.8656,9.9413,9.952,9.9536,9.9526,9.952,9.9831,10.0549,10.1379,10.3305,10.6703,10.8515,10.9422,10.9422,10.9422,10.9422,10.9422,10.9422,10.9422,10.9422,10.9422,10.9422,10.9422,10.9422,10.9422,2.9423,3.0505,3.2109,3.7998,3.8182,3.7386,3.9091,3.8144,3.6585,3.5254,3.8328,4.176,4.3437,4.9536,5.4936,5.6831,5.9016,6.2112,6.6779,7.3153,7.8617,8.1994,8.6926,9.0,9.0,9.0,8.9931,8.9824,8.9811,8.9701,8.945,8.943,8.941,8.941,8.941,8.9674,9.0203,9.16,9.3186,9.4847,9.4847,9.4998,9.53,9.6735,9.7377,9.7452,9.8887,9.9529,9.9529,9.9529,9.9529,9.9529,9.9529,9.9529,9.9529,9.9529,9.9529,9.9529,9.9529,9.9529,9.9529,9.9529,9.9529,9.9529,9.9529,9.9529,9.9529,9.9529,9.934,9.8812,9.7377,9.6584,9.5511,9.2661,9.1885,9.135,8.9937,8.9647,8.9671,8.9795,8.9634,8.9572,8.975,9.1106,9.2741,9.4408,9.5999,9.7628,9.9333,9.9564,9.9544,9.9515,9.9733,10.0435,10.1757,10.2323,10.3985,10.7118,10.8629,10.9422,10.9422,10.9422,10.9422,10.9422,10.9422,10.9422,10.9422,10.9422,10.9422,10.9422,10.9422,10.9422,3.1165,3.3139,3.4773,3.7121,3.651,3.5752,3.7349,3.6472,3.5292,3.5065,3.5595,3.6585,3.8198,3.9612,4.381,5.3797,5.3407,5.551,6.5982,7.3153,7.8617,8.1994,8.6926,9.0,9.0,9.0,8.9947,8.9807,8.9799,8.9769,8.9581,8.947,8.941,8.941,8.941,9.0807,9.3677,9.3979,9.4923,9.6584,9.6584,9.7377,9.8774,9.9038,9.9152,9.9152,9.9416,9.9529,9.9529,9.9529,9.9529,9.9529,9.9529,9.9529,9.9529,9.9529,9.9529,9.9529,9.9529,9.9529,9.9529,9.9529,9.9529,9.9529,9.9529,9.9529,9.9529,9.9529,9.851,9.7339,9.7037,9.4847,9.2586,9.2183,9.1018,8.995,8.9817,8.9757,8.9795,8.981,8.9757,8.9779,8.981,9.1123,9.2708,9.4415,9.6084,9.7791,9.946,9.9588,9.9537,9.9531,10.0716,10.1606,10.1832,10.4475,10.6967,10.8931,10.9308,10.9422,10.9422,10.9422,10.9422,10.9422,10.9422,10.9422,10.9422,10.9422,10.9422,10.9422,10.9422,10.9422,3.1771,3.4313,3.6623,3.8258,3.8138,3.7343,3.6282,3.552,3.4459,3.2642,3.2982,3.3859,3.4565,3.7682,4.1647,4.6166,4.863,5.2491,5.9688,7.0345,7.7934,7.949,8.5788,9.0,9.0,9.0,8.9947,8.9827,8.9799,8.9731,8.9615,8.9507,8.9825,9.0769,9.0769,9.2393,9.5791,9.5829,9.6697,9.8359,9.8359,9.8774,9.9529,9.9529,9.9529,9.9529,9.9529,9.9529,9.9529,9.9529,9.9529,9.9529,9.9529,9.9529,9.9529,9.9529,9.9529,9.9529,9.9529,9.9529,9.9529,9.9529,9.9529,9.9529,9.9529,9.9529,9.9529,9.9529,9.8963,9.7943,9.6093,9.447,9.2867,9.1076,9.0176,8.9723,8.9803,8.9801,8.9819,8.9903,8.9851,9.01,9.1117,9.104,9.2091,9.5586,9.6038,9.6874,9.9496,9.9705,9.9669,9.972,10.1153,10.2393,10.3271,10.6373,10.8644,10.9508,10.9449,10.9457,10.9437,10.9419,10.9422,10.9422,10.9422,10.9422,10.9422,10.9422,10.9433,10.9465,10.9465,10.9487,3.4101,0.0,4.0193,4.2278,4.1928,4.0287,0.0,3.5498,3.355,3.0559,3.0985,3.1979,3.2382,3.697,4.0775,4.1117,4.5444,5.0377,5.4923,6.5775,7.4121,7.6508,8.3897,8.8823,8.8823,8.9544,8.9939,8.9845,8.9799,8.9906,9.0148,9.0055,9.0769,9.2506,9.2922,9.4583,9.7566,9.7604,9.8245,9.9529,9.9529,9.9529,9.9529,9.9529,9.9529,9.9529,9.9529,9.9529,9.9529,9.9529,9.9529,9.9529,9.9529,9.9529,9.9529,9.9529,9.9529,9.9529,9.9529,9.9529,9.9529,9.9529,9.9529,9.9529,9.9529,9.9529,9.9529,9.9529,9.9227,9.8321,9.5716,9.4814,9.3779,9.0753,9.0213,9.0294,8.9923,8.9826,8.9895,8.9975,8.9939,9.028,9.1688,9.11,9.1873,9.6125,9.6013,9.6543,9.9542,9.9806,9.991,10.0381,10.1846,10.3414,10.5044,10.7838,10.9556,10.9645,10.9495,10.9454,10.9453,10.9449,10.9422,10.9422,10.9422,10.9422,10.9422,10.9422,10.9442,10.9439,10.9439,10.9512,0.0,4.4144,4.7492,5.0758,4.8017,4.4054,4.2274,3.7084,0.0,3.0294,3.0017,3.0603,3.2158,3.4127,3.751,4.3583,4.4951,4.8064,5.6073,5.9447,6.4577,7.3916,8.1109,8.5295,8.5295,8.814,8.9931,8.9824,8.9811,9.0382,9.1696,9.1751,9.2544,9.4243,9.5791,9.749,9.934,9.934,9.9416,9.9529,9.9529,9.9529,9.9529,9.9529,9.9529,9.9529,9.9529,9.9529,9.9529,9.9529,9.9529,9.9529,9.9529,9.9529,9.9529,9.9529,9.9529,9.9529,9.9529,9.9529,9.9529,9.9529,9.9529,9.9529,9.9529,9.9529,9.9529,9.9529,9.8396,9.7113,9.6886,9.5725,9.418,9.2387,9.2045,9.1762,9.0294,8.9975,8.9968,9.0,9.0006,9.0012,9.0151,9.1366,9.2966,9.4749,9.6267,9.7854,9.9697,9.9792,10.0303,10.1934,10.3485,10.5122,10.677,10.8679,10.9749,10.9616,10.953,10.9436,10.9416,10.9449,10.9422,10.9422,10.9422,10.9422,10.9422,10.9422,10.9433,10.9425,10.9425,10.9518,4.5017,4.8783,5.2468,5.3759,5.1815,4.8646,4.4816,4.0387,3.5985,3.2253,3.0676,3.0121,3.0784,3.3144,3.58,3.8307,4.2216,4.7836,5.6265,5.9757,6.5946,7.8111,8.2764,8.5788,8.7875,8.7344,8.7663,8.9644,9.0695,9.148,9.204,9.3001,9.4772,9.7528,9.8245,9.8887,9.9529,9.9529,9.9529,9.9529,9.9529,9.9529,9.9529,9.9529,9.9529,9.9529,9.9529,9.9529,0.0,9.9529,9.9529,9.9529,9.9529,9.9529,9.9529,9.9529,9.9529,9.9529,9.9529,9.9529,9.9529,9.9529,9.9529,9.9529,9.9529,9.9529,9.9529,9.9529,9.9076,9.8321,9.7264,9.6535,9.5706,9.4093,9.3741,9.3347,9.1797,9.1509,9.1245,9.0213,8.9985,9.0326,9.1267,9.1988,9.3323,9.6025,9.6981,9.7998,9.9688,10.0775,10.1662,10.2308,10.4722,10.6933,10.8645,10.9451,10.9792,10.9737,10.9613,10.9598,10.9657,10.9594,10.9554,10.9554,10.9554,10.9554,10.9554,10.9554,10.9583,10.9677,10.9613,10.9635,5.0798,5.429,5.763,5.8691,5.7252,5.4171,4.8587,4.4275,3.9729,3.3709,3.1557,3.074,3.0714,3.3065,3.5152,3.5725,4.0926,4.7683,5.5619,6.0479,6.7389,7.8676,8.1973,8.4667,8.8065,8.7261,8.7609,9.0327,9.1539,9.2583,9.359,9.4701,9.6584,9.9416,9.9529,9.9529,9.9529,9.9529,9.9529,9.9529,9.9529,9.9529,9.9529,9.9529,9.9529,9.9529,9.9529,9.9529,9.9529,9.9529,9.9529,9.9529,9.9529,9.9529,9.9529,9.9529,9.9529,9.9529,9.9529,9.9529,9.9529,9.9529,9.9529,9.9529,9.9529,9.9529,9.9529,9.9529,9.9529,9.9265,9.8094,9.7823,9.7422,9.5836,9.5501,9.5102,9.3466,9.3206,9.2906,9.178,9.1098,9.1249,9.2871,9.3136,9.4094,9.6965,9.7838,9.8597,9.9745,10.1338,10.2589,10.312,10.565,10.8002,10.967,10.9814,10.9821,10.981,10.9758,10.9711,10.9834,10.97,10.9624,10.9616,10.9624,10.9624,10.9616,10.9616,10.9677,10.9787,10.9683,10.9708,5.8044,6.1142,6.3288,6.6627,6.4937,6.07,5.4025,4.859,4.2575,3.425,3.2517,3.2495,3.2497,3.3894,3.5562,3.7281,4.1724,4.7343,5.4133,6.0812,6.7462,7.4106,7.7901,8.1234,8.4618,8.7912,9.044,9.2032,9.2167,9.359,9.6833,9.6999,9.7792,9.9454,9.9529,9.9529,9.9529,9.9529,9.9529,9.9529,9.9529,9.9529,9.9529,9.9529,9.9529,9.9529,9.9529,9.9529,9.9529,9.9529,9.9529,9.9529,9.9529,9.9529,9.9529,9.9529,9.9529,9.9529,9.9529,9.9529,9.9529,9.9529,9.9529,9.9529,9.9529,9.9529,9.9529,9.9529,9.9529,9.9529,9.9529,9.9644,9.9296,9.7626,9.7306,9.6935,9.5241,9.489,9.489,9.486,9.3495,9.2888,9.4557,9.4898,9.5477,9.7128,9.8806,9.9897,9.9902,10.1305,10.2897,10.4604,10.6271,10.7976,10.9671,10.9836,10.9848,10.9833,10.9846,10.9832,10.9835,10.9704,10.9639,10.9616,10.9639,10.9639,10.9616,10.9616,10.9632,10.9651,10.9644,10.9721,5.8295,6.2875,6.7993,6.8979,6.7597,6.3891,5.6072,5.1253,4.6085,3.7736,3.508,3.4244,3.4235,3.5631,3.7305,3.9026,4.5443,5.2163,5.7669,6.5262,7.2736,7.9397,8.2125,8.3832,8.4839,8.7982,9.0558,9.2032,9.435,9.6101,9.6946,9.8132,9.9001,9.9491,9.9529,9.9529,9.9529,9.9529,9.9529,9.9529,9.9529,9.9529,9.9529,9.9529,9.9529,9.9529,9.9529,9.9529,9.9529,9.9529,9.9529,9.9529,9.9529,9.9529,9.9529,9.9529,9.9529,9.9529,9.9529,9.9529,9.9529,9.9529,9.9529,9.9529,9.9529,9.9529,9.9529,9.9529,9.9529,9.9529,9.9529,9.9544,9.9485,9.9062,9.909,9.8696,9.6986,9.6635,9.6284,9.5103,9.4446,9.4295,9.4787,9.5849,9.6808,9.7297,9.8814,9.9864,9.9803,10.2254,10.4224,10.4717,10.6281,10.797,10.9682,10.9834,10.9834,10.9819,10.9822,10.9816,10.9844,10.9783,10.977,10.977,10.9856,10.9898,10.9898,10.9898,10.9851,10.9783,10.975,10.9798,6.2652,6.6134,6.996,6.996,6.9221,6.6085,5.7056,5.3454,4.9203,3.9522,3.6712,3.6405,3.768,3.7715,3.8704,4.2395,4.718,5.2684,5.8982,6.6573,7.4235,8.1538,8.4536,8.6205,8.6888,8.8785,9.0605,9.2032,9.5227,9.7371,9.7966,9.8963,9.9529,9.9529,9.9529,9.9529,9.9529,9.9529,9.9529,9.9529,9.9529,9.9529,9.9529,9.9529,9.9529,9.9529,9.9529,9.9529,9.9529,9.9529,9.9529,9.9529,9.9529,9.9529,9.9529,9.9529,9.9529,9.9529,9.9529,9.9529,9.9529,9.9529,9.9529,9.9529,9.9529,9.9529,9.9529,9.9529,9.9529,9.9529,9.9498,9.9526,9.9563,9.9762,9.9846,9.9626,9.8597,9.8348,9.8007,9.6998,9.6264,9.5999,9.6681,9.706,9.7528,9.8211,9.917,9.9803,9.9752,10.2089,10.4021,10.4703,10.6288,10.7711,10.8728,10.8804,10.8539,10.7857,10.7825,10.7838,10.7889,10.7838,10.8126,10.882,10.8896,10.9285,10.993,10.993,10.9898,10.981,10.9127,10.8834,6.8757,6.9733,6.996,6.996,6.996,6.7391,5.7507,5.512,5.1779,4.0317,3.785,3.8796,4.2233,4.0557,4.0823,4.75,4.9094,5.2205,5.9949,6.6855,7.3988,8.1728,8.5522,8.814,8.9848,9.0,9.0651,9.2286,9.5102,9.7512,9.9212,9.9454,9.9529,9.9529,9.9529,9.9529,9.9529,9.9529,9.9529,9.9529,9.9529,9.9529,9.9529,9.9529,9.9529,9.9529,9.9529,9.9529,9.9529,9.9529,9.9529,9.9529,9.9529,9.9529,9.9529,9.9529,9.9529,9.9529,9.9529,9.9529,9.9529,9.9529,9.9529,9.9529,9.9529,9.9529,9.9529,9.9529,9.9529,9.9536,9.9544,9.9542,9.9613,9.9841,9.9929,9.9902,9.9891,9.9803,9.9726,9.972,9.847,9.7902,9.9455,9.8432,9.7955,9.9474,9.9701,9.9701,9.9701,10.1217,10.2847,10.44,10.5909,10.6916,10.7067,10.7067,10.6402,10.4879,10.4779,10.4844,10.4941,10.4843,10.5487,10.7027,10.708,10.7826,10.9381,10.9381,10.9368,10.9327,10.7773,10.7061,6.6551,6.795,6.996,6.996,6.996,6.7689,5.8971,5.5973,5.2444,4.3337,4.0417,4.0908,4.5493,4.6859,4.9477,5.6117,6.169,6.6248,6.9359,7.5544,8.0893,8.4043,8.6243,8.814,8.9848,9.0,9.1169,9.4074,9.4825,9.5837,9.7427,9.8818,9.9529,9.9529,9.9529,9.9529,9.9529,9.9529,9.9529,9.9529,9.9529,9.9529,9.9529,9.9529,9.9529,9.9529,9.9529,9.9529,9.9529,9.9529,9.9529,9.9529,9.9529,9.9529,9.9529,9.9529,9.9529,9.9529,9.9529,9.9529,9.9529,9.9529,9.9529,9.9529,9.9529,9.9529,9.9529,9.9529,9.952,9.9524,9.9536,9.9693,9.98,9.9777,9.9834,9.9891,9.9801,9.9726,9.9726,9.972,9.9417,9.9303,9.9644,9.9417,9.9303,9.9659,9.9735,9.9735,9.9735,10.1212,10.2386,10.2765,10.3129,10.3848,10.5212,10.5325,10.5174,10.4811,10.4773,10.4773,10.4788,10.4779,10.4944,10.5299,10.5423,10.5575,10.5855,10.5954,10.5942,10.584,10.5499,10.5318,6.7836,6.8633,6.996,6.996,6.996,6.8221,6.1391,5.7976,5.4296,4.7504,4.4127,4.3672,4.7845,5.0046,5.3082,5.8925,6.4199,6.9017,7.3115,7.8048,8.2449,8.575,8.7647,8.9013,8.9924,9.0,9.1017,9.3458,9.4344,9.5455,9.7006,9.8656,9.9498,9.9529,9.9529,9.9529,9.9529,9.9529,9.9529,9.9529,9.9529,9.9529,9.9529,9.9529,9.9529,9.9529,9.9529,9.9529,9.9529,9.9529,9.9529,9.9529,9.9529,9.9529,9.9529,9.9529,9.9529,9.9529,9.9529,9.9529,9.9529,9.9529,9.9529,9.9529,9.9529,9.9536,9.9541,9.9541,9.9583,9.9655,9.9676,9.9815,9.9895,9.9844,9.9872,9.9859,9.9749,9.9735,9.9712,9.972,9.972,9.972,9.972,9.972,9.972,9.972,9.972,9.972,9.972,10.0515,10.1349,10.2182,10.2257,10.2598,10.3507,10.3583,10.3204,10.2409,10.2333,10.2333,10.2363,10.234,10.2733,10.3529,10.3644,10.4023,10.4779,10.4844,10.4831,10.475,10.3955,10.3561,6.9809,6.996,6.996,6.996,6.996,6.8714,6.3933,6.0518,5.7028,5.2247,4.8794,4.777,5.145,5.3765,5.6686,6.1695,6.5337,6.97,7.5885,7.9072,8.2563,8.7344,8.9127,9.0,9.0,9.0,9.0668,9.2254,9.3657,9.514,9.6652,9.8255,9.9242,9.9529,9.9529,9.9529,9.9529,9.9529,9.9529,9.9529,9.9529,9.9529,9.9529,9.9529,9.9529,9.9529,9.9529,9.9529,9.9529,9.9529,9.9529,9.9529,9.9529,9.9529,9.9529,9.9529,9.9529,9.9529,9.9529,9.9529,9.9529,9.9514,9.9514,9.9514,9.9536,9.9582,9.9564,9.9564,9.9672,9.9787,9.9879,9.9897,9.9929,9.9885,9.9906,9.9872,9.9726,9.972,9.972,9.972,9.972,9.972,9.972,9.972,9.972,9.972,9.972,9.972,9.972,9.972,10.025,10.1652,10.1803,10.1803,10.1803,10.1803,10.1235,9.9834,9.972,9.9735,9.9726,9.9739,10.0383,10.1772,10.1785,10.2492,10.3886,10.3886,10.3886,10.3848,10.2447,10.1803,6.9164,6.996,6.996,6.996,6.996,6.9012,6.5413,6.3098,6.0746,5.7255,5.5017,5.513,5.9873,6.3326,6.712,7.2205,7.5771,7.9262,8.3094,8.4005,8.5598,8.9241,8.9848,9.0,9.0,9.0,9.0721,9.2383,9.2724,9.3477,9.491,9.6599,9.8107,9.9491,9.9529,9.9529,9.9529,9.9529,9.9529,9.9529,9.9529,9.9529,9.9529,9.9529,9.9529,9.9529,9.9529,9.9529,9.9529,9.9529,9.9529,9.9529,9.9529,9.9529,9.9529,9.9529,9.9529,9.9529,9.9529,9.9529,9.9552,9.9524,9.9526,9.9545,9.9655,9.9689,9.9705,9.9705,9.9801,9.9879,9.9787,9.9826,9.9885,9.9773,9.9844,9.9885,9.9726,9.972,9.972,9.972,9.972,9.972,9.972,9.972,9.972,9.972,9.972,9.972,9.972,9.972,9.9796,10.0023,10.0061,10.0061,10.0061,10.0061,9.9947,9.9758,9.972,9.972,9.972,9.972,9.9796,10.0061,10.0067,10.018,10.0402,10.0393,10.0393,10.0364,10.0174,10.0061,6.905,6.996,6.996,6.996,6.996,6.9581,6.8101,6.5716,6.3402,6.196,5.957,5.8697,6.1808,6.5944,6.9928,7.3077,7.7137,8.1083,8.446,8.4953,8.6205,8.9582,9.0,9.0,9.0,9.0,9.0303,9.1062,9.1973,9.2729,9.3244,9.5743,9.7481,9.8057,9.9038,9.9529,9.9529,9.9529,9.9529,9.9529,9.9529,9.9529,9.9529,9.9529,9.9529,9.9529,9.9529,9.9529,9.9529,9.9529,9.9529,9.9529,9.9529,9.9529,9.9529,9.9529,9.9529,9.9529,9.9529,9.9536,9.9524,9.96,9.9617,9.9634,9.9705,9.9787,9.9815,9.9815,9.9864,9.9906,9.9848,9.9868,9.9885,9.9849,9.9879,9.9891,9.9726,9.972,9.972,9.972,9.972,9.972,9.972,9.972,9.972,9.972,9.972,9.972,9.972,9.972,9.972,9.972,9.972,9.9735,9.9712,9.9735,9.9773,9.9815,9.9749,9.9773,9.9815,9.9735,9.9735,9.9712,9.9712,9.9735,9.972,9.9697,9.9735,9.972,9.972,9.972,6.7532,6.8708,6.8898,6.9771,6.996,6.996,6.996,6.8026,6.621,6.621,6.4199,6.2947,6.4654,6.841,7.1825,7.3495,7.7213,8.1083,8.446,8.4953,8.6205,8.9582,9.0,9.0,9.0,9.0,9.0,9.0,9.1176,9.197,9.2145,9.4531,9.6232,9.6984,9.8208,9.9114,9.9529,9.9529,9.9529,9.9529,9.9529,9.9529,9.9529,9.9529,9.9529,9.9529,9.9529,9.9529,9.9529,9.9529,9.9529,9.9529,9.9529,9.9529,9.9529,9.9529,9.9529,9.9529,9.9514,9.9524,9.96,9.972,9.9787,9.9787,9.9777,9.9853,9.9924,9.9924,9.9916,9.9903,9.9903,9.9903,9.9929,9.9922,9.9569,9.9246,9.9081,9.8773,9.847,9.847,9.8811,9.9076,9.9076,9.9417,9.972,9.972,9.972,9.972,9.972,9.972,9.972,9.9735,9.9735,9.9712,9.9701,9.9712,9.9763,9.9853,9.9801,9.9787,9.9902,9.9801,9.9697,9.9701,9.9697,9.972,9.972,9.972,9.972,9.972,9.972,9.972,6.344,6.5185,6.5944,6.9164,6.996,6.996,6.996,6.9847,6.9733,6.9733,6.9581,6.9966,7.1673,7.3533,7.5278,7.6872,7.8693,8.1083,8.446,8.4953,8.6205,8.9582,9.0,9.0,9.0,9.0,9.0,9.0,9.0075,9.0718,9.207,9.2283,9.381,9.6908,9.7075,9.7906,9.9491,9.9529,9.9529,9.9529,9.9529,9.9529,9.9529,9.9529,9.9529,9.9529,9.9529,9.9529,9.9529,9.9529,9.9529,9.9529,9.9529,9.9529,9.9529,9.9529,9.9529,9.9552,9.9544,9.96,9.972,9.9841,9.9902,9.9902,9.9886,9.9895,9.9903,9.9903,9.9903,9.9903,9.9903,9.9903,9.9929,9.9922,9.8696,9.75,9.7352,9.616,9.5099,9.5099,9.6311,9.7334,9.7334,9.866,9.972,9.972,9.972,9.972,9.972,9.972,9.9735,9.9739,9.9701,9.9701,9.9701,9.9701,9.9701,9.9714,9.9712,9.9787,9.9902,9.9801,9.9697,9.9701,9.9697,9.972,9.972,9.972,9.972,9.972,9.972,9.972,6.1201,6.3288,6.4388,6.8866,6.996,6.996,6.996,6.996,6.996,6.996,7.0839,7.2129,7.3798,7.543,7.7061,7.8731,7.949,8.0704,8.3018,8.427,8.5788,8.8102,8.9355,9.0,9.0,9.0,9.0,9.0,9.0,9.0205,9.0618,9.1591,9.2653,9.3816,9.4852,9.6169,9.7906,9.7906,9.8472,9.9529,9.9529,9.9529,9.9529,9.9529,9.9529,9.9529,9.9529,9.9529,9.9529,9.9529,9.9529,9.9529,9.9529,9.9529,9.9529,9.9529,9.9536,9.9524,9.9526,9.9564,9.9617,9.9828,9.9902,9.9914,9.9924,9.9903,9.9903,9.9903,9.9903,9.9675,9.8575,9.8291,9.8019,9.6918,9.621,9.5751,9.5696,9.5251,9.4872,9.4872,9.5289,9.5705,9.5705,9.7031,9.847,9.9569,9.8773,9.8508,9.9569,9.972,9.9735,9.9701,9.9726,9.9763,9.9841,9.9763,9.9763,9.9841,9.9749,9.9787,9.9902,9.9801,9.9697,9.9701,9.9697,9.972,9.972,9.972,9.972,9.972,9.972,9.972,5.6387,5.9047,6.0986,6.5451,6.7879,6.9131,6.9131,6.9587,6.996,6.996,7.0877,7.2167,7.3874,7.5506,7.7099,7.8769,7.9527,8.0476,8.2183,8.3398,8.4915,8.7192,8.8482,8.9393,8.9924,8.9468,8.9393,8.9962,9.0,8.9947,8.9817,9.0796,9.1601,9.2132,9.3154,9.4474,9.6131,9.6697,9.7566,9.8698,9.9265,9.9529,9.9529,9.9529,9.9529,9.9529,9.9529,9.9529,9.9529,9.9529,9.9529,9.9529,9.9529,9.9529,9.9529,9.9529,9.952,9.9545,9.9545,9.9582,9.9689,9.9879,9.9914,9.9897,9.9933,9.9903,9.9789,9.922,9.9068,9.8688,9.6981,9.6524,9.6242,9.5134,9.4414,9.4008,9.3991,9.3547,9.3168,9.3168,9.3168,9.3357,9.3888,9.4872,9.6122,9.7826,9.7599,9.7599,9.8735,9.9379,9.9735,9.9701,9.9726,9.9763,9.9902,9.9815,9.9777,9.9914,9.9801,9.9763,9.9914,9.9801,9.9697,9.9701,9.9697,9.972,9.972,9.972,9.972,9.972,9.972,9.972,4.9029,5.2264,5.5497,5.9119,6.363,6.7158,6.7348,6.8638,6.9852,6.989,6.9928,7.0497,7.2205,7.3874,7.5544,7.7099,7.8731,8.04,8.2108,8.2373,8.3663,8.6926,8.7344,8.8027,8.9696,8.8406,8.814,8.981,8.9962,8.9947,8.9827,8.9817,9.0518,9.2019,9.2057,9.2796,9.4394,9.6039,9.6908,9.6924,9.8623,9.9454,9.9454,9.9491,9.9529,9.9529,9.9529,9.9529,9.9529,9.9529,9.9529,9.9529,9.9529,9.9529,9.9529,9.9529,9.952,9.9545,9.9507,9.9705,9.9902,9.9902,9.9897,9.9903,9.9903,9.9865,9.9485,9.7854,9.736,9.6905,9.5236,9.4778,9.4761,9.4713,9.3466,9.2264,9.2248,9.0971,8.9797,8.9759,8.9759,9.029,9.1842,9.2183,9.2827,9.4456,9.6046,9.7031,9.7031,9.8546,9.9583,9.9625,9.9701,9.979,9.9902,9.9803,9.9777,9.9906,9.9739,9.9701,9.983,9.9663,9.9546,9.955,9.9546,9.9569,9.9569,9.9569,9.9569,9.9569,9.9606,9.9644,4.8718,4.7963,4.8725,6.0556,6.1825,6.1113,6.4773,6.5974,6.6665,6.7889,6.9112,7.0485,7.221,7.3874,7.5544,7.7099,7.7744,7.8655,8.0362,8.1652,8.2753,8.3701,8.4877,8.5826,8.6281,8.704,8.7685,8.814,8.9317,9.0,8.9947,8.9875,8.9996,9.0417,9.0441,9.1199,9.2758,9.3249,9.4061,9.5187,9.6886,9.7679,9.7717,9.8963,9.9529,9.9529,9.9529,9.9529,9.9529,9.9529,9.9529,9.9529,9.9529,9.9529,9.9529,9.9503,9.9526,9.9545,9.9617,9.972,9.9801,9.9891,9.9914,9.9897,9.9933,9.9068,9.8005,9.7512,9.6526,9.5167,9.3453,9.3015,9.2704,9.1486,9.0813,9.0518,9.0493,9.0138,8.9418,8.8207,8.8964,8.9191,8.7184,8.8888,9.0668,9.1123,9.26,9.366,9.366,9.5137,9.6681,9.7881,9.9132,9.9891,9.9902,9.9803,9.9739,9.9763,9.8599,9.7917,9.7945,9.6818,9.6198,9.6212,9.6198,9.6198,9.6198,9.6198,9.6198,9.6236,9.7372,9.7902,4.2431,4.1522,4.2469,5.126,5.3326,5.4512,5.9612,6.1837,6.3476,6.5878,6.8322,7.0041,7.0334,7.2342,7.4277,7.5184,7.6465,7.7706,7.8693,8.0286,8.1614,8.2335,8.2677,8.3132,8.3815,8.4801,8.594,8.7382,8.8406,8.9279,8.9962,8.9939,8.9884,8.9817,8.9785,9.0227,9.1161,9.1809,9.2588,9.3512,9.5133,9.5942,9.598,9.6962,9.7415,9.7452,9.817,9.8472,9.851,9.9227,9.9529,9.9529,9.9529,9.9529,9.9363,9.7995,9.7481,9.7481,9.7568,9.8106,9.8754,9.8829,9.9317,9.9792,9.906,9.8157,9.7095,9.5729,9.4604,9.3411,9.1795,9.1304,9.1037,9.0053,8.9796,8.9797,8.9797,8.9797,8.9494,8.851,8.8547,8.8358,8.707,8.7904,8.8737,8.8737,8.957,9.0744,9.2145,9.3168,9.4697,9.7049,9.7592,9.7781,9.7794,9.7731,9.768,9.768,9.6743,9.6198,9.6226,9.5341,9.4872,9.4872,9.4872,9.4493,9.3812,9.4493,9.4493,9.385,9.5478,9.5819,3.3029,3.4245,3.709,3.7647,4.1828,4.7148,0.0,5.5831,5.8873,6.2273,6.5519,6.735,6.6021,6.8867,7.1449,7.1638,7.4585,7.6953,7.7295,7.8661,8.0173,8.169,8.0704,8.0476,8.1994,8.2297,8.3663,8.6661,8.7192,8.8027,8.9544,8.9848,8.9947,8.9827,8.9827,8.9834,8.9797,9.1199,9.1868,9.185,9.3643,9.4394,9.4281,9.4545,9.4583,9.4545,9.6055,9.6697,9.6811,9.8321,9.8963,9.8963,9.8963,9.8985,9.8651,9.5757,9.4683,9.4683,9.4697,9.5697,9.6994,9.7221,9.8503,9.9599,9.7854,9.7133,9.6336,9.3376,9.231,9.1759,9.0356,8.9885,8.9817,8.9808,8.9785,8.9797,8.9797,8.9797,8.9759,8.9532,8.8472,8.7904,8.904,8.8131,8.7335,8.7525,8.7563,8.8623,9.1653,9.2032,9.3206,9.6311,9.5402,9.4635,9.4851,9.4862,9.4876,9.4849,9.4686,9.4583,9.4573,9.4394,9.4304,9.4304,9.4115,9.3282,9.1767,9.3092,9.3054,9.1805,9.3509,9.3282,0.0,0.0,0.0,0.0,0.0,0.0,0.0,4.5324,4.6745,5.0115,5.2429,5.4167,5.5202,6.0289,6.4806,6.6173,7.0349,7.4366,7.6985,7.7651,7.7972,7.8313,7.9262,8.0021,8.0362,8.1614,8.2677,8.336,8.556,8.7002,8.7306,8.9013,9.0,8.9955,8.9955,8.9913,8.9797,9.0124,9.0161,8.9979,9.3018,9.4017,9.3299,9.5074,9.5376,9.447,9.4809,9.496,9.4998,9.5338,9.5451,9.5451,9.5535,9.5612,9.5546,9.5027,9.4837,9.4811,9.4814,9.4491,9.4386,9.6177,9.8187,9.9523,9.7398,9.5539,9.3908,9.2807,9.1513,9.0357,8.9937,8.9829,8.9808,8.9811,8.9811,8.9797,8.9797,8.9797,8.9381,8.8017,8.8585,8.8547,8.6161,8.6616,8.7752,8.9116,8.9305,8.9532,9.0214,9.029,9.1061,9.3057,9.3019,9.3373,9.4735,9.4863,9.4876,9.4862,9.3561,9.2827,9.2803,9.1515,9.0782,9.0782,8.9456,8.8585,8.8244,8.7222,8.726,8.832,8.9987,8.9153,0.0,0.0,0.0,0.0,0.0,0.0,0.0,0.0,0.0,0.0,0.0,4.9211,5.0819,0.0,6.0721,6.327,6.792,7.213,7.4598,7.6327,7.7061,7.6302,7.763,7.8617,7.8617,8.0173,8.15,8.2373,8.4005,8.4953,8.4953,8.814,9.0,9.0,9.0,8.9947,8.9893,8.9836,8.9769,8.9636,9.1208,9.1676,9.1185,9.2317,9.2548,9.204,9.204,9.2512,9.3305,9.3305,9.3834,9.4402,9.2843,9.2286,9.2358,9.2425,9.2434,9.2434,9.2421,9.3149,9.4249,9.535,9.6488,9.7057,9.5425,9.4173,9.2997,9.1669,9.0613,8.9901,8.9816,8.9803,8.9785,8.9811,8.9797,8.9797,8.9797,8.9797,8.9532,8.8699,8.9229,8.9267,8.7563,8.7979,8.8813,8.9684,8.9797,8.9797,8.9797,8.9797,8.9811,8.9786,9.0544,9.1087,9.1073,9.1845,9.2324,9.2335,9.1515,9.1074,9.1074,8.9445,8.8536,8.8536,8.6856,8.5593,8.476,8.476,8.476,8.476,8.5631,8.5101,0.0,0.0,0.0,0.0,0.0,0.0,0.0,0.0,0.0,0.0,0.0,0.0,0.0,0.0,0.0,5.9348,6.4762,6.9325,7.1678,7.4284,7.5592,7.4644,7.5929,7.6909,7.6909,7.8427,7.9983,8.1349,8.2146,8.2563,8.2563,8.6054,8.8634,8.9962,9.0,9.0,9.0,8.9893,8.9836,8.9836,8.9648,0.0,8.941,8.941,8.947,8.956,8.9648,9.0382,9.1594,9.1594,9.2388,9.3388,9.0809,8.9865,9.0,9.0,9.0,9.0,9.0,9.1745,9.3908,9.3908,9.3908,9.3756,9.2921,9.2656,0.0,9.0474,8.9901,8.9813,8.9805,8.9808,8.9797,8.9797,8.9797,8.9797,8.9797,8.9797,8.9797,8.9797,8.9797,8.9797,8.9797,8.8737,8.7866,8.7866,8.7866,8.7866,8.7866,8.8169,8.7828,8.6427,8.7828,8.8282,8.6919,8.7752,8.8623,8.9267,8.9003,8.8712,8.8371,8.7044,8.587,8.4884,8.2879,8.1654,8.1314,8.1995,8.2298,8.2147,7.9268,7.8435,0.0,0.0,0.0,0.0,0.0,0.0,0.0,0.0,0.0,0.0,0.0,0.0,0.0,0.0,0.0,0.0,5.7962,6.4873,6.9625,7.0577,7.1293,7.266,7.4273,7.5316,7.5316,7.672,7.7744,7.7934,7.9376,8.0248,8.0248,8.0742,0.0,0.0,0.0,9.0,9.0,8.9993,8.9985,8.9985,8.9939,8.9761,8.941,8.941,8.943,8.945,8.9701,8.9745,8.9715,8.9715,8.9828,8.9999,8.9868,8.9883,9.0,9.0,9.0,9.0,9.0,0.0,0.0,9.0531,9.0531,9.0531,9.0417,9.0379,9.0278,8.9937,8.9825,8.9805,8.9803,8.9807,8.9797,8.9797,8.9797,8.9797,8.9797,8.9797,8.9797,8.9797,8.9797,8.9797,8.9797,8.4912,8.1011,8.1011,8.1011,8.1011,8.1011,8.2223,8.3018,8.2829,8.4306,0.0,8.5063,8.3851,8.4381,8.7373,8.6161,8.4695,8.3331,8.3065,8.0857,7.6326,7.3095,7.3588,7.7905,7.5102,7.6655,8.192,6.8578,6.4763,0.0,0.0,0.0,0.0,0.0,0.0,0.0,0.0,0.0,0.0,0.0,0.0,0.0,0.0,0.0,0.0,5.44,5.8735,6.0868,6.3705,6.6589,6.9245,7.1958,7.3571,7.3571,7.505,7.6264,7.6872,7.7023,7.7896,7.9793,7.9907,8.1197,8.4043,8.4119,8.4119,8.4119,8.8027,9.0,9.0,8.9773,8.9577,8.941,8.941,8.9543,8.9761,8.9855,8.9799,8.967,8.967,8.9678,8.9761,0.0,0.0,0.0,0.0,9.0,9.0,9.0,9.0,9.0,9.0,9.0,9.0,9.0,9.0,8.9968,8.9957,8.8915,8.8159,8.9461,8.9059,8.8585,8.957,8.9797,8.9797,8.9797,8.9797,8.9797,8.9797,8.8207,0.0,8.6881,8.4571,8.2715,8.2715,8.2715,8.2715,8.2715,8.3283,8.298,8.1086,8.3207,8.4003,8.2109,8.303,0.0,0.0,0.0,8.594,8.5381,8.5258,0.0,0.0,0.0,7.033,7.1467,6.8172,0.0,0.0,6.1799,5.7984,0.0,0.0,0.0,0.0,0.0,0.0,0.0,0.0,0.0,0.0,0.0,0.0,0.0,0.0,0.0,0.0,4.8897,5.1888,5.3224,5.739,6.1732,6.5604,6.9043,7.1294,7.1749,7.3343,7.4709,7.5619,7.4405,7.4671,7.7023,7.8882,7.9907,7.9907,7.9907,7.9907,7.9907,8.4764,8.723,8.723,8.6919,8.7762,8.9577,8.9577,8.9748,9.0,9.0,8.9893,8.9701,8.9701,8.9786,8.9779,8.7944,8.723,8.723,8.723,8.723,8.723,8.723,8.723,8.723,8.723,8.723,8.723,8.723,8.852,8.9817,8.8856,8.7585,8.6812,8.808,8.7522,8.6881,8.8131,8.8434,8.8434,8.8434,8.8434,8.8434,8.8434,8.5707,8.3435,8.3435,8.226,8.1352,8.1352,8.1352,8.1352,8.1352,8.2147,8.1806,7.9458,8.173,8.245,8.0102,8.1641,8.3812,8.64,8.5751,8.5884,8.7343,8.5126,8.2149,7.8556,7.1904,6.8285,0.0,0.0,0.0,0.0,0.0,0.0,0.0,0.0,0.0,0.0,0.0,0.0,0.0,0.0,0.0,0.0,0.0,0.0,0.0,0.0,0.0,0.0,0.0,0.0,4.9241,5.2874,5.6902,6.1948,6.5561,6.8259,6.989,7.1597,7.2812,7.3343,7.137,7.0188,7.0302,7.6378,7.9907,7.9907,7.9907,7.9907,7.9907,8.0097,8.021,8.021,8.021,8.3619,8.9993,8.9993,9.0,9.0,9.0,8.9773,8.943,8.943,8.9581,8.918,8.2724,8.021,8.021,8.021,8.021,8.021,8.021,8.021,8.021,8.021,8.021,8.021,8.021,8.4801,8.9335,8.6027,8.5773,8.6229,8.5176,8.4874,8.4861,8.4898,8.4898,8.4898,8.4898,8.4898,8.4898,8.4898,8.2298,8.0064,8.0064,7.5974,7.2716,7.2716,7.2716,0.0,7.2716,7.5557,7.7564,7.7451,7.9003,8.0026,7.9912,7.8473,7.9659,8.4517,8.1884,8.2282,8.7097,7.9514,7.5145,7.5004,6.8457,6.6581,6.9687,0.0,0.0,0.0,0.0,0.0,0.0,0.0,0.0,0.0,0.0,0.0,0.0,0.0,0.0,0.0,0.0,0.0,0.0,0.0,0.0,0.0,0.0,0.0,0.0,4.5654,5.1785,5.6762,6.0365,6.2631,6.3248,6.3813,6.3314,6.1309,6.6641,6.996,6.996,7.2091,7.3305,7.3305,7.7592,7.9907,7.9907,7.9907,7.9907,7.9907,7.9907,8.1083,8.3284,8.3284,8.3284,8.3284,8.3284,8.3217,8.3114,8.3114,8.3173,8.302,8.0773,7.9907,7.9907,7.9907,7.9907,7.9907,7.9907,7.9907,7.9907,7.9907,7.9907,7.9907,7.9907,8.15,8.3068,8.1914,8.1838,8.2546,8.428,8.3914,8.3359,8.4482,8.4747,8.4747,8.4747,8.4747,8.4747,8.4747,8.0291,7.7261,7.9496,7.6617,7.5102,7.8397,7.6087,7.4799,7.7072,7.7337,7.7791,7.8928,7.9534,7.9912,7.9912,7.9368,8.0212,8.3028,8.2187,8.1818,8.2358,8.0784,7.7732,7.326,7.3155,6.8778,5.984,0.0,0.0,0.0,0.0,0.0,0.0,0.0,0.0,0.0,0.0,0.0,0.0,0.0,0.0,0.0,0.0,0.0,0.0,0.0,0.0,0.0,0.0,0.0,0.0,0.0,0.0,5.492,5.8163,0.0,5.8771,5.7935,5.8239,6.021,6.6337,6.8936,6.6513,6.8671,6.996,6.996,7.4102,7.634,7.634,7.634,7.7554,7.9907,7.9907,7.9907,7.9907,7.9907,7.9907,7.9907,7.9907,7.9907,7.9717,7.7327,7.634,7.634,7.634,7.634,7.634,7.634,7.634,7.634,7.634,7.634,7.634,7.634,7.634,7.634,7.634,7.634,7.6849,7.9234,7.9907,8.0177,8.1453,8.1579,8.1465,8.1718,8.1755,8.2021,8.2866,8.2071,8.1352,8.168,7.8019,7.514,7.6125,7.5481,7.5292,7.6693,7.5708,7.5405,7.6996,7.7299,7.7791,7.889,7.9534,7.9912,7.9912,7.9368,7.972,8.1398,8.0396,7.9496,7.9003,7.8869,7.6472,7.1498,7.1212,6.6051,0.0,0.0,0.0,0.0,0.0,0.0,0.0,0.0,0.0,0.0,0.0,0.0,0.0,0.0,0.0,0.0,0.0,0.0,0.0,0.0,0.0,0.0,0.0,0.0,0.0,0.0,0.0,5.5544,5.8201,0.0,0.0,0.0,0.0,6.7168,6.796,6.5304,5.9195,6.5944,6.9809,6.9467,6.9467,6.9619,6.996,6.996,7.3153,7.9376,7.9376,7.9376,7.9376,7.9376,7.9376,7.9376,7.9376,7.9376,7.8882,7.2584,6.996,6.9923,6.9619,6.9055,6.8453,6.8448,6.9088,6.996,6.996,6.996,7.0036,7.0378,7.0264,6.996,6.996,6.9245,0.0,0.0,7.9117,7.9382,7.7136,7.8132,7.9155,7.6871,7.6265,7.6882,7.9155,7.7148,7.514,7.5886,7.4989,7.3133,7.0141,0.0,7.2376,6.802,7.1277,7.3815,7.2716,7.5216,7.7223,7.7451,7.8852,7.9761,7.9761,7.8284,7.7993,7.9541,7.6623,7.5524,7.704,7.4009,7.1346,6.9308,6.3097,0.0,0.0,0.0,0.0,0.0,0.0,0.0,0.0,0.0,0.0,0.0,0.0,0.0,0.0,0.0,0.0,0.0,0.0,0.0,0.0,0.0,0.0,0.0,0.0,0.0,0.0,3.526,3.9666,4.7207,4.9227,4.8463,0.0,0.0,0.0,0.0,0.0,0.0,4.4813,6.085,6.7646,6.2605,6.2453,6.4882,6.9923,6.996,7.0839,7.2508,7.2508,7.2508,7.2508,7.2508,7.2508,7.2508,7.2508,7.2508,7.2394,7.0687,6.996,6.9467,6.4426,5.6336,4.7557,4.7676,5.7141,6.996,6.996,6.996,7.0801,7.5733,7.3988,6.996,6.996,0.0,0.0,0.0,0.0,7.9761,7.9155,7.8132,7.6958,7.5557,7.4572,7.4345,7.5822,7.6049,7.5102,7.2073,6.7263,6.4498,6.6922,6.321,0.0,6.821,6.7111,6.8096,7.5178,7.461,7.5065,7.8852,7.8511,7.8019,7.8019,7.7602,7.6996,7.6174,7.5341,7.447,7.3636,7.2765,6.9167,6.2529,0.0,0.0,0.0,0.0,0.0,0.0,0.0,0.0,0.0,0.0,0.0,0.0,0.0,0.0,0.0,0.0,0.0,0.0,0.0,0.0,0.0,0.0,0.0,0.0,0.0,0.0,0.0,3.409,4.0736,4.2461,4.3226,4.0309,0.0,0.0,0.0,0.0,0.0,0.0,0.0,0.0,0.0,4.6887,5.814,6.6134,6.9923,6.7044,6.7044,6.996,6.996,6.996,6.996,6.996,6.996,6.996,6.996,6.4995,5.7559,6.6361,6.8184,6.4431,0.0,0.0,0.0,0.0,4.7115,5.6796,5.6796,5.6826,5.9418,7.4861,0.0,0.0,0.0,0.0,0.0,0.0,0.0,6.4384,7.3171,7.4496,7.336,7.2754,7.211,7.2224,7.4383,7.4156,7.2754,7.0255,6.3569,5.7558,5.5136,5.4767,0.0,0.0,0.0,6.5255,7.0179,7.1694,7.3398,7.6277,7.639,7.6277,7.6277,7.5595,7.4724,7.3777,7.3019,7.1845,7.0179,6.802,6.3589,0.0,0.0,0.0,0.0,0.0,0.0,0.0,0.0,0.0,0.0,0.0,0.0,0.0,0.0,0.0,0.0,0.0,0.0,0.0,0.0,0.0,0.0,0.0,0.0,0.0,0.0,0.0,0.0,0.0,4.2824,3.8376,0.0,0.0,0.0,0.0,0.0,0.0,0.0,0.0,0.0,0.0,0.0,0.0,0.0,6.4705,6.4671,6.1487,6.3267,6.996,6.996,6.9505,6.8633,6.8633,6.8633,6.8519,6.6779,0.0,4.5193,6.0844,0.0,0.0,0.0,0.0,0.0,0.0,0.0,0.0,0.0,0.0,0.0,0.0,0.0,0.0,0.0,0.0,0.0,0.0,0.0,0.0,0.0,0.0,6.98,6.98,6.98,7.0596,7.355,6.9729,6.5467,6.4608,5.8899,5.0953,0.0,0.0,0.0,0.0,0.0,0.0,6.2841,6.7944,7.1921,7.2565,7.3777,7.4421,7.4193,7.3019,7.211,7.1656,6.9876,6.8058,6.6354,6.215,0.0,0.0,0.0,0.0,0.0,0.0,0.0,0.0,0.0,0.0,0.0,0.0,0.0,0.0,0.0,0.0,0.0,0.0,0.0,0.0,0.0,0.0,0.0,0.0,0.0,0.0,0.0,0.0,0.0,0.0,0.0,0.0,0.0,0.0,0.0,0.0,0.0,0.0,0.0,0.0,0.0,0.0,0.0,0.0,0.0,0.0,0.0,0.0,0.0,0.0,6.996,6.7044,6.1657,6.1657,6.1657,6.1012,5.0046,5.2664,6.4132,5.6364,0.0,0.0,0.0,0.0,0.0,0.0,0.0,0.0,0.0,0.0,0.0,0.0,0.0,0.0,0.0,0.0,0.0,0.0,0.0,0.0,0.0,0.0,6.98,6.98,6.98,6.9952,7.0558,0.0,0.0,0.0,0.0,0.0,0.0,0.0,0.0,0.0,0.0,0.0,6.3939,6.6619,6.9762,7.3928,7.3436,7.2186,7.0785,7.1656,7.1126,6.8323,6.5331,6.2907,0.0,0.0,0.0,0.0,0.0,0.0,0.0,0.0,0.0,0.0,0.0,0.0,0.0,0.0,0.0,0.0,0.0,0.0,0.0,0.0,0.0,0.0,0.0,0.0,0.0,0.0,0.0,0.0,0.0,0.0,0.0,0.0,0.0,0.0,0.0,0.0,0.0,0.0,0.0,0.0,0.0,0.0,0.0,0.0,0.0,0.0,0.0,0.0,0.0,0.0,0.0,0.0,0.0,0.0,0.0,0.0,0.0,0.0,5.0072,4.9843,0.0,0.0,0.0,0.0,0.0,0.0,0.0,0.0,0.0,0.0,0.0,0.0,0.0,0.0,0.0,0.0,0.0,0.0,0.0,0.0,0.0,0.0,0.0,0.0,0.0,0.0,0.0,0.0,0.0,0.0,0.0,0.0,0.0,0.0,0.0,0.0,0.0,0.0,0.0,0.0,6.196,6.518,6.8513,7.1845,7.0709,6.9346,6.855,6.9232,6.7907,6.3665,6.1127,0.0,0.0,0.0,0.0,0.0,0.0,0.0,0.0,0.0,0.0,0.0,0.0,0.0,0.0,0.0,0.0,0.0,0.0,0.0,0.0,0.0,0.0,0.0,0.0,0.0,0.0,0.0,0.0,0.0,0.0,0.0,0.0,0.0,0.0,0.0,0.0,0.0,0.0,0.0,0.0,0.0,0.0,0.0,0.0,0.0,0.0,0.0,0.0,0.0,0.0,0.0,0.0,0.0,0.0,0.0,0.0,0.0,0.0,0.0,4.6692,4.2325,0.0,0.0,0.0,0.0,0.0,0.0,0.0,0.0,0.0,0.0,0.0,0.0,0.0,0.0,0.0,0.0,0.0,0.0,0.0,0.0,0.0,0.0,0.0,0.0,0.0,0.0,0.0,0.0,0.0,0.0,0.0,0.0,0.0,0.0,0.0,0.0,0.0,0.0,0.0,0.0,5.8013,6.3021,6.7263,6.9535,6.7982,6.6884,6.7225,6.696,6.4801,6.0171,5.7293,0.0,0.0,0.0,0.0,0.0,0.0,0.0,0.0,0.0,0.0,0.0,0.0,0.0,0.0,0.0,0.0,0.0,0.0,0.0,0.0,0.0,0.0,0.0,0.0,0.0,0.0,0.0,0.0,0.0,0.0,0.0,0.0,0.0,0.0,0.0,0.0,0.0,0.0,0.0,0.0,0.0,0.0,0.0,0.0,0.0,0.0,0.0,0.0,0.0,0.0,0.0,0.0,0.0,0.0,0.0,0.0,0.0,0.0,0.0,0.0,0.0,0.0,0.0,0.0,0.0,0.0,0.0,0.0,0.0,0.0,0.0,0.0,0.0,0.0,0.0,0.0,0.0,0.0,0.0,0.0,0.0,0.0,0.0,0.0,0.0,0.0,0.0,0.0,0.0,0.0,0.0,0.0,0.0,0.0,0.0,0.0,0.0,0.0,0.0,0.0,0.0,5.1992,5.9158,6.5142,6.9346,6.6998,6.571,6.7149,6.5937,6.3627,6.0095,0.0,0.0,0.0,0.0,0.0,0.0,0.0,0.0,0.0,0.0,0.0,0.0,0.0,0.0,0.0,0.0,0.0,0.0,0.0,0.0,0.0,0.0,0.0,0.0,0.0,0.0,0.0,0.0,0.0,0.0,0.0,0.0,0.0,0.0,0.0,0.0,0.0,0.0,0.0,0.0,0.0,0.0,0.0,0.0,0.0,0.0,0.0,0.0,0.0,0.0,0.0,0.0,0.0,0.0,0.0,0.0,0.0,0.0,0.0,0.0,0.0,0.0,0.0,0.0,0.0,0.0,0.0,0.0,0.0,0.0,0.0,0.0,0.0,0.0,0.0,0.0,0.0,0.0,0.0,0.0,0.0,0.0,0.0,0.0,0.0,0.0,0.0,0.0,0.0,0.0,0.0,0.0,0.0,0.0,0.0,0.0,0.0,0.0,0.0,0.0,0.0,0.0,4.9947,5.9537,6.6695,6.9497,6.6846,6.5558,6.7111,6.5824,6.1771,5.4386,0.0,0.0,0.0,0.0,0.0,0.0,0.0,0.0,0.0,0.0,0.0,0.0,0.0,0.0,0.0,0.0,0.0,0.0,0.0,0.0,0.0,0.0,0.0,0.0,0.0,0.0,0.0,0.0,0.0,0.0,0.0,0.0,0.0,0.0,0.0,0.0,0.0,0.0,0.0,0.0,0.0,0.0,0.0,0.0,0.0,0.0,0.0,0.0,0.0,0.0,0.0,0.0,0.0,0.0,0.0,0.0,0.0,0.0,0.0,0.0,0.0,0.0,0.0,0.0,0.0,0.0,0.0,0.0,0.0,0.0,0.0,0.0,0.0,0.0,0.0,0.0,0.0,0.0,0.0,0.0,0.0,0.0,0.0,0.0,0.0,0.0,0.0,0.0,0.0,0.0,0.0,0.0,0.0,0.0,0.0,0.0,0.0,0.0,0.0,0.0,0.0,0.0,4.8955,5.965,6.7376,6.9535,6.5975,6.4687,6.7755,6.4271,5.8703,5.1129,0.0,0.0,0.0,0.0,0.0,0.0,0.0,0.0,0.0,0.0,0.0,0.0,0.0,0.0,0.0,0.0,0.0,0.0,0.0,0.0,0.0,0.0,0.0,0.0,0.0,0.0,0.0,0.0,0.0,0.0,0.0,0.0,0.0,0.0,0.0,0.0,0.0,0.0,0.0,0.0,0.0,0.0,0.0,0.0,0.0,0.0,0.0,0.0,0.0,0.0,0.0,0.0,0.0,0.0,0.0,0.0,0.0,0.0,0.0,0.0,0.0,0.0,0.0,0.0,0.0,0.0,0.0,0.0,0.0,0.0,0.0,0.0,0.0,0.0,0.0,0.0,0.0,0.0,0.0,0.0,0.0,0.0,0.0,0.0,0.0,0.0,0.0,0.0,0.0,0.0,0.0,0.0,0.0,0.0,0.0,0.0,0.0,0.0,0.0,0.0,0.0,0.0,4.8618,5.8647,6.6202,6.9421,6.3892,6.2604,6.9194,6.0635,5.4196,0.0,0.0,0.0,0.0,0.0,0.0,0.0,0.0,0.0,0.0,0.0,0.0,0.0,0.0,0.0,0.0,0.0,0.0,0.0,0.0,0.0,0.0,0.0,0.0,0.0,0.0,0.0,0.0,0.0,0.0,0.0,0.0,0.0,0.0,0.0,0.0,0.0,0.0,0.0,0.0,0.0,0.0,0.0,0.0,0.0,0.0,0.0,0.0,0.0,0.0,0.0,0.0,0.0,0.0,0.0,0.0,0.0,0.0,0.0,0.0,0.0,0.0,0.0,0.0,0.0,0.0,0.0,0.0,0.0,0.0,0.0,0.0,0.0,0.0,0.0,0.0,0.0,0.0,0.0,0.0,0.0,0.0,0.0,0.0,0.0,0.0,0.0,0.0,0.0,0.0,0.0,0.0,0.0,0.0,0.0,0.0,0.0,0.0,0.0,0.0,0.0,0.0,0.0,4.2473,5.3736,6.265,6.6089,6.2529,6.1657,6.6089,6.5596,5.8022,4.1503,0.0,0.0,0.0,0.0,0.0,0.0,0.0,0.0,0.0,0.0,0.0,0.0,0.0,0.0,0.0,0.0,0.0,0.0,0.0,0.0,0.0,0.0,0.0,0.0,0.0,0.0,0.0,0.0,0.0,0.0,0.0,0.0,0.0,0.0,0.0,0.0,0.0,0.0,0.0,0.0,0.0,0.0,0.0,0.0,0.0,0.0,0.0,0.0,0.0,0.0,0.0,0.0,0.0,0.0,0.0,0.0,0.0,0.0,0.0,0.0,0.0,0.0,0.0,0.0,0.0,0.0,0.0,0.0,0.0,0.0,0.0,0.0,0.0,0.0,0.0,0.0,0.0,0.0,0.0,0.0,0.0,0.0,0.0,0.0,0.0,0.0,0.0,0.0,0.0,0.0,0.0,0.0,0.0,0.0,0.0,0.0,0.0,0.0,0.0,0.0,0.0,0.0,0.0,5.2667,6.0606,6.2794,6.1127,6.1733,6.6354,6.4043,5.6128,4.154,0.0,0.0,0.0,0.0,0.0,0.0,0.0,0.0,0.0,0.0,0.0,0.0,0.0,0.0,0.0,0.0,0.0,0.0,0.0,0.0,0.0,0.0,0.0,0.0,0.0,0.0,0.0,0.0,0.0,0.0,0.0,0.0,0.0,0.0,0.0,0.0,0.0,0.0,0.0,0.0,0.0,0.0,0.0,0.0,0.0,0.0,0.0,0.0,0.0,0.0,0.0,0.0,0.0,0.0,0.0,0.0,0.0,0.0,0.0,0.0,0.0,0.0,0.0,0.0,0.0,0.0,0.0,0.0,0.0,0.0,0.0,0.0,0.0,0.0,0.0,0.0,0.0,0.0,0.0,0.0,0.0,0.0,0.0,0.0,0.0,0.0,0.0,0.0,0.0,0.0,0.0,0.0,0.0,0.0,0.0,0.0,0.0,0.0,0.0,0.0,0.0,0.0,0.0,5.4805,5.9868,5.9868,5.9868,6.2377,6.855,5.7757,5.0674,5.0674,3.4654,0.0,0.0,0.0,0.0,0.0,0.0,0.0,0.0,0.0,0.0,0.0,0.0,0.0,0.0,0.0,0.0,0.0,0.0,0.0,0.0,0.0,0.0,0.0,0.0,0.0,0.0,0.0,0.0,0.0,0.0,0.0,0.0,0.0,0.0,0.0,0.0,0.0,0.0,0.0,0.0,0.0,0.0,0.0,0.0,0.0,0.0,0.0,0.0,0.0,0.0,0.0,0.0,0.0,0.0,0.0,0.0,0.0,0.0,0.0,0.0,0.0,0.0,0.0,0.0,0.0,0.0,0.0,0.0,0.0,0.0,0.0,0.0,0.0,0.0,0.0,0.0,0.0,0.0,0.0,0.0,0.0,0.0,0.0,0.0,0.0,0.0,0.0,0.0,0.0,0.0,0.0,0.0,0.0,0.0,0.0,0.0,0.0,0.0,0.0,0.0,0.0,0.0,5.6536,5.9868,5.9868,5.9868,6.0512,6.2074,5.9338,5.752,5.752,3.942,0.0,0.0,0.0,0.0,0.0,0.0,0.0,0.0,0.0,0.0,0.0,0.0,0.0,0.0,0.0,0.0,0.0,0.0,0.0,0.0,0.0,0.0,0.0,0.0,0.0,0.0,0.0,0.0,0.0,0.0,0.0,0.0,0.0,0.0,0.0,0.0,0.0,0.0,0.0,0.0,0.0,0.0,0.0,0.0,0.0,0.0,0.0,0.0,0.0,0.0,0.0,0.0,0.0,0.0,0.0,0.0,0.0,0.0,0.0,0.0,0.0,0.0,0.0,0.0,0.0,0.0,0.0,0.0,0.0,0.0,0.0,0.0,0.0,0.0,0.0,0.0,0.0,0.0,0.0,0.0,0.0,0.0,0.0,0.0,0.0,0.0,0.0,0.0,0.0,0.0,0.0,0.0,0.0,0.0,0.0,0.0,0.0,0.0,0.0,0.0,0.0,0.0,4.8152,5.4123,5.93,5.9868,5.9868,5.9868,5.9868,5.9868,5.9868,3.8176,0.0,0.0,0.0,0.0,0.0,0.0,0.0,0.0,0.0,0.0,0.0,0.0,0.0,0.0,0.0,0.0,0.0,0.0,0.0,0.0,0.0,0.0,0.0,0.0,0.0,0.0,0.0,0.0,0.0,0.0,0.0,0.0,0.0,0.0,0.0,0.0,0.0,0.0,0.0,0.0,0.0,0.0,0.0,0.0,0.0,0.0,0.0,0.0,0.0,0.0,0.0,0.0,0.0,0.0,0.0,0.0,0.0,0.0,0.0,0.0,0.0,0.0,0.0,0.0,0.0,0.0,0.0,0.0,0.0,0.0,0.0,0.0,0.0,0.0,0.0,0.0,0.0,0.0,0.0,0.0,0.0,0.0,0.0,0.0,0.0,0.0,0.0,0.0,0.0,0.0,0.0,0.0,0.0,0.0,0.0,0.0,0.0,0.0,0.0,0.0,0.0,0.0,0.0,4.4602,5.4208,5.7994,5.9868,5.9868,5.9868,5.9868,5.9868,0.0,0.0,0.0,0.0,0.0,0.0,0.0,0.0,0.0,0.0,0.0,0.0,0.0,0.0,0.0,0.0,0.0,0.0,0.0,0.0,0.0,0.0,0.0,0.0,0.0,0.0,0.0,0.0,0.0,0.0,0.0,0.0,0.0,0.0,0.0,0.0,0.0,0.0,0.0,0.0,0.0,0.0,0.0,0.0,0.0,0.0,0.0,0.0,0.0,0.0,0.0,0.0,0.0,0.0,0.0,0.0,0.0,0.0,0.0,0.0,0.0,0.0,0.0,0.0,0.0,0.0,0.0,0.0,0.0,0.0,0.0,0.0,0.0,0.0,0.0,0.0,0.0,0.0,0.0,0.0,0.0,0.0,0.0,0.0,0.0,0.0,0.0,0.0,0.0,0.0,0.0,0.0,0.0,0.0,0.0,0.0,0.0,0.0,0.0,0.0,0.0,0.0,0.0,0.0,3.234,3.3728,4.9451,5.9868,5.9868,5.9868,5.9868,5.9868,0.0,0.0,0.0,0.0,0.0,0.0,0.0,0.0,0.0,0.0,0.0,0.0,0.0,0.0]}],[{"header":{"parameterUnit":"kt","parameterCategory":2,"dx":1,"dy":1,"la1":29.285339999999998,"la2":30.599998999999997,"lo1":-89.70041500000002,"lo2":-87.6738589999976,"nx":112,"ny":82,"refTime":"2022-10-28T06:00:00:Z","depth":0,"parameterNumber":2,"parameterNumberName":"V-component_of_WINDS"},"data":[1.6317,1.4838,1.423,1.423,1.4125,1.2908,0.8505,0.6683,0.5907,0.5907,0.5573,0.5046,0.4278,0.4819,0.4547,0.2161,0.1221,0.0787,0.0,0.0823,0.0851,0.0,0.0,0.0,0.0,0.0,0.4444,0.4877,0.5095,0.524,0.5192,0.6676,0.777,0.8519,0.8474,0.8441,0.862,0.8445,0.8358,0.8358,0.8878,0.9051,0.9225,1.0609,1.0431,0.9384,1.1112,1.1813,1.1657,1.2496,1.3006,1.3184,1.3706,1.3878,1.4228,1.5963,1.7531,1.8715,1.8715,1.8715,1.8715,1.8715,1.8715,1.8715,1.8715,1.8715,1.8897,1.9797,1.9402,1.8715,1.8715,1.8715,1.8715,1.8715,1.8715,1.8715,1.8715,1.8715,1.8715,1.8715,1.8715,1.8715,1.8715,1.8715,1.8715,1.8715,1.8715,1.8715,1.8715,1.9142,1.9797,2.0689,1.9544,1.8715,1.8715,1.8715,1.8715,1.8715,1.9552,1.9868,1.9465,2.031,1.756,1.0678,1.0461,1.0461,1.0461,1.0461,1.0461,1.0461,1.0461,1.0461,0.9488,0.7922,0.7442,0.6566,0.8676,1.0146,0.7067,0.584,0.5159,0.4759,0.4679,0.4438,0.3651,0.3504,0.2903,0.1091,0.0766,0.0781,0.0,0.078,0.0944,0.1347,0.186,0.0,0.0,0.4896,0.5273,0.5251,0.5225,0.543,0.5899,0.7115,0.8031,0.8866,0.8592,0.8592,0.8711,0.8473,0.8358,0.8358,0.8358,0.8358,0.8358,0.9398,0.9225,0.8527,1.0254,1.0604,0.9922,1.1295,1.1813,1.1813,1.129,1.1217,1.1515,1.3259,1.5615,1.7705,1.6047,1.6962,1.8715,1.8715,1.8715,1.8802,1.9276,1.941,1.9607,2.0523,1.9789,1.8715,1.8715,1.8715,1.8715,1.8715,1.8715,1.8715,1.8715,1.8715,1.8858,1.9323,1.9039,1.8715,1.8715,1.8715,1.8715,1.8715,1.8715,1.8715,1.8715,1.8715,1.9063,1.9986,1.926,1.8715,1.8715,1.8715,1.8715,1.8715,1.9576,1.9884,1.9434,1.799,1.5195,1.0678,1.0461,1.0461,1.0461,1.0461,1.0461,1.0461,1.0461,1.0461,0.7269,0.7829,0.8123,0.5847,0.5246,0.5233,0.5266,0.5246,0.4892,0.3744,0.3461,0.3418,0.3418,0.3388,0.2844,0.1059,0.0821,0.0,0.0,0.0845,0.1248,0.242,0.3646,0.4377,0.4391,0.6253,0.6851,0.5541,0.5324,0.5953,0.7251,0.7946,0.8515,0.8696,0.8892,0.8893,0.8889,0.854,0.8362,0.8358,0.8358,0.8358,0.8358,0.8358,0.8358,0.8358,0.8358,0.8358,0.8527,0.9922,1.0441,1.0268,0.8878,0.8568,0.8834,0.8508,1.1835,1.5799,1.1049,1.3277,1.8523,1.8523,1.8555,1.8836,2.0373,2.0784,2.0784,2.0784,1.9813,1.8779,1.8779,1.8779,1.8771,1.8723,1.8715,1.8715,1.8715,1.8715,1.9126,2.0515,1.9702,1.8771,1.8723,1.8755,1.8763,1.8723,1.8715,1.8715,1.8715,1.8715,1.8715,1.8715,1.8715,1.8715,1.8715,1.8715,1.8715,1.8715,1.8715,1.9315,2.0665,1.4075,1.0437,1.0461,1.0461,1.0461,1.0461,1.0461,1.0461,1.0461,1.0461,1.0461,0.6817,0.6434,0.608,0.5433,0.4625,0.4218,0.5079,0.4612,0.3898,0.3571,0.2429,0.0,0.0,0.0,0.1406,0.097,0.0,0.147,0.1464,0.1793,0.2498,0.3808,0.5014,0.6121,0.7185,0.7807,0.8618,0.9726,0.7986,0.6901,0.7379,0.7863,0.8434,0.9229,0.9196,0.9016,0.8889,0.8663,0.8485,0.8358,0.8358,0.8358,0.8358,0.8358,0.8358,0.8358,0.8358,0.8358,0.8358,0.8705,0.8878,0.8878,0.8531,0.8417,0.8552,0.8961,0.9698,1.0555,0.9725,1.1924,1.5231,1.5231,1.5778,1.6917,1.9808,2.0784,2.0784,2.0784,2.0507,2.0215,2.0215,2.0215,1.9963,1.8952,1.8715,1.8715,1.8715,1.8715,1.9126,2.0515,2.0476,1.99,1.8889,1.9552,1.9876,1.8865,1.8715,1.8715,1.8715,1.8715,1.8715,1.8715,1.8715,1.8715,1.8715,1.8715,1.8715,1.8715,1.8715,1.8881,1.9268,1.3087,0.9933,1.0449,1.0461,1.0461,1.0461,1.0461,1.0461,1.0461,1.0461,1.0461,0.6054,0.533,0.4693,0.4569,0.3717,0.3007,0.33,0.2821,0.2343,0.2343,0.0,0.0,0.0,0.0,0.0,0.0,0.164,0.2135,0.2091,0.2838,0.3732,0.4858,0.6215,0.7483,0.829,0.8162,0.8495,0.9675,0.8226,0.7349,0.7358,0.7893,0.8501,0.9296,0.9143,0.9104,0.9001,0.8751,0.8572,0.8469,0.8389,0.8358,0.8358,0.8358,0.8358,0.8358,0.8358,0.8358,0.8358,0.8358,0.8358,0.8358,0.8358,0.8358,0.8441,0.9139,0.9139,0.885,0.9255,1.1346,1.407,1.407,1.4765,1.6253,1.9701,2.0784,2.0784,2.0784,2.0784,2.0784,2.0784,2.0784,2.0578,1.9773,1.9584,1.9426,1.8842,1.8715,1.9126,2.0515,2.0784,2.0523,1.9718,2.0247,2.0507,1.9702,1.9086,1.8715,1.8715,1.8715,1.8715,1.8715,1.8715,1.8715,1.8715,1.8715,1.8715,1.8715,1.8715,1.8715,1.8715,1.2695,0.9592,1.0009,1.0306,1.0461,1.0461,1.0461,1.0461,1.0453,1.0155,1.0016,0.5124,0.4474,0.3816,0.3302,0.2602,0.1757,0.0962,0.0,0.0784,0.0784,0.0,0.0984,0.0996,0.0,0.0,0.1504,0.2322,0.2881,0.2807,0.3958,0.5086,0.5893,0.7272,0.8267,0.8303,0.7745,0.7302,0.7409,0.7447,0.7572,0.7644,0.8109,0.8723,0.9258,0.9268,0.9171,0.9151,0.8842,0.8843,0.8798,0.8461,0.8377,0.8358,0.8358,0.8358,0.8358,0.8358,0.8358,0.8358,0.8358,0.8358,0.8358,0.8358,0.8405,0.8548,0.9167,0.9397,0.9397,0.9397,1.1193,1.3608,1.3642,1.4251,1.5608,1.8631,1.9708,1.9708,2.057,2.0784,2.0784,2.0784,2.0784,2.0784,2.0784,2.0784,2.0452,1.9213,1.8952,1.9315,2.0547,2.0784,2.0784,2.0784,2.0784,2.0784,2.0784,1.9734,1.8952,1.8952,1.881,1.8715,1.8715,1.8715,1.8715,1.8715,1.8715,1.8715,1.8715,1.8715,1.8323,1.7547,1.2411,0.9516,0.9516,1.0139,1.0461,1.0461,1.0378,1.0342,1.0322,0.9691,0.9397,0.3548,0.3114,0.2592,0.157,0.1178,0.1027,0.0,0.0,0.0,0.0918,0.095,0.1007,0.1097,0.1186,0.1898,0.3835,0.4083,0.4123,0.4335,0.5562,0.6462,0.6562,0.7189,0.7791,0.8317,0.7776,0.734,0.738,0.7927,0.8377,0.8663,0.8827,0.9037,0.9258,0.9382,0.9286,0.9155,0.9084,0.8905,0.8803,0.841,0.8316,0.8358,0.8358,0.8358,0.8358,0.8358,0.8358,0.8358,0.8358,0.8358,0.8358,0.8358,0.8703,0.9215,0.935,0.9397,0.9397,0.9397,1.0052,1.0835,1.1041,1.1204,1.1537,1.2182,1.2399,1.3691,1.9281,2.0784,2.0784,2.0784,2.0784,2.0784,2.0784,2.0784,2.0713,2.0444,2.0389,2.0468,2.0728,2.0784,2.0784,2.0784,2.0784,2.0784,2.0784,2.0555,2.0389,2.0389,1.9402,1.8715,1.8715,1.8715,1.8715,1.8715,1.8715,1.8715,1.8715,1.8715,1.6383,1.1336,1.0568,1.0255,1.0255,1.039,1.0461,1.0457,0.9882,0.9604,0.96,0.9461,0.9397,0.2811,0.2203,0.1513,0.0927,0.0836,0.0,0.0,0.098,0.155,0.358,0.4909,0.5006,0.2427,0.2809,0.3735,0.4407,0.4881,0.5166,0.568,0.6637,0.7224,0.7082,0.7496,0.7818,0.7916,0.8104,0.8308,0.8227,0.8568,0.8928,0.9114,0.911,0.9248,0.9333,0.931,0.9358,0.9278,0.9195,0.9252,0.907,0.8707,0.8576,0.8489,0.8397,0.8358,0.8358,0.8358,0.8358,0.8358,0.8358,0.8358,0.8374,0.8552,0.8838,0.9163,0.9334,0.9397,0.9449,0.9806,1.0088,1.0306,1.0425,1.0461,1.0461,1.0461,1.0461,1.1108,1.477,1.5626,1.6486,1.9922,2.0784,2.0784,2.0784,2.0784,2.0784,2.0784,2.0784,2.0784,2.0784,2.0784,2.0784,2.0784,2.0784,2.0784,2.0784,2.0784,2.0784,2.0784,2.0176,1.975,1.975,1.975,1.9473,1.8771,1.8715,1.7437,1.4818,1.7907,1.6686,1.0135,1.0274,1.0628,1.0977,1.064,1.0461,1.0461,1.0104,0.9929,0.9929,0.9929,0.9929,0.2202,0.1513,0.0787,0.0787,0.0873,0.0,0.1035,0.1144,0.2163,0.5264,0.7526,0.7818,0.433,0.4789,0.5536,0.5036,0.5496,0.6179,0.6721,0.7294,0.7589,0.7648,0.8094,0.8163,0.7707,0.87,0.9146,0.9042,0.919,0.9422,0.9378,0.9394,0.9262,0.9393,0.9397,0.9397,0.9397,0.9266,0.9378,0.9341,0.905,0.8871,0.8798,0.8473,0.8389,0.8358,0.8358,0.8358,0.8358,0.8358,0.8397,0.8489,0.8751,0.8909,0.902,0.9294,0.9485,0.9687,1.0263,1.0461,1.0461,1.0461,1.0461,1.0461,1.0461,1.0461,1.0461,1.0461,1.0461,1.1754,1.7345,1.8853,1.9067,2.057,2.0784,2.0784,2.0784,2.0784,2.0784,2.0784,2.0784,2.0784,2.0784,2.0784,2.0784,2.0784,2.0784,2.0784,2.0784,2.0784,2.0784,2.0784,2.0784,2.0334,1.9213,1.9118,1.6552,1.0854,1.5626,1.6271,1.0678,1.0461,1.0723,1.1286,1.0882,1.0596,1.0461,1.0461,1.0461,1.0461,1.0461,1.0461,0.1061,0.0879,0.0787,0.0787,0.0873,0.0,0.123,0.184,0.2251,0.1994,0.2778,0.415,0.6727,0.6622,0.64,0.7306,0.6874,0.683,0.7667,0.8097,0.8209,0.8203,0.83,0.8422,0.8751,0.9039,0.9274,0.904,0.9272,0.9366,0.9362,0.937,0.9378,0.9397,0.9397,0.9397,0.9397,0.9378,0.9298,0.9345,0.9112,0.8929,0.8803,0.86,0.8504,0.8358,0.8358,0.8358,0.8358,0.8358,0.8544,0.8822,0.8751,0.8977,0.9346,0.9382,0.9798,1.0354,1.0433,1.0461,1.0461,1.0461,1.0461,1.0461,1.0461,1.0461,1.0461,1.0461,1.0461,1.0674,1.1542,1.1537,1.3259,1.9281,2.0784,2.0784,2.0784,2.0784,2.0784,2.0784,2.0784,2.0784,2.0784,2.0784,2.0784,2.0784,2.0784,2.0784,2.0784,2.0784,2.0784,2.0784,2.0784,2.072,2.057,2.0555,1.7632,1.0887,1.1108,1.1325,1.0461,1.0461,1.0497,1.0576,1.1112,1.108,1.0461,1.0461,1.0461,1.0461,1.0461,1.0461,0.0833,0.0771,0.0777,0.0867,0.0,0.0,0.1375,0.1624,0.1867,0.1983,0.3078,0.4641,0.7158,0.6862,0.6635,0.7527,0.7429,0.7465,0.7933,0.8,0.8127,0.8293,0.8544,0.8871,0.9199,0.9252,0.9329,0.9282,0.9294,0.9326,0.9393,0.9397,0.9397,0.9397,0.9397,0.9397,0.9397,0.9397,0.9362,0.9294,0.9199,0.902,0.8774,0.8667,0.8524,0.8358,0.8358,0.8358,0.8366,0.8469,0.86,0.8743,0.8862,0.9108,0.9397,0.9397,0.9584,0.9901,1.0318,1.0461,1.0461,1.0461,1.0461,1.0461,1.0461,1.0461,1.0461,1.0461,1.0461,1.0461,1.0461,1.0461,1.1325,1.4117,1.4764,1.5841,1.9922,2.0784,1.9708,1.5626,1.4764,1.6056,2.0136,2.0784,1.9495,1.5411,1.8203,1.9281,1.5411,1.4764,1.4764,1.4764,1.8417,2.0784,2.0784,1.7131,1.3475,1.0674,1.0461,1.0461,1.0461,1.0461,1.0461,1.0461,1.0747,1.0755,1.0461,1.0461,1.0461,1.0461,1.0461,1.0679,0.0771,0.0,0.0,0.0,0.0,0.0,0.1398,0.1448,0.1675,0.2313,0.3814,0.5185,0.6247,0.6369,0.6656,0.7227,0.771,0.8032,0.799,0.8219,0.8188,0.8479,0.8854,0.9028,0.9398,0.933,0.9397,0.9397,0.9397,0.9397,0.9397,0.9397,0.9397,0.9397,0.9397,0.9397,0.9397,0.9397,0.9397,0.9393,0.9278,0.9131,0.8957,0.8778,0.8596,0.8429,0.8377,0.8358,0.837,0.8548,0.8651,0.8719,0.8981,0.9211,0.9397,0.9397,0.9397,0.9501,1.0215,1.0461,1.0461,1.0461,1.0461,1.0461,1.0461,1.0461,1.0461,1.0461,1.0461,1.0461,1.0461,1.0461,1.0461,1.0461,1.0461,1.1971,1.6916,1.7989,1.6486,1.1542,1.0461,1.2187,1.7131,1.7989,1.6271,1.1325,1.4764,1.6056,1.1108,1.0461,1.0461,1.0461,1.498,1.7989,1.7989,1.3475,1.0461,1.0461,1.0461,1.0461,1.0461,1.0461,1.0461,1.0461,1.0461,1.0461,1.0461,1.0461,1.0461,1.0461,1.0461,1.0834,0.0,0.0,0.0,0.0953,0.1147,0.1398,0.1398,0.1573,0.187,0.2347,0.3814,0.4726,0.4269,0.5436,0.6562,0.6861,0.7714,0.8346,0.835,0.8497,0.8675,0.8674,0.9036,0.9402,0.9374,0.9393,0.9397,0.9397,0.9397,0.9397,0.9397,0.9397,0.9397,0.9397,0.9397,0.9397,0.9397,0.9397,0.9397,0.9397,0.9393,0.9302,0.9139,0.8961,0.8782,0.8604,0.8433,0.8358,0.837,0.8548,0.8723,0.8897,0.908,0.9251,0.9397,0.9397,0.9397,0.9501,1.0215,1.0461,1.0461,1.0461,1.0461,1.0461,1.0461,1.0461,1.0461,1.0461,1.0461,1.0461,1.0461,1.0461,1.0461,1.0461,1.0461,1.0461,1.0678,1.0891,1.0678,1.0461,1.0461,1.0461,1.0678,1.0891,1.0678,1.0461,1.0674,1.0678,1.0461,1.0461,1.0461,1.0461,1.0674,1.0891,1.0891,1.0678,1.0461,1.0461,1.0461,1.0461,1.0461,1.0461,1.0461,1.0461,1.0461,1.0461,1.0461,1.0461,1.0461,1.0461,1.0461,1.0834,0.0874,0.1059,0.1155,0.119,0.1689,0.2051,0.1893,0.204,0.2254,0.2562,0.2901,0.351,0.3965,0.4939,0.5999,0.6866,0.78,0.8358,0.8358,0.8508,0.8687,0.8682,0.9044,0.9219,0.9382,0.9405,0.9409,0.9397,0.8617,0.8422,0.9202,0.9397,0.9397,0.9397,0.9397,0.9397,0.9397,0.9397,0.9397,0.9397,0.9397,0.931,0.9147,0.8969,0.879,0.8612,0.8433,0.8425,0.8544,0.8723,0.8905,0.908,0.9247,0.935,0.9397,0.9397,0.9397,0.9501,1.0215,1.0461,1.0461,1.0461,1.0461,1.0461,1.0461,1.0461,1.0461,1.0461,1.0461,1.0461,1.0461,1.0461,1.0461,1.0461,1.0461,1.0461,1.0461,1.0461,1.0461,1.0461,1.0461,1.0461,1.0461,1.0461,1.0461,1.0461,1.0461,1.0461,1.0461,1.0461,1.0461,1.0461,1.0461,1.0461,1.0461,1.0461,1.0461,1.0461,1.0461,1.0461,1.0461,1.0461,1.0461,1.0461,1.0461,1.0461,1.0461,1.0461,1.0461,1.0461,1.0461,1.0584,0.0947,0.1222,0.1424,0.1536,0.1944,0.23,0.2233,0.2335,0.2596,0.2596,0.2596,0.2771,0.3941,0.4624,0.5316,0.6432,0.7316,0.8033,0.8445,0.8604,0.86,0.8395,0.8942,0.8897,0.8219,0.8628,0.8628,0.823,0.7448,0.7252,0.823,0.862,0.8816,0.8816,0.9202,0.9397,0.9397,0.9397,0.9397,0.9397,0.9397,0.9342,0.9235,0.906,0.8885,0.8711,0.8596,0.8612,0.8731,0.8909,0.9052,0.9167,0.9334,0.9397,0.9409,0.9497,0.9473,0.9501,1.0215,1.0461,1.0461,1.0461,1.0461,1.0461,1.0461,1.0461,1.0461,1.0461,1.0461,1.0461,1.0461,1.0461,1.0461,1.0461,1.0461,1.0461,1.0461,1.0461,1.0461,1.0461,1.0461,1.0461,1.0461,1.0461,1.0461,1.0461,1.0461,1.0461,1.0461,1.0461,1.0461,1.0461,1.0461,1.0461,1.0461,1.0461,1.0461,1.0461,1.0461,1.0461,1.0461,1.0461,1.0461,1.0461,1.0461,1.0461,1.0461,1.0461,1.0461,1.0461,1.0461,1.0461,0.1019,0.1246,0.1501,0.191,0.2116,0.2168,0.2542,0.2596,0.2597,0.26,0.2451,0.2819,0.3847,0.4131,0.4535,0.5401,0.6273,0.7197,0.8239,0.8592,0.8391,0.7601,0.8519,0.8425,0.6475,0.706,0.7255,0.6279,0.6083,0.6083,0.6279,0.7255,0.7839,0.7839,0.8812,0.9397,0.9397,0.9397,0.9397,0.9397,0.9397,0.9397,0.9389,0.9227,0.906,0.8901,0.8901,0.8901,0.8913,0.9084,0.9155,0.9183,0.9338,0.9397,0.9429,0.9675,0.962,0.9516,1.0219,1.0461,1.0461,1.0461,1.0461,1.0461,1.0461,1.0461,1.0461,1.0461,1.0461,1.0461,1.0461,1.0461,1.0461,1.0461,1.0461,1.0461,1.0461,1.0461,1.0461,1.0461,1.0461,1.0461,1.0461,1.0461,1.0461,1.0461,1.0461,1.0461,1.0461,1.0461,1.0461,1.0461,1.0461,1.0461,1.0461,1.0461,1.0461,1.0461,1.0461,1.0461,1.0461,1.0461,1.0461,1.0461,1.0461,1.0461,1.0461,1.0461,1.0461,1.0461,1.0461,1.0461,0.1098,0.1498,0.1883,0.2002,0.2194,0.2518,0.2582,0.2596,0.2457,0.25,0.2545,0.2614,0.3087,0.365,0.4361,0.4535,0.5403,0.6143,0.627,0.658,0.6528,0.6466,0.6786,0.6864,0.6279,0.5687,0.5687,0.6279,0.5493,0.5493,0.6083,0.7255,0.7839,0.7839,0.8812,0.9397,0.9397,0.9397,0.9397,0.9397,0.9397,0.9397,0.9389,0.9227,0.9128,0.9084,0.9084,0.9084,0.9088,0.9135,0.9223,0.9342,0.9382,0.9397,0.9429,0.9675,0.9727,0.9747,1.0278,1.0461,1.0461,1.0461,1.0461,1.0461,1.0461,1.0461,1.0461,1.0461,1.0461,1.0461,1.0461,1.0461,1.0461,1.0461,1.0461,1.0461,1.0461,1.0461,1.0461,1.0461,1.0461,1.0461,1.0461,1.0461,1.0461,1.0461,1.0461,1.0461,1.0461,1.0461,1.0461,1.0461,1.0461,1.0461,1.0461,1.0461,1.0461,1.0461,1.0461,1.0461,1.0461,1.0461,1.0461,1.0461,1.0461,1.0461,1.0461,1.0461,1.0461,1.0461,1.0461,1.0461,0.0634,0.1363,0.2035,0.2141,0.2288,0.2411,0.2438,0.2596,0.2468,0.2553,0.2597,0.2489,0.2769,0.3139,0.3664,0.4187,0.4707,0.5284,0.5621,0.5701,0.5801,0.5389,0.5848,0.5887,0.4907,0.4709,0.4707,0.4907,0.4317,0.4513,0.5493,0.6472,0.7255,0.7839,0.8812,0.9397,0.9397,0.9397,0.9397,0.9397,0.9397,0.9397,0.9393,0.9302,0.9262,0.9262,0.9262,0.9262,0.9262,0.9262,0.9314,0.9397,0.9397,0.9397,0.9433,0.9727,0.9806,0.9834,1.0298,1.0461,1.0461,1.0461,1.0461,1.0461,1.0461,1.0461,1.0461,1.0461,1.0461,1.0461,1.0461,1.0461,1.0461,1.0461,1.0461,1.0461,1.0461,1.0461,1.0461,1.0461,1.0461,1.0461,1.0461,1.0461,1.0461,1.0461,1.0461,1.0461,1.0461,1.0461,1.0461,1.0461,1.0461,1.0461,1.0461,1.0461,1.0461,1.0461,1.0461,1.0461,1.0461,1.0461,1.0461,1.0461,1.0461,1.0461,1.0461,1.0461,1.0461,1.0461,1.0461,1.0461,0.008,0.104,0.2043,0.2233,0.2324,0.2381,0.2433,0.2596,0.2476,0.2596,0.2456,0.2489,0.2769,0.279,0.2965,0.3838,0.4012,0.4425,0.5341,0.537,0.5261,0.4492,0.5297,0.5103,0.3339,0.3925,0.4121,0.3143,0.3143,0.3534,0.4707,0.5689,0.6668,0.7839,0.8812,0.9397,0.9397,0.9397,0.9397,0.9397,0.9397,0.9397,0.9397,0.9397,0.9397,0.9397,0.9397,0.9397,0.9397,0.9397,0.9397,0.9397,0.9397,0.9413,0.9473,0.9806,0.9886,0.9886,1.031,1.0461,1.0461,1.0461,1.0461,1.0461,1.0461,1.0461,1.0461,1.0461,1.0461,1.0461,1.0461,1.0461,1.0461,1.0461,1.0461,1.0461,1.0461,1.0461,1.0461,1.0461,1.0461,1.0461,1.0461,1.0461,1.0461,1.0461,1.0461,1.0461,1.0461,1.0461,1.0461,1.0461,1.0461,1.0461,1.0461,1.0461,1.0461,1.0461,1.0461,1.0461,1.0461,1.0461,1.0461,1.0461,1.0461,1.0461,1.0461,1.0461,1.0461,1.0461,1.0461,1.0461,0.0461,0.1294,0.2001,0.2272,0.2385,0.2431,0.2594,0.2596,0.2476,0.2596,0.2456,0.2489,0.2769,0.279,0.279,0.2965,0.2965,0.3008,0.3318,0.3336,0.3385,0.3324,0.3534,0.3536,0.3143,0.3339,0.3339,0.3143,0.3143,0.3534,0.4707,0.5689,0.6668,0.7839,0.8812,0.9397,0.9397,0.9397,0.9397,0.9397,0.9397,0.9397,0.9397,0.9397,0.9397,0.9397,0.9397,0.9397,0.9397,0.9397,0.9397,0.9397,0.9397,0.9489,0.9643,0.985,1.0012,1.0151,1.0382,1.0461,1.0461,1.0461,1.0461,1.0461,1.0461,1.0461,1.0461,1.0461,1.0461,1.0461,1.0461,1.0461,1.0461,1.0461,1.0461,1.0461,1.0461,1.0461,1.0461,1.0461,1.0461,1.0461,1.0461,1.0461,1.0461,1.0461,1.0461,1.0461,1.0461,1.0461,1.0461,1.0461,1.0461,1.0461,1.0461,1.0461,1.0461,1.0461,1.0461,1.0461,1.0461,1.0461,1.0461,1.0461,1.0461,1.0461,1.0461,1.0461,1.0461,1.0461,1.0461,1.0461,-0.0584,0.0226,0.1153,0.1388,0.2059,0.2596,0.2596,0.2596,0.2451,0.2476,0.2556,0.2472,0.2691,0.2749,0.279,0.279,0.2816,0.2866,0.2955,0.2993,0.3045,0.3132,0.3143,0.3143,0.3143,0.3143,0.3143,0.3143,0.3534,0.4317,0.5493,0.6472,0.7451,0.8617,0.9007,0.9397,0.9397,0.9397,0.9397,0.9397,0.9397,0.9397,0.9397,0.9397,0.9397,0.9397,0.9397,0.9397,0.9397,0.9397,0.9397,0.9397,0.9397,0.9505,0.9687,0.9866,1.004,1.0219,1.0397,1.0461,1.0461,1.0461,1.0461,1.0461,1.0461,1.0461,1.0461,1.0461,1.0461,1.0461,1.0461,1.0461,1.0461,1.0461,1.0461,1.0461,1.0461,1.0461,1.0461,1.0461,1.0461,1.0461,1.0461,1.0461,1.0461,1.0461,1.0461,1.0461,1.0461,1.0461,1.0461,1.0461,1.0461,1.0461,1.0461,1.0461,1.0461,1.0461,1.0461,1.0461,1.0461,1.0461,1.0461,1.0461,1.0461,1.0461,1.0461,1.0461,1.0461,1.0461,1.0461,1.0461,-0.1257,-0.0567,0.0385,0.0929,0.1564,0.2258,0.2422,0.2425,0.2415,0.2381,0.2495,0.2609,0.2633,0.2711,0.2775,0.2788,0.2839,0.2899,0.2959,0.3017,0.3077,0.3136,0.3143,0.3143,0.3143,0.3143,0.3143,0.3143,0.4121,0.5099,0.6083,0.7255,0.823,0.9202,0.9397,0.9397,0.9397,0.9397,0.9397,0.9397,0.9397,0.9397,0.9397,0.9397,0.9397,0.9397,0.9397,0.9397,0.9397,0.9397,0.9397,0.9401,0.9441,0.9564,0.9743,0.9921,1.01,1.027,1.0413,1.0461,1.0461,1.0461,1.0461,1.0461,1.0461,1.0461,1.0461,1.0461,1.0461,1.0461,1.0461,1.0461,1.0461,1.0461,1.0461,1.0461,1.0461,1.0461,1.0461,1.0461,1.0461,1.0461,1.0461,1.0461,1.0461,1.0461,1.0461,1.0461,1.0461,1.0461,1.0461,1.0461,1.0461,1.0461,1.0461,1.0461,1.0461,1.0461,1.0461,1.0461,1.0461,1.0461,1.0461,1.0461,1.0461,1.0461,1.0461,1.0461,1.0461,1.0461,1.0461,1.0461,0.0263,0.0306,0.0471,0.1621,0.1347,0.1148,0.2204,0.2364,0.2377,0.2426,0.2491,0.2572,0.2675,0.2703,0.2727,0.2781,0.2839,0.2899,0.2959,0.3017,0.3077,0.3136,0.3143,0.3143,0.3143,0.3143,0.3143,0.3143,0.4121,0.5099,0.6083,0.7255,0.823,0.9202,0.9397,0.9397,0.9397,0.9397,0.9397,0.9397,0.9397,0.9397,0.9397,0.9397,0.9397,0.9397,0.9397,0.9397,0.9397,0.9397,0.9397,0.9413,0.9576,0.9747,0.9925,1.0104,1.0282,1.0437,1.0453,1.0461,1.0461,1.0461,1.0461,1.0461,1.0461,1.0461,1.0461,1.0461,1.0461,1.0461,1.0461,1.0461,1.0461,1.0461,1.0461,1.0461,1.0461,1.0461,1.0461,1.0461,1.0461,1.0461,1.0461,1.0461,1.0461,1.0461,1.0461,1.0461,1.0461,1.0461,1.0461,1.0461,1.0461,1.0461,1.0461,1.0461,1.0461,1.0461,1.0461,1.0461,1.0461,1.0461,1.0461,1.0461,1.0461,1.0461,1.0461,1.0461,1.0461,1.0461,1.0461,1.0461,-0.1501,-0.0962,-0.0373,-0.05,0.0134,0.0998,0.1171,0.1325,0.147,0.2194,0.2441,0.2535,0.2544,0.2576,0.263,0.2722,0.2786,0.2858,0.2953,0.3047,0.3116,0.314,0.3143,0.3143,0.3143,0.3143,0.3143,0.3143,0.4711,0.5689,0.6279,0.7839,0.8812,0.9397,0.9397,0.9397,0.9397,0.9397,0.9397,0.9397,0.9397,0.9397,0.9397,0.9397,0.9397,0.9397,0.9397,0.9397,0.9397,0.9397,0.9397,0.9417,0.9596,0.977,0.9953,1.0128,1.0306,1.0461,1.0461,1.0461,1.0461,1.0461,1.0461,1.0461,1.0461,1.0461,1.0461,1.0461,1.0461,1.0461,1.0461,1.0461,1.0461,1.0461,1.0461,1.0461,1.0461,1.0461,1.0461,1.0461,1.0461,1.0461,1.0461,1.0461,1.0461,1.0461,1.0461,1.0461,1.0461,1.0461,1.0461,1.0461,1.0461,1.0461,1.0461,1.0461,1.0461,1.0461,1.0461,1.0461,1.0461,1.0461,1.056,1.0763,1.077,1.077,1.077,1.077,1.077,1.0774,1.0989,1.1088,-0.2385,-0.1768,-0.1203,-0.153,-0.0895,0.0139,0.0567,0.0711,0.0995,0.2127,0.2394,0.2494,0.2145,0.2323,0.2384,0.2159,0.2568,0.2831,0.2949,0.3069,0.3143,0.3143,0.3143,0.3143,0.3143,0.3143,0.3143,0.3143,0.5103,0.6279,0.6279,0.823,0.9397,0.9397,0.9397,0.9397,0.9397,0.9397,0.9397,0.9397,0.9397,0.9397,0.9397,0.9397,0.9397,0.9397,0.9397,0.9397,0.9397,0.9397,0.9429,0.9501,0.9731,0.9897,1.0028,1.0207,1.0354,1.0461,1.0461,1.0461,1.0461,1.0461,1.0461,1.0461,1.0461,1.0461,1.0461,1.0461,1.0461,1.0461,1.0461,1.0461,1.0461,1.0461,1.0461,1.0461,1.0461,1.0461,1.0461,1.0461,1.0461,1.0461,1.0461,1.0461,1.0461,1.0461,1.0461,1.0461,1.0461,1.0461,1.0461,1.0461,1.0461,1.0461,1.0461,1.0461,1.0461,1.0461,1.0461,1.0461,1.0461,1.0592,1.0763,1.0965,1.0969,1.0969,1.0969,1.1009,1.1024,1.1032,1.1354,1.1445,-0.1341,-0.1831,-0.2066,-0.0884,-0.149,-0.17,0.0523,0.0915,0.1063,0.2103,0.2509,0.2139,0.1069,0.168,0.2172,0.1135,0.2034,0.2831,0.2949,0.3069,0.3143,0.3143,0.3143,0.3143,0.3143,0.3143,0.3143,0.3143,0.5103,0.6279,0.6279,0.823,0.9397,0.9397,0.9397,0.9397,0.9397,0.9397,0.9397,0.9397,0.9397,0.9397,0.9397,0.9397,0.9397,0.9397,0.9397,0.9397,0.9397,0.9397,0.9501,0.9695,1.0052,1.0191,1.0211,1.0393,1.0457,1.0461,1.0461,1.0461,1.0461,1.0461,1.0461,1.0461,1.0461,1.0461,1.0461,1.0461,1.0461,1.0461,1.0461,1.0461,1.0461,1.0461,1.0461,1.0461,1.0461,1.0461,1.0461,1.0461,1.0461,1.0461,1.0461,1.0461,1.0461,1.0461,1.0461,1.0461,1.0461,1.0461,1.0461,1.0461,1.0461,1.0461,1.0461,1.0461,1.0461,1.0461,1.0461,1.0461,1.0461,1.0901,1.1092,1.0973,1.0969,1.0969,1.0969,1.1092,1.1151,1.1159,1.1394,1.131,-0.1958,-0.1747,-0.1546,-0.1388,-0.1164,-0.074,0.0617,0.0675,0.0853,0.1813,0.2186,0.2323,0.1887,0.2209,0.227,0.2063,0.2488,0.2771,0.289,0.3042,0.3143,0.3143,0.3143,0.3143,0.3143,0.3143,0.3338,0.4121,0.5493,0.6475,0.7255,0.862,0.9397,0.9397,0.9397,0.9397,0.9397,0.9397,0.9397,0.9397,0.9397,0.9397,0.9397,0.9397,0.9397,0.9397,0.9397,0.9469,0.958,0.958,0.9683,0.987,1.0104,1.0195,1.0215,1.0393,1.0461,1.0461,1.0461,1.0461,1.0461,1.0461,1.0461,1.0461,1.0461,1.0461,1.0461,1.0461,1.0461,1.0461,1.0461,1.0461,1.0461,1.0461,1.0461,1.0429,1.0306,1.0278,1.0243,1.012,1.0096,1.0096,1.0096,1.0199,1.0278,1.0278,1.0382,1.0461,1.0461,1.0461,1.0461,1.0461,1.0461,1.0461,1.0461,1.0461,1.0461,1.0461,1.0612,1.0842,1.1159,1.1199,1.1251,1.1334,1.1334,1.1334,1.1334,1.1374,1.1394,1.1394,1.1469,1.1441,-0.2267,-0.1907,-0.1467,-0.1574,-0.1199,-0.0557,0.0118,0.0259,0.0403,0.0966,0.1155,0.1379,0.1812,0.2156,0.2237,0.1862,0.2255,0.2694,0.2855,0.2992,0.3093,0.3138,0.3143,0.3143,0.3143,0.3143,0.3534,0.4511,0.5689,0.6668,0.7643,0.8816,0.9397,0.9397,0.9397,0.9397,0.9397,0.9397,0.9397,0.9397,0.9397,0.9397,0.9401,0.9469,0.9497,0.9501,0.9568,0.9663,0.9762,0.9762,0.987,1.004,1.0151,1.0235,1.031,1.0421,1.0461,1.0461,1.0461,1.0461,1.0461,1.0461,1.0461,1.0461,1.0461,1.0461,1.0461,1.0461,1.0461,1.0461,1.0461,1.0461,1.0445,1.0378,1.0362,1.031,1.0132,1.0096,1.006,0.9953,0.9929,0.9929,0.9929,1.0076,1.0195,1.0195,1.0346,1.0461,1.0461,1.0461,1.0461,1.0461,1.0461,1.0461,1.0461,1.0461,1.0461,1.0461,1.0782,1.11,1.139,1.1358,1.139,1.1501,1.1501,1.1501,1.1501,1.1501,1.1501,1.1501,1.1501,1.1501,-0.2291,-0.2045,-0.176,-0.1427,-0.1332,-0.1165,-0.0574,-0.0234,-0.0229,-0.0226,-0.0364,-0.026,0.0799,0.1676,0.1898,0.1055,0.1868,0.2621,0.2841,0.293,0.3016,0.313,0.3143,0.3143,0.3143,0.3143,0.3534,0.4511,0.5689,0.6668,0.7643,0.8816,0.9397,0.9397,0.9397,0.9397,0.9397,0.9397,0.9405,0.9417,0.9417,0.9425,0.9441,0.9608,0.9683,0.9691,0.9858,0.9937,0.9949,0.9949,1.0052,1.0211,1.0211,1.0314,1.0461,1.0461,1.0461,1.0461,1.0461,1.0461,1.0461,1.0461,1.0461,1.0461,1.0461,1.0461,1.0461,1.0461,1.0461,1.0461,1.0461,1.0449,1.0397,1.0235,1.0183,1.0128,0.9949,0.9909,0.9905,0.9893,0.9889,0.9889,0.9889,1.0048,1.0175,1.0175,1.0338,1.0461,1.0461,1.0461,1.0461,1.0461,1.0461,1.0461,1.0461,1.0473,1.0489,1.0516,1.0981,1.1255,1.1255,1.1413,1.1501,1.1501,1.1501,1.1501,1.1501,1.1501,1.1501,1.1501,1.1501,1.1501,-0.2144,-0.2171,-0.209,-0.1503,-0.0952,-0.0571,-0.042,-0.034,-0.0228,-0.0581,-0.0522,-0.034,-0.0111,0.0574,0.1351,0.1789,0.2323,0.2696,0.2797,0.2939,0.3061,0.3134,0.3143,0.3143,0.3143,0.3143,0.3534,0.4511,0.5689,0.6668,0.7643,0.8816,0.9397,0.9397,0.9397,0.9397,0.9397,0.9397,0.9469,0.9604,0.9604,0.9675,0.9806,0.9846,0.987,0.987,0.9909,1.0005,1.0132,1.0132,1.0239,1.0397,1.0397,1.0425,1.0461,1.0461,1.0461,1.0461,1.0461,1.0461,1.0461,1.0461,1.0461,1.0461,1.0461,1.0461,1.0461,1.0461,1.0461,1.0461,1.0461,1.0358,1.0247,1.0203,1.0092,0.9945,0.9762,0.9727,0.9687,0.9548,0.952,0.952,0.952,0.9782,0.9989,0.9989,1.0259,1.0461,1.0461,1.0461,1.0461,1.0461,1.0461,1.0461,1.0461,1.0576,1.0767,1.104,1.1298,1.1441,1.1441,1.1481,1.1501,1.1501,1.1501,1.1501,1.1501,1.1501,1.1501,1.1501,1.1501,1.1501,-0.2092,-0.2006,-0.1881,-0.1954,-0.1713,-0.1423,-0.1419,-0.1389,-0.128,-0.1528,-0.1571,-0.1419,-0.0909,-0.0328,0.0479,0.1427,0.2016,0.2491,0.2578,0.2765,0.2924,0.3012,0.3094,0.3143,0.3143,0.3143,0.373,0.5297,0.5887,0.6864,0.8425,0.9007,0.9397,0.9397,0.9397,0.9397,0.9397,0.9481,0.9612,0.9786,0.9786,0.9834,0.9929,1.0012,1.0052,1.0056,1.0139,1.0227,1.0318,1.0318,1.0374,1.0461,1.0461,1.0461,1.0461,1.0461,1.0461,1.0461,1.0461,1.0461,1.0461,1.0461,1.0461,1.0461,1.0461,1.0461,1.0461,1.0461,1.0461,1.0441,1.0362,1.0266,1.0151,0.9989,0.9053,0.8336,0.8184,0.815,0.773,0.6671,0.8028,0.8808,0.6852,0.7621,0.8401,0.8472,0.8675,0.8848,0.8916,0.9802,1.0023,0.8926,0.9802,1.0493,1.0568,1.0655,1.0858,1.1215,1.1405,1.1501,1.1501,1.1501,1.1501,1.1501,1.1501,1.1501,1.1501,1.1501,1.1501,1.1501,1.1501,1.1501,-0.2122,-0.1866,-0.1753,-0.2491,-0.2586,-0.2532,-0.2648,-0.2584,-0.2558,-0.2543,-0.268,-0.2554,-0.1707,-0.0973,-0.024,0.062,0.1545,0.2169,0.2332,0.2555,0.2745,0.2863,0.3036,0.3143,0.3143,0.3143,0.3926,0.5887,0.6083,0.706,0.9007,0.9202,0.9397,0.9397,0.9397,0.9425,0.9481,0.9628,0.9794,0.9969,0.9969,0.9985,1.0016,1.0167,1.0235,1.0243,1.0393,1.0461,1.0461,1.0461,1.0461,1.0461,1.0461,1.0461,1.0461,1.0461,1.0461,1.0461,1.0461,1.0461,1.0461,1.0461,1.0461,1.0461,1.0461,1.0461,1.0461,1.0461,1.0441,1.0386,1.0235,1.0151,0.9828,0.933,0.7837,0.6388,0.5895,0.5679,0.5288,0.3528,0.5875,0.7246,0.3722,0.4775,0.6079,0.6188,0.6292,0.6399,0.6511,0.8492,0.9147,0.7177,0.9164,1.0556,1.0695,1.0755,1.0929,1.1259,1.1417,1.1501,1.1501,1.1501,1.1501,1.1501,1.1501,1.1501,1.1501,1.1501,1.1501,1.1501,1.1501,1.1501,-0.2248,-0.2317,-0.2355,-0.2514,-0.2553,-0.25,-0.253,-0.255,-0.2545,-0.2529,-0.2567,-0.2558,-0.2336,-0.1383,-0.0478,-0.0117,0.1049,0.1938,0.2304,0.2555,0.2745,0.2863,0.3036,0.3143,0.3143,0.3143,0.3534,0.4903,0.5689,0.6671,0.8034,0.8812,0.9397,0.9397,0.9397,0.9544,0.9846,0.9878,0.9977,1.0151,1.0151,1.0235,1.0382,1.0409,1.0421,1.0421,1.0449,1.0461,1.0461,1.0461,1.0461,1.0461,1.0461,1.0461,1.0461,1.0461,1.0461,1.0461,1.0461,1.0461,1.0461,1.0461,1.0461,1.0461,1.0461,1.0461,1.0461,1.0461,1.0354,1.0231,1.0199,0.9969,0.9323,0.7457,0.6764,0.5699,0.3921,0.3527,0.3528,0.3136,0.3527,0.392,0.3136,0.358,0.3845,0.3916,0.3985,0.4056,0.4125,0.6091,0.7397,0.696,0.9255,1.0679,1.0703,1.0981,1.1243,1.1449,1.1489,1.1501,1.1501,1.1501,1.1501,1.1501,1.1501,1.1501,1.1501,1.1501,1.1501,1.1501,1.1501,1.1501,-0.2291,-0.2399,-0.2561,-0.2591,-0.2667,-0.2611,-0.2537,-0.2562,-0.2485,-0.2354,-0.2379,-0.2368,-0.2038,-0.1151,-0.0363,0.0101,0.0637,0.126,0.1954,0.2457,0.2722,0.2776,0.2996,0.3143,0.3143,0.3143,0.3534,0.4511,0.5689,0.6668,0.7643,0.8816,0.9441,0.954,0.954,0.9711,1.0068,1.0072,1.0163,1.0338,1.0338,1.0382,1.0461,1.0461,1.0461,1.0461,1.0461,1.0461,1.0461,1.0461,1.0461,1.0461,1.0461,1.0461,1.0461,1.0461,1.0461,1.0461,1.0461,1.0461,1.0461,1.0461,1.0461,1.0461,1.0461,1.0461,1.0461,1.0461,1.0401,1.0294,1.01,0.9929,0.9556,0.8369,0.6306,0.431,0.3332,0.2155,0.1176,-0.0,0.1568,0.2359,0.0,0.0596,0.1607,0.146,0.1676,0.1691,0.152,0.37,0.457,0.3265,0.5301,0.7385,0.8808,0.9073,0.8789,0.7417,1.0057,1.0781,0.9334,1.0777,1.1501,1.1501,1.1501,1.1501,1.1501,1.1501,1.1019,1.0299,1.0299,1.006,-0.216,0.0,-0.2019,-0.2123,-0.2289,-0.2376,0.0,-0.2327,-0.242,-0.2204,-0.2099,-0.2026,-0.1626,-0.0807,-0.0089,0.009,0.0297,0.055,0.1198,0.1579,0.1941,0.217,0.2747,0.3102,0.3102,0.3127,0.373,0.4905,0.5689,0.6878,0.8085,0.9068,0.954,0.9723,0.9766,0.9941,1.0255,1.0259,1.0326,1.0461,1.0461,1.0461,1.0461,1.0461,1.0461,1.0461,1.0461,1.0461,1.0461,1.0461,1.0461,1.0461,1.0461,1.0461,1.0461,1.0461,1.0461,1.0461,1.0461,1.0461,1.0461,1.0461,1.0461,1.0461,1.0461,1.0461,1.0461,1.0461,1.0429,1.0334,1.006,0.9547,0.8823,0.8139,0.5123,0.2167,0.1766,0.0392,-0.1177,-0.2749,-0.0589,0.0591,-0.2601,-0.1789,-0.0802,-0.0839,-0.0628,-0.0843,-0.0869,0.1089,0.1744,-0.0,0.1778,0.4063,0.6425,0.6124,0.5262,0.4068,0.8137,0.9576,0.7654,1.0057,1.1501,1.1501,1.1501,1.1501,1.1501,1.1501,1.0538,0.8853,0.8853,0.7898,0.0,-0.0963,-0.0518,-0.0443,-0.0943,-0.1442,-0.1292,-0.1862,0.0,-0.2185,-0.177,-0.147,-0.1545,-0.0521,0.0164,-0.038,-0.0098,0.0,-0.0489,-0.0908,-0.0564,0.0645,0.1947,0.2979,0.2979,0.3078,0.3926,0.5887,0.6083,0.7113,0.9435,0.9643,0.9727,0.9905,1.0068,1.0247,1.0441,1.0441,1.0449,1.0461,1.0461,1.0461,1.0461,1.0461,1.0461,1.0461,1.0461,1.0461,1.0461,1.0461,1.0461,1.0461,1.0461,1.0461,1.0461,1.0461,1.0461,1.0461,1.0461,1.0461,1.0461,1.0461,1.0461,1.0461,1.0461,1.0461,1.0461,1.0461,1.0342,1.0207,1.0183,0.8375,0.6173,0.4236,0.2008,-0.04,-0.2167,-0.2749,-0.2945,-0.3143,-0.2946,-0.275,-0.3148,-0.3191,-0.3043,-0.3102,-0.3151,-0.3417,-0.3917,-0.196,-0.0656,-0.089,0.1355,0.2982,0.3728,0.1897,0.1437,0.3828,0.6459,0.7892,0.7651,1.0057,1.1501,1.1501,1.1501,1.1501,1.1501,1.1501,0.9815,0.6932,0.6932,0.5261,-0.0982,-0.0532,-0.0229,-0.0235,-0.0904,-0.1593,-0.1369,-0.194,-0.2437,-0.1902,-0.1541,-0.1183,-0.0605,0.0,0.0312,-0.0084,-0.0368,-0.0313,0.0246,-0.0261,-0.0,0.1875,0.2529,0.2996,0.3069,0.305,0.3636,0.509,0.5944,0.72,0.866,0.9365,0.9961,1.0251,1.0326,1.0393,1.0461,1.0461,1.0461,1.0461,1.0461,1.0461,1.0461,1.0461,1.0461,1.0461,1.0461,1.0461,0.0,1.0461,1.0461,1.0461,1.0461,1.0461,1.0461,1.0461,1.0461,1.0461,1.0461,1.0461,1.0461,1.0461,1.0461,1.0461,1.0461,1.0461,1.0461,1.0461,1.0413,1.0334,1.0223,0.9508,0.8163,0.5755,0.3683,0.1426,-0.0801,-0.2196,-0.3386,-0.3544,-0.3536,-0.3549,-0.3785,-0.3815,-0.3667,-0.3563,-0.3387,-0.3636,-0.4135,-0.3519,-0.3106,-0.3126,-0.2285,-0.1867,-0.1659,-0.0955,-0.0958,-0.2155,0.2631,0.4306,0.2393,0.5264,0.6701,0.6701,0.6701,0.6701,0.6701,0.6701,0.5503,0.3111,0.2631,0.1435,-0.0222,0.0237,0.0503,0.064,-0.0125,-0.0827,-0.0954,-0.1643,-0.2169,-0.1693,-0.1378,-0.0872,0.0067,0.0433,0.0537,0.0234,-0.0268,-0.0416,0.0243,-0.0264,0.0147,0.206,0.2326,0.2402,0.3075,0.3238,0.4017,0.5129,0.6401,0.7693,0.8806,0.9536,1.0151,1.0449,1.0461,1.0461,1.0461,1.0461,1.0461,1.0461,1.0461,1.0461,1.0461,1.0461,1.0461,1.0461,1.0461,1.0461,1.0461,1.0461,1.0461,1.0461,1.0461,1.0461,1.0461,1.0461,1.0461,1.0461,1.0461,1.0461,1.0461,1.0461,1.0461,1.0461,1.0461,1.0461,1.0461,1.0461,1.0461,1.0433,1.031,0.9204,0.7667,0.5862,0.3335,0.0622,-0.102,-0.2644,-0.365,-0.4208,-0.4177,-0.4184,-0.4461,-0.4474,-0.4314,-0.381,-0.3844,-0.3874,-0.4573,-0.4646,-0.4703,-0.4728,-0.5075,-0.5188,-0.5268,-0.3595,-0.3355,-0.5515,-0.0479,0.1436,-0.0479,0.2154,0.3589,0.3828,0.3589,0.3589,0.3828,0.3828,0.3111,0.1437,0.0,-0.1676,0.076,0.1601,0.221,0.2327,0.17,0.0927,0.0236,-0.0742,-0.1394,-0.1495,-0.1136,-0.0496,0.0284,0.0814,0.0931,0.0325,0.0182,-0.0103,-0.0827,-0.1061,-0.0589,0.0647,0.085,0.1418,0.277,0.403,0.5136,0.6435,0.7658,0.8806,0.9964,1.0195,1.0278,1.0453,1.0461,1.0461,1.0461,1.0461,1.0461,1.0461,1.0461,1.0461,1.0461,1.0461,1.0461,1.0461,1.0461,1.0461,1.0461,1.0461,1.0461,1.0461,1.0461,1.0461,1.0461,1.0461,1.0461,1.0461,1.0461,1.0461,1.0461,1.0461,1.0461,1.0461,1.0461,1.0461,1.0461,1.0461,1.0461,1.0461,1.0461,0.6968,0.3467,0.3409,-0.0,-0.3597,-0.4158,-0.435,-0.435,-0.4971,-0.49,-0.4868,-0.4955,-0.4973,-0.4795,-0.4453,-0.4314,-0.458,-0.5236,-0.5309,-0.5393,-0.5482,-0.6267,-0.6368,-0.5988,-0.5756,-0.5517,-0.5036,-0.2397,-0.0719,-0.0,0.1915,0.311,0.3828,0.311,0.311,0.3828,0.3828,0.335,0.2632,-0.0478,-0.4071,0.1527,0.2058,0.2374,0.2409,0.1623,0.0836,0.0612,-0.0112,-0.0704,-0.0412,-0.0153,0.0224,0.0822,0.1166,0.1058,0.0426,0.0397,0.0455,0.0377,0.0427,0.0952,0.2079,0.233,0.2378,0.2963,0.3265,0.435,0.6435,0.7011,0.7985,0.9976,1.0314,1.0405,1.0457,1.0461,1.0461,1.0461,1.0461,1.0461,1.0461,1.0461,1.0461,1.0461,1.0461,1.0461,1.0461,1.0461,1.0461,1.0461,1.0461,1.0461,1.0461,1.0461,1.0461,1.0461,1.0461,1.0461,1.0461,1.0461,1.0461,1.0461,1.0461,1.0461,1.0461,1.0461,1.0461,1.0461,1.0461,1.0461,1.0461,1.0461,0.8272,0.5214,0.2378,0.0216,-0.1723,-0.4234,-0.443,-0.4625,-0.54,-0.557,-0.5561,-0.559,-0.5652,-0.5497,-0.4886,-0.4962,-0.5234,-0.5667,-0.603,-0.6146,-0.6175,-0.6733,-0.7077,-0.6468,-0.6477,-0.6477,-0.6717,-0.5275,-0.4555,-0.4796,-0.3354,-0.2395,-0.2395,-0.1918,-0.1678,-0.1678,-0.1678,-0.2157,-0.3354,-0.4312,-0.5754,0.1914,0.2309,0.2596,0.2596,0.1964,0.1298,0.0871,0.035,0.0,0.0172,0.024,0.0556,0.1234,0.1317,0.1267,0.1018,0.1029,0.115,0.1416,0.1598,0.1944,0.2847,0.2952,0.301,0.3034,0.31,0.4154,0.6435,0.7495,0.8733,1.0081,1.0401,1.0461,1.0461,1.0461,1.0461,1.0461,1.0461,1.0461,1.0461,1.0461,1.0461,1.0461,1.0461,1.0461,1.0461,1.0461,1.0461,1.0461,1.0461,1.0461,1.0461,1.0461,1.0461,1.0461,1.0461,1.0461,1.0461,1.0461,1.0461,1.0461,1.0461,1.0461,1.0461,1.0461,1.0461,1.0461,1.0461,1.0461,1.0461,1.0019,0.8489,0.5872,0.1524,-0.0871,-0.2609,-0.4736,-0.5154,-0.5136,-0.6145,-0.6309,-0.6292,-0.6337,-0.6362,-0.6179,-0.5577,-0.5414,-0.5667,-0.5883,-0.6244,-0.6362,-0.6404,-0.7199,-0.7532,-0.7126,-0.7131,-0.7114,-0.7069,-0.6359,-0.6124,-0.589,-0.5416,-0.4957,-0.4751,-0.4754,-0.4533,-0.4559,-0.4559,-0.5279,-0.6235,-0.6197,-0.6657,0.2251,0.2587,0.2596,0.2596,0.2596,0.2206,0.1129,0.0842,0.0791,0.044,0.033,0.0593,0.1383,0.1505,0.1515,0.1763,0.1822,0.1937,0.2093,0.2335,0.2584,0.2854,0.2987,0.3078,0.3138,0.3143,0.3958,0.6049,0.8529,1.0034,1.0209,1.0453,1.0461,1.0461,1.0461,1.0461,1.0461,1.0461,1.0461,1.0461,1.0461,1.0461,1.0461,1.0461,1.0461,1.0461,1.0461,1.0461,1.0461,1.0461,1.0461,1.0461,1.0461,1.0461,1.0461,1.0461,1.0461,1.0461,1.0461,1.0461,1.0461,1.0461,1.0461,1.0461,1.0461,1.0461,1.0461,1.0461,1.0461,1.0023,0.9147,0.7834,0.5656,0.1307,-0.2617,-0.5236,-0.5454,-0.5667,-0.6318,-0.6973,-0.6886,-0.6846,-0.6955,-0.6883,-0.6635,-0.6084,-0.6098,-0.6098,-0.6098,-0.6191,-0.629,-0.6385,-0.7174,-0.7476,-0.7487,-0.7487,-0.7207,-0.6644,-0.6409,-0.5953,-0.4811,-0.5265,-0.5298,-0.4907,-0.5378,-0.5651,-0.5732,-0.5732,-0.5971,-0.6687,-0.6592,-0.7017,0.2324,0.2521,0.2596,0.2596,0.2596,0.2364,0.1802,0.171,0.1602,0.1324,0.1147,0.125,0.1589,0.1636,0.1728,0.196,0.2289,0.2313,0.2422,0.2638,0.2825,0.2935,0.3012,0.3078,0.3138,0.3143,0.3383,0.3902,0.6215,0.7963,0.8952,0.995,1.0461,1.0461,1.0461,1.0461,1.0461,1.0461,1.0461,1.0461,1.0461,1.0461,1.0461,1.0461,1.0461,1.0461,1.0461,1.0461,1.0461,1.0461,1.0461,1.0461,1.0461,1.0461,1.0461,1.0461,1.0461,1.0461,1.0461,1.0461,1.0461,1.0461,1.0461,1.0461,1.0461,1.0461,1.0461,1.0461,0.9802,0.9364,1.0023,0.7846,0.5012,0.2613,-0.1743,-0.5454,-0.6323,-0.6318,-0.6318,-0.6973,-0.6952,-0.6944,-0.6968,-0.6952,-0.6944,-0.675,-0.6756,-0.6756,-0.6756,-0.6856,-0.6935,-0.6961,-0.7211,-0.7262,-0.7357,-0.7365,-0.7354,-0.7099,-0.7097,-0.7097,-0.6868,-0.6409,-0.6189,-0.5979,-0.5064,-0.5071,-0.5548,-0.5089,-0.532,-0.6473,-0.6453,-0.6903,0.2517,0.2547,0.2596,0.2596,0.2596,0.2382,0.2144,0.2025,0.1896,0.1659,0.1541,0.1525,0.1671,0.1748,0.1854,0.2058,0.2242,0.241,0.2553,0.2725,0.2879,0.2994,0.3061,0.3108,0.314,0.3143,0.3377,0.408,0.5357,0.6466,0.7635,0.8848,1.0019,1.0461,1.0461,1.0461,1.0461,1.0461,1.0461,1.0461,1.0461,1.0461,1.0461,1.0461,1.0461,1.0461,1.0461,1.0461,1.0461,1.0461,1.0461,1.0461,1.0461,1.0461,1.0461,1.0461,1.0461,1.0461,1.0461,1.0461,1.0461,1.0461,1.0461,1.0461,1.0461,1.0023,0.9585,0.9585,0.8712,0.7843,0.8064,0.6105,0.3707,0.1089,-0.1743,-0.4578,-0.6538,-0.6756,-0.6535,-0.6973,-0.6973,-0.6973,-0.6973,-0.6973,-0.6973,-0.6973,-0.6973,-0.6973,-0.6973,-0.7029,-0.7087,-0.7145,-0.7151,-0.7174,-0.7238,-0.7243,-0.7217,-0.7161,-0.7156,-0.7156,-0.6709,-0.6484,-0.6283,-0.6332,-0.5658,-0.5679,-0.6409,-0.5953,-0.6182,-0.6866,-0.6814,-0.7015,0.259,0.2596,0.2596,0.2596,0.2596,0.24,0.2233,0.2113,0.1991,0.1824,0.1704,0.1668,0.1797,0.1877,0.198,0.2154,0.2282,0.2434,0.265,0.2761,0.2883,0.305,0.3112,0.3143,0.3143,0.3143,0.3562,0.4633,0.4703,0.5402,0.6759,0.7733,0.9119,1.0461,1.0461,1.0461,1.0461,1.0461,1.0461,1.0461,1.0461,1.0461,1.0461,1.0461,1.0461,1.0461,1.0461,1.0461,1.0461,1.0461,1.0461,1.0461,1.0461,1.0461,1.0461,1.0461,1.0461,1.0461,1.0461,1.0461,1.0461,1.024,1.024,1.024,1.0023,0.915,0.8492,0.8492,0.7626,0.654,0.5672,0.458,0.2617,-0.0654,-0.1962,-0.3269,-0.6318,-0.6973,-0.6973,-0.6973,-0.6973,-0.6973,-0.6973,-0.6973,-0.6973,-0.6973,-0.6973,-0.6973,-0.6973,-0.6973,-0.701,-0.7108,-0.7119,-0.7119,-0.7119,-0.7119,-0.7079,-0.6981,-0.6973,-0.6756,-0.6318,-0.61,-0.614,-0.6448,-0.6225,-0.6493,-0.7264,-0.7264,-0.7264,-0.7262,-0.7164,-0.7119,0.2566,0.2596,0.2596,0.2596,0.2596,0.2561,0.2284,0.2203,0.2121,0.1999,0.1921,0.1925,0.2091,0.2211,0.2344,0.2521,0.2646,0.2768,0.2902,0.2934,0.2989,0.3116,0.3138,0.3143,0.3143,0.3143,0.3168,0.3428,0.3441,0.449,0.6637,0.6967,0.8152,1.0457,1.0461,1.0461,1.0461,1.0461,1.0461,1.0461,1.0461,1.0461,1.0461,1.0461,1.0461,1.0461,1.0461,1.0461,1.0461,1.0461,1.0461,1.0461,1.0461,1.0461,1.0461,1.0461,1.0461,1.0461,1.0461,1.0461,1.0244,0.9364,0.8926,0.8709,0.7843,0.7408,0.7191,0.7191,0.6323,0.5672,0.654,0.5232,0.2834,0.0435,-0.1089,-0.2834,-0.6318,-0.6973,-0.6973,-0.6973,-0.6973,-0.6973,-0.6973,-0.6973,-0.6973,-0.6973,-0.6973,-0.6973,-0.6973,-0.6973,-0.6978,-0.6994,-0.6997,-0.6997,-0.6997,-0.6997,-0.6989,-0.6976,-0.6973,-0.6973,-0.6973,-0.6973,-0.6978,-0.6997,-0.6339,-0.6347,-0.7021,-0.658,-0.658,-0.7018,-0.7005,-0.6997,0.2562,0.2596,0.2596,0.2596,0.2596,0.2582,0.2527,0.2295,0.2214,0.2164,0.208,0.205,0.2158,0.2303,0.2442,0.2552,0.2694,0.2831,0.2949,0.2967,0.301,0.3128,0.3143,0.3143,0.3143,0.3143,0.3153,0.318,0.3212,0.4251,0.652,0.6695,0.7886,1.0306,1.0409,1.0461,1.0461,1.0461,1.0461,1.0461,1.0461,1.0461,1.0461,1.0461,1.0461,1.0461,1.0461,1.0461,1.0461,1.0461,1.0461,1.0461,1.0461,1.0461,1.0461,1.0461,1.0461,1.0461,1.0461,1.0023,0.9364,0.8057,0.784,0.7623,0.7191,0.654,0.6105,0.6105,0.5234,0.4362,0.4796,0.436,0.2834,-0.0218,-0.1307,-0.2616,-0.6318,-0.6973,-0.6973,-0.6973,-0.6973,-0.6973,-0.6973,-0.6973,-0.6973,-0.6973,-0.6973,-0.6973,-0.6973,-0.6973,-0.6973,-0.6973,-0.6973,-0.6756,-0.6535,-0.6756,-0.6758,-0.6105,-0.6538,-0.6758,-0.6105,-0.6756,-0.6756,-0.6535,-0.6535,-0.6756,-0.6973,-0.6753,-0.6756,-0.6973,-0.6973,-0.6973,0.2506,0.2549,0.2556,0.2589,0.2596,0.2596,0.2596,0.2524,0.2312,0.2312,0.2242,0.2198,0.2258,0.2389,0.2508,0.2566,0.2696,0.2831,0.2949,0.2967,0.301,0.3128,0.3143,0.3143,0.3143,0.3143,0.3143,0.3143,0.3184,0.4217,0.6443,0.661,0.7785,0.998,1.0322,1.0417,1.0461,1.0461,1.0461,1.0461,1.0461,1.0461,1.0461,1.0461,1.0461,1.0461,1.0461,1.0461,1.0461,1.0461,1.0461,1.0461,1.0461,1.0461,1.0461,1.0461,1.0461,1.0461,1.024,0.9364,0.8057,0.6973,0.654,0.654,0.6103,0.5452,0.48,0.48,0.4144,0.3489,0.3489,0.3489,0.2617,-0.0872,-0.1738,-0.2599,-0.6277,-0.6907,-0.6886,-0.6886,-0.691,-0.6928,-0.6928,-0.6952,-0.6973,-0.6973,-0.6973,-0.6973,-0.6973,-0.6973,-0.6973,-0.6756,-0.6756,-0.6535,-0.6098,-0.6535,-0.632,-0.5452,-0.6323,-0.654,-0.5236,-0.6323,-0.6753,-0.6098,-0.6753,-0.6973,-0.6973,-0.6973,-0.6973,-0.6973,-0.6973,-0.6973,0.2215,0.2276,0.2303,0.2566,0.2596,0.2596,0.2596,0.2592,0.2587,0.2587,0.2582,0.2443,0.2503,0.2568,0.2629,0.2684,0.2748,0.2831,0.2949,0.2967,0.301,0.3128,0.3143,0.3143,0.3143,0.3143,0.3143,0.3143,0.3146,0.4159,0.6438,0.6655,0.7589,0.9972,1.0203,1.029,1.0457,1.0461,1.0461,1.0461,1.0461,1.0461,1.0461,1.0461,1.0461,1.0461,1.0461,1.0461,1.0461,1.0461,1.0461,1.0461,1.0461,1.0461,1.0461,1.0461,1.0461,1.0244,0.9147,0.8057,0.6973,0.5669,0.5236,0.5236,0.3925,0.3707,0.3489,0.3489,0.3489,0.3489,0.3489,0.3489,0.2617,-0.0872,-0.1723,-0.2553,-0.5954,-0.6724,-0.665,-0.665,-0.6735,-0.6806,-0.6806,-0.6899,-0.6973,-0.6973,-0.6973,-0.6973,-0.6973,-0.6973,-0.6756,-0.61,-0.6098,-0.6098,-0.6098,-0.6098,-0.6098,-0.588,-0.6535,-0.654,-0.5236,-0.6323,-0.6753,-0.6098,-0.6753,-0.6973,-0.6973,-0.6973,-0.6973,-0.6973,-0.6973,-0.6973,0.2137,0.221,0.2248,0.2405,0.2596,0.2596,0.2596,0.2596,0.2596,0.2596,0.2474,0.2519,0.2577,0.2634,0.2691,0.2749,0.2776,0.2818,0.2899,0.2943,0.2996,0.3077,0.312,0.3143,0.3143,0.3143,0.3143,0.3143,0.3143,0.3741,0.5344,0.6204,0.7292,0.8827,0.9551,1.0108,1.029,1.029,1.035,1.0461,1.0461,1.0461,1.0461,1.0461,1.0461,1.0461,1.0461,1.0461,1.0461,1.0461,1.0461,1.0461,1.0461,1.0461,1.0461,1.0461,1.0023,0.9364,0.8926,0.8492,0.784,0.5887,0.5236,0.5018,0.3926,0.3489,0.3489,0.3489,0.3489,0.3481,0.3442,0.2788,0.1283,-0.1269,-0.2519,-0.3762,-0.6272,-0.6661,-0.6634,-0.6634,-0.6663,-0.6692,-0.6692,-0.6785,-0.6886,-0.6963,-0.6907,-0.6888,-0.6963,-0.6973,-0.6756,-0.6098,-0.6318,-0.632,-0.5669,-0.632,-0.632,-0.5669,-0.6538,-0.654,-0.5236,-0.6323,-0.6753,-0.6098,-0.6753,-0.6973,-0.6973,-0.6973,-0.6973,-0.6973,-0.6973,-0.6973,0.1846,0.1804,0.173,0.2286,0.237,0.2414,0.2414,0.243,0.2596,0.2596,0.2475,0.252,0.258,0.2637,0.2692,0.2751,0.2777,0.281,0.287,0.2912,0.2965,0.3045,0.309,0.3122,0.314,0.3124,0.3122,0.3142,0.3143,0.3534,0.4707,0.5553,0.6606,0.8061,0.897,0.9513,1.0104,1.0163,1.0255,1.0374,1.0433,1.0461,1.0461,1.0461,1.0461,1.0461,1.0461,1.0461,1.0461,1.0461,1.0461,1.0461,1.0461,1.0461,1.0461,1.0461,0.9802,0.8709,0.8709,0.8275,0.7408,0.5672,0.5018,0.458,0.3708,0.3489,0.3485,0.3465,0.346,0.3446,0.3387,0.2106,0.042,-0.1245,-0.2885,-0.4516,-0.616,-0.6541,-0.6515,-0.6515,-0.6515,-0.6528,-0.6565,-0.6634,-0.6722,-0.6841,-0.6825,-0.6825,-0.6904,-0.6949,-0.6756,-0.6098,-0.6318,-0.632,-0.5236,-0.6105,-0.6103,-0.5018,-0.6323,-0.632,-0.5018,-0.6323,-0.6753,-0.6098,-0.6753,-0.6973,-0.6973,-0.6973,-0.6973,-0.6973,-0.6973,-0.6973,0.1498,0.1254,0.0969,0.1935,0.2222,0.2345,0.2352,0.2397,0.2439,0.2441,0.2442,0.2462,0.2521,0.258,0.2638,0.2692,0.2749,0.2808,0.2867,0.2877,0.2922,0.3036,0.305,0.3074,0.3132,0.3087,0.3078,0.3136,0.3142,0.3534,0.4511,0.4707,0.5735,0.8051,0.8054,0.8731,0.9921,0.9882,0.9972,1.0187,1.0366,1.0453,1.0453,1.0457,1.0461,1.0461,1.0461,1.0461,1.0461,1.0461,1.0461,1.0461,1.0461,1.0461,1.0461,1.0461,0.9802,0.8709,0.8706,0.7191,0.5236,0.5236,0.458,0.3489,0.3489,0.3487,0.3474,0.3417,0.34,0.3384,0.3326,0.2068,0.0413,-0.1447,-0.2856,-0.4432,-0.6046,-0.6361,-0.6279,-0.6277,-0.6277,-0.6314,-0.6422,-0.6446,-0.6491,-0.6605,-0.6716,-0.6785,-0.6785,-0.6891,-0.6745,-0.6093,-0.6098,-0.5885,-0.5236,-0.5667,-0.5447,-0.4362,-0.61,-0.6098,-0.4359,-0.6096,-0.6743,-0.6089,-0.6743,-0.6963,-0.6963,-0.6963,-0.6963,-0.6963,-0.6965,-0.6968,0.1701,0.157,0.1489,0.2115,0.1619,0.12,0.212,0.1152,0.0582,0.2074,0.181,0.1538,0.2364,0.258,0.2638,0.2692,0.2715,0.2747,0.2806,0.2851,0.289,0.2923,0.2964,0.2997,0.3013,0.304,0.3062,0.3078,0.3119,0.3143,0.3534,0.4317,0.4913,0.553,0.6324,0.7378,0.8727,0.8774,0.9057,1.0005,1.0183,1.0266,1.027,1.0401,1.0461,1.0461,1.0461,1.0461,1.0461,1.0461,1.0461,1.0461,1.0461,1.0461,1.0461,0.9581,0.8926,0.8709,0.784,0.6973,0.6323,0.5454,0.5018,0.458,0.3708,0.346,0.3422,0.3405,0.3371,0.3115,0.1835,0.0406,-0.1214,-0.2995,-0.4561,-0.5735,-0.6129,-0.6303,-0.6253,-0.6168,-0.6221,-0.6237,-0.6096,-0.6216,-0.634,-0.6372,-0.6475,-0.6549,-0.6549,-0.6653,-0.6337,-0.5344,-0.5412,-0.5454,-0.5236,-0.5667,-0.61,-0.632,-0.6679,-0.6632,-0.6205,-0.6558,-0.6727,-0.6517,-0.6727,-0.6727,-0.6727,-0.6727,-0.6727,-0.6729,-0.6809,-0.6846,0.1111,0.0997,0.1112,0.179,0.128,0.0833,0.1951,0.1079,0.0554,0.2013,0.1491,0.0917,0.1535,0.1736,0.1783,0.1969,0.2336,0.2714,0.2748,0.2804,0.285,0.2875,0.2887,0.2903,0.2927,0.2961,0.3001,0.3051,0.3087,0.3118,0.3142,0.373,0.4121,0.4707,0.5295,0.6112,0.7375,0.783,0.8508,0.921,0.9789,1.0084,1.0088,1.0191,1.0239,1.0243,1.0318,1.035,1.0354,1.0429,1.0461,1.0461,1.0461,1.0461,1.0224,0.8573,0.7886,0.7886,0.7251,0.6645,0.604,0.5396,0.4771,0.4357,0.3676,0.3428,0.3391,0.3343,0.289,0.2038,0.1001,-0.0797,-0.2781,-0.3735,-0.5099,-0.6279,-0.6279,-0.6279,-0.6258,-0.6189,-0.6192,-0.6179,-0.6089,-0.6147,-0.6205,-0.6205,-0.6263,-0.6345,-0.6443,-0.6515,-0.6414,-0.5936,-0.5755,-0.5766,-0.5553,-0.5977,-0.6188,-0.6188,-0.6553,-0.6727,-0.6307,-0.6458,-0.6634,-0.6634,-0.6634,-0.6608,-0.656,-0.6608,-0.6608,-0.6563,-0.6676,-0.67,0.0288,0.0149,0.0405,0.1068,0.0913,0.072,0.0,0.134,0.1156,0.1903,0.1144,0.0294,0.0432,0.0601,0.0624,0.0625,0.1627,0.2519,0.253,0.2575,0.28,0.2853,0.2818,0.281,0.2863,0.2874,0.2922,0.3026,0.3045,0.3074,0.3127,0.3138,0.3534,0.4511,0.4511,0.5101,0.6279,0.7378,0.8037,0.8238,0.9429,0.9921,0.9909,0.9937,0.9941,0.9937,1.0096,1.0163,1.0175,1.0334,1.0401,1.0401,1.0401,1.0185,0.9716,0.7536,0.6621,0.6621,0.6414,0.5644,0.4871,0.4882,0.4301,0.3478,0.3417,0.3392,0.3364,0.3261,0.2014,0.0801,0.0591,-0.1765,-0.3921,-0.4117,-0.5295,-0.6279,-0.6279,-0.6279,-0.6277,-0.6261,-0.6187,-0.6147,-0.6226,-0.6163,-0.6107,-0.612,-0.6123,-0.6197,-0.6409,-0.6435,-0.6518,-0.6735,-0.6671,-0.6203,-0.5801,-0.6218,-0.6011,-0.5178,-0.5999,-0.6407,-0.5991,-0.6394,-0.6594,-0.6594,-0.6581,-0.6523,-0.6417,-0.651,-0.6507,-0.642,-0.6539,-0.6523,0.0,0.0,0.0,0.0,0.0,0.0,0.0,-0.0791,-0.1632,0.0109,-0.0458,-0.1064,-0.012,-0.0263,-0.0424,-0.0289,0.046,0.1136,0.1176,0.2033,0.2723,0.2735,0.2768,0.2794,0.2806,0.285,0.2887,0.2911,0.2988,0.3038,0.3049,0.3108,0.3143,0.3338,0.3338,0.4319,0.6279,0.65,0.7492,0.906,0.9571,0.9882,0.9806,0.9993,1.0024,0.9929,0.9965,0.9981,0.9985,1.002,1.0032,1.0032,0.9199,0.8365,0.731,0.602,0.5385,0.5176,0.4347,0.3919,0.3708,0.3569,0.3643,0.3475,0.3401,0.3336,0.3279,0.3241,0.1997,0.0394,-0.0785,-0.2548,-0.4117,-0.5493,-0.6083,-0.6279,-0.6279,-0.6279,-0.625,-0.6155,-0.6194,-0.6192,-0.6025,-0.6057,-0.6136,-0.6232,-0.6245,-0.6261,-0.6308,-0.6314,-0.6168,-0.5895,-0.5893,-0.5711,-0.5172,-0.5594,-0.6011,-0.6218,-0.6337,-0.6491,-0.6286,-0.6199,-0.6348,-0.6348,-0.6255,-0.6194,-0.6171,-0.6099,-0.6102,-0.6176,-0.6292,-0.6234,0.0,0.0,0.0,0.0,0.0,0.0,0.0,0.0,0.0,0.0,0.0,-0.1719,-0.1331,0.0,-0.1723,-0.1519,-0.0296,0.0787,0.0814,0.1832,0.2691,0.2665,0.2711,0.2745,0.2745,0.28,0.2846,0.2877,0.2934,0.2967,0.2967,0.3078,0.3143,0.3143,0.3143,0.3534,0.4711,0.5691,0.6671,0.7842,0.8983,0.9635,0.9584,0.9703,0.9319,0.866,0.866,0.8501,0.8163,0.8163,0.8209,0.8259,0.7307,0.6049,0.484,0.4237,0.4036,0.4036,0.3429,0.3253,0.3291,0.333,0.3369,0.3389,0.3332,0.3289,0.3248,0.3201,0.1384,-0.0588,-0.1372,-0.3332,-0.5295,-0.6083,-0.6279,-0.6279,-0.6279,-0.6279,-0.6261,-0.6202,-0.624,-0.6242,-0.6123,-0.6152,-0.621,-0.6271,-0.6279,-0.6279,-0.6279,-0.6279,-0.6083,-0.5885,-0.5935,-0.5771,-0.5371,-0.5819,-0.6051,-0.6457,-0.6199,-0.5969,-0.5969,-0.5863,-0.5803,-0.5803,-0.5883,-0.5985,-0.5927,-0.5927,-0.5927,-0.5927,-0.5988,-0.5951,0.0,0.0,0.0,0.0,0.0,0.0,0.0,0.0,0.0,0.0,0.0,0.0,0.0,0.0,0.0,-0.2851,-0.0989,0.0302,0.0469,0.1459,0.231,0.2281,0.2486,0.2686,0.2686,0.2739,0.2793,0.2841,0.2869,0.2883,0.2883,0.3005,0.3095,0.3142,0.3143,0.3143,0.3143,0.4711,0.5691,0.5691,0.7252,0.0,0.9397,0.9397,0.8812,0.7836,0.7252,0.7113,0.7209,0.7209,0.7271,0.7145,0.5952,0.4513,0.3143,0.3143,0.3143,0.3143,0.3143,0.3204,0.3279,0.3279,0.3279,0.3274,0.3245,0.3236,0.0,0.2567,0.0588,-0.1568,-0.196,-0.4117,-0.6279,-0.6279,-0.6279,-0.6279,-0.6279,-0.6279,-0.6279,-0.6279,-0.6279,-0.6279,-0.6279,-0.6205,-0.6144,-0.6144,-0.6144,-0.6144,-0.6144,-0.6165,-0.6142,-0.6044,-0.6142,-0.6173,-0.6078,-0.6136,-0.6197,-0.6242,-0.5639,-0.5426,-0.5405,-0.5324,-0.5252,-0.5192,-0.5614,-0.571,-0.5686,-0.5734,-0.5755,-0.5744,-0.5543,-0.5485,0.0,0.0,0.0,0.0,0.0,0.0,0.0,0.0,0.0,0.0,0.0,0.0,0.0,0.0,0.0,0.0,-0.2404,-0.1132,-0.076,0.0308,0.0933,0.0951,0.1945,0.263,0.263,0.2679,0.2715,0.2722,0.2772,0.2802,0.2802,0.282,0.0,0.0,0.0,0.3143,0.3143,0.3339,0.3536,0.3536,0.373,0.5687,0.9397,0.9397,0.9202,0.9007,0.706,0.7457,0.9034,0.9034,0.9045,0.8864,0.6876,0.4907,0.3143,0.3143,0.3143,0.3143,0.3143,0.0,0.0,0.3161,0.3161,0.3161,0.3157,0.3156,0.2758,0.0785,-0.0588,-0.196,-0.3332,-0.4903,-0.6279,-0.6279,-0.6279,-0.6279,-0.6279,-0.6279,-0.6279,-0.6279,-0.6279,-0.6279,-0.6279,-0.5938,-0.5665,-0.5665,-0.5665,-0.5665,-0.5665,-0.575,-0.5805,-0.5792,-0.5895,0.0,-0.5948,-0.5863,-0.5901,-0.611,-0.5459,-0.518,-0.5097,-0.508,-0.5122,-0.517,-0.5111,-0.5146,-0.5448,-0.5252,-0.536,-0.5728,-0.4946,-0.4529,0.0,0.0,0.0,0.0,0.0,0.0,0.0,0.0,0.0,0.0,0.0,0.0,0.0,0.0,0.0,0.0,-0.297,-0.2051,-0.186,-0.0417,0.0581,0.0755,0.1884,0.2569,0.2569,0.2621,0.2663,0.2684,0.269,0.272,0.2786,0.279,0.2835,0.2935,0.2937,0.2937,0.2937,0.3074,0.3143,0.3143,0.5491,0.764,0.9397,0.9397,0.8031,0.5687,0.4709,0.5689,0.7451,0.7451,0.6861,0.5687,0.0,0.0,0.0,0.0,0.3143,0.3143,0.3143,0.3143,0.3143,0.3143,0.3143,0.3143,0.3143,0.3143,0.2945,0.1963,-0.0194,-0.2501,-0.3319,-0.4667,-0.6194,-0.6263,-0.6279,-0.6279,-0.6279,-0.6279,-0.6279,-0.6279,-0.6168,0.0,-0.6075,-0.5914,-0.5784,-0.5784,-0.5784,-0.5784,-0.5784,-0.5824,-0.5803,-0.567,-0.5818,-0.5874,-0.5742,-0.5624,0.0,0.0,0.0,-0.4692,-0.4475,-0.4655,0.0,0.0,0.0,-0.4918,-0.4997,-0.4767,0.0,0.0,-0.4457,-0.4055,0.0,0.0,0.0,0.0,0.0,0.0,0.0,0.0,0.0,0.0,0.0,0.0,0.0,0.0,0.0,0.0,-0.2777,-0.2265,-0.2906,-0.1252,0.0,0.0143,0.1507,0.249,0.2506,0.2561,0.2609,0.2641,0.2598,0.2608,0.269,0.2755,0.279,0.279,0.279,0.279,0.279,0.296,0.3046,0.3046,0.6078,0.7485,0.764,0.764,0.5882,0.3143,0.3143,0.4711,0.706,0.706,0.5885,0.392,0.3263,0.3046,0.3046,0.3046,0.3046,0.3046,0.3046,0.3046,0.3046,0.3046,0.3046,0.3046,0.3046,0.3091,0.294,0.1939,-0.0573,-0.3032,-0.3653,-0.497,-0.6075,-0.6163,-0.6184,-0.6184,-0.6184,-0.6184,-0.6184,-0.6184,-0.5993,-0.5834,-0.5834,-0.5752,-0.5689,-0.5689,-0.5689,-0.5689,-0.5689,-0.5744,-0.572,-0.5556,-0.5715,-0.5765,-0.5601,-0.5351,-0.531,-0.5284,-0.4682,-0.4313,-0.4004,-0.4275,-0.4485,-0.4805,-0.4713,-0.4775,0.0,0.0,0.0,0.0,0.0,0.0,0.0,0.0,0.0,0.0,0.0,0.0,0.0,0.0,0.0,0.0,0.0,0.0,0.0,0.0,0.0,0.0,0.0,0.0,-0.3875,-0.2309,-0.0993,-0.1217,0.0858,0.2384,0.2441,0.25,0.2543,0.2561,0.2492,0.2604,0.2609,0.2667,0.279,0.279,0.279,0.279,0.279,0.2797,0.2801,0.2801,0.2801,0.3103,0.3339,0.3339,0.3143,0.3143,0.3143,0.5491,0.9202,0.9202,0.8034,0.5845,0.3612,0.2801,0.2801,0.2801,0.2801,0.2801,0.2801,0.2801,0.2801,0.2801,0.2801,0.2801,0.2801,0.2961,0.2534,-0.0751,-0.2246,-0.3388,-0.5396,-0.5935,-0.612,-0.6123,-0.6123,-0.6123,-0.6123,-0.6123,-0.6123,-0.6123,-0.5755,-0.5599,-0.5599,-0.5313,-0.5085,-0.5085,-0.5085,0.0,-0.5085,-0.5283,-0.5424,-0.5416,-0.5524,-0.5596,-0.5588,-0.5487,-0.5396,-0.4984,-0.4471,-0.4132,-0.4374,-0.3993,-0.3938,-0.4423,-0.4487,-0.4656,-0.4873,0.0,0.0,0.0,0.0,0.0,0.0,0.0,0.0,0.0,0.0,0.0,0.0,0.0,0.0,0.0,0.0,0.0,0.0,0.0,0.0,0.0,0.0,0.0,0.0,-0.1295,-0.0226,-0.1982,-0.0,0.123,0.0552,0.0975,0.1243,0.0803,0.1891,0.2596,0.2596,0.2517,0.256,0.256,0.271,0.279,0.279,0.279,0.279,0.279,0.279,0.2831,0.2908,0.2908,0.2908,0.2908,0.2908,0.3633,0.4902,0.4902,0.4541,0.3806,0.2997,0.279,0.279,0.279,0.279,0.279,0.279,0.279,0.279,0.279,0.279,0.279,0.279,0.2846,0.2538,0.1609,-0.1607,-0.4868,-0.5709,-0.6052,-0.5829,-0.6093,-0.6112,-0.6112,-0.6112,-0.6112,-0.6112,-0.6112,-0.5614,-0.5403,-0.5559,-0.5358,-0.5252,-0.5482,-0.5321,-0.523,-0.5389,-0.5408,-0.544,-0.5519,-0.5562,-0.5588,-0.5588,-0.5202,-0.5082,-0.5078,-0.4487,-0.4288,-0.4136,-0.441,-0.4584,-0.432,-0.4795,-0.4809,-0.4184,0.0,0.0,0.0,0.0,0.0,0.0,0.0,0.0,0.0,0.0,0.0,0.0,0.0,0.0,0.0,0.0,0.0,0.0,0.0,0.0,0.0,0.0,0.0,0.0,0.0,0.0,-0.1318,-0.0254,0.0,-0.0128,-0.0253,-0.0127,0.0657,0.1882,0.2558,0.2323,0.2548,0.2596,0.2596,0.2588,0.2666,0.2666,0.2666,0.2708,0.279,0.279,0.279,0.279,0.279,0.279,0.279,0.279,0.279,0.2784,0.27,0.2666,0.2666,0.2666,0.2666,0.2666,0.2666,0.2666,0.2666,0.2666,0.2666,0.2666,0.2666,0.2666,0.2666,0.2666,0.2666,0.218,0.0346,-0.279,-0.5607,-0.5874,-0.5705,-0.5697,-0.5893,-0.5896,-0.5915,-0.5795,-0.5739,-0.5689,-0.5891,-0.5456,-0.5254,-0.5323,-0.5278,-0.5265,-0.5363,-0.5294,-0.5273,-0.5384,-0.5405,-0.544,-0.5517,-0.5562,-0.5588,-0.5588,-0.5202,-0.505,-0.4979,-0.4565,-0.434,-0.4313,-0.4651,-0.4677,-0.453,-0.4824,-0.4619,0.0,0.0,0.0,0.0,0.0,0.0,0.0,0.0,0.0,0.0,0.0,0.0,0.0,0.0,0.0,0.0,0.0,0.0,0.0,0.0,0.0,0.0,0.0,0.0,0.0,0.0,0.0,0.0121,-0.0,0.0,0.0,0.0,0.0,0.2052,0.2225,0.2138,0.1938,0.2303,0.259,0.2578,0.2578,0.2583,0.2596,0.2596,0.2555,0.2772,0.2772,0.2772,0.2772,0.2772,0.2772,0.2772,0.2772,0.2772,0.2755,0.2535,0.2596,0.2594,0.2583,0.2411,0.2241,0.239,0.2564,0.2596,0.2596,0.2596,0.2599,0.2611,0.2607,0.2596,0.2596,0.2418,0.0,0.0,-0.5532,-0.5551,-0.5563,-0.5464,-0.5535,-0.5544,-0.55,-0.5376,-0.5535,-0.5395,-0.5254,-0.5473,-0.5244,-0.5114,-0.4905,0.0,-0.5061,-0.4756,-0.4984,-0.5162,-0.5085,-0.526,-0.54,-0.5416,-0.5514,-0.5577,-0.5577,-0.5474,-0.5283,-0.4865,-0.4686,-0.4619,-0.4712,-0.4527,-0.452,-0.4846,-0.4412,0.0,0.0,0.0,0.0,0.0,0.0,0.0,0.0,0.0,0.0,0.0,0.0,0.0,0.0,0.0,0.0,0.0,0.0,0.0,0.0,0.0,0.0,0.0,0.0,0.0,0.0,-0.0846,-0.0779,-0.1442,-0.1182,-0.1375,0.0,0.0,0.0,0.0,0.0,0.0,-0.1467,0.1062,0.251,0.2186,0.2181,0.2266,0.2594,0.2596,0.2474,0.2532,0.2532,0.2532,0.2532,0.2532,0.2532,0.2532,0.2532,0.2532,0.2528,0.2468,0.2596,0.2578,0.225,0.0737,-0.1142,0.0936,0.1995,0.2596,0.2596,0.2596,0.2472,0.2645,0.2584,0.2596,0.2596,0.0,0.0,0.0,0.0,-0.5577,-0.5535,-0.5464,-0.5381,-0.5283,-0.5215,-0.5199,-0.5302,-0.5318,-0.5252,-0.504,-0.4703,-0.451,-0.468,-0.442,0.0,-0.477,-0.4693,-0.4762,-0.5257,-0.5217,-0.5249,-0.5514,-0.549,-0.5456,-0.5456,-0.5426,-0.5384,-0.516,-0.5103,-0.5044,-0.4988,-0.4929,-0.4685,-0.4372,0.0,0.0,0.0,0.0,0.0,0.0,0.0,0.0,0.0,0.0,0.0,0.0,0.0,0.0,0.0,0.0,0.0,0.0,0.0,0.0,0.0,0.0,0.0,0.0,0.0,0.0,0.0,-0.0446,-0.0355,-0.139,-0.2171,-0.2642,0.0,0.0,0.0,0.0,0.0,0.0,0.0,0.0,0.0,0.0307,0.1649,0.2309,0.2594,0.2341,0.2341,0.2596,0.2596,0.2596,0.2596,0.2596,0.2596,0.2596,0.2596,0.227,0.201,0.2317,0.0595,-0.2109,0.0,0.0,0.0,0.0,-0.0103,0.0248,0.0248,0.0992,0.2075,0.2614,0.0,0.0,0.0,0.0,0.0,0.0,0.0,-0.4502,-0.5117,-0.5209,-0.513,-0.5087,-0.5042,-0.505,-0.5201,-0.5185,-0.5087,-0.4913,-0.4724,-0.4656,-0.446,-0.431,0.0,0.0,0.0,-0.4563,-0.4907,-0.5013,-0.5132,-0.5334,-0.5342,-0.5334,-0.5334,-0.5286,-0.5225,-0.5159,-0.5106,-0.5024,-0.4907,-0.4756,-0.4447,0.0,0.0,0.0,0.0,0.0,0.0,0.0,0.0,0.0,0.0,0.0,0.0,0.0,0.0,0.0,0.0,0.0,0.0,0.0,0.0,0.0,0.0,0.0,0.0,0.0,0.0,0.0,0.0,0.0,0.0374,-0.0754,0.0,0.0,0.0,0.0,0.0,0.0,0.0,0.0,0.0,0.0,0.0,0.0,0.0,0.1836,0.1693,0.1476,0.1657,0.2596,0.2596,0.2579,0.2547,0.2547,0.2547,0.2542,0.2332,0.0,0.1479,0.1328,0.0,0.0,0.0,0.0,0.0,0.0,0.0,0.0,0.0,0.0,0.0,0.0,0.0,0.0,0.0,0.0,0.0,0.0,0.0,0.0,0.0,0.0,-0.4881,-0.4881,-0.4881,-0.4937,-0.5143,-0.5335,-0.5296,-0.5085,-0.5024,-0.4794,0.0,0.0,0.0,0.0,0.0,0.0,-0.4257,-0.4751,-0.5029,-0.5074,-0.5159,-0.5204,-0.5188,-0.5106,-0.5042,-0.5011,-0.4886,-0.4759,-0.464,-0.4346,0.0,0.0,0.0,0.0,0.0,0.0,0.0,0.0,0.0,0.0,0.0,0.0,0.0,0.0,0.0,0.0,0.0,0.0,0.0,0.0,0.0,0.0,0.0,0.0,0.0,0.0,0.0,0.0,0.0,0.0,0.0,0.0,0.0,0.0,0.0,0.0,0.0,0.0,0.0,0.0,0.0,0.0,0.0,0.0,0.0,0.0,0.0,0.0,0.0,0.0,0.2596,0.2341,0.2153,0.2153,0.2153,0.2131,0.1748,0.1839,0.1959,-0.3201,0.0,0.0,0.0,0.0,0.0,0.0,0.0,0.0,0.0,0.0,0.0,0.0,0.0,0.0,0.0,0.0,0.0,0.0,0.0,0.0,0.0,0.0,-0.4881,-0.4881,-0.4881,-0.4891,-0.4934,0.0,0.0,0.0,0.0,0.0,0.0,0.0,0.0,0.0,0.0,0.0,-0.4331,-0.4658,-0.4878,-0.517,-0.5135,-0.5048,-0.495,-0.5011,-0.4974,-0.4778,-0.4568,-0.4399,0.0,0.0,0.0,0.0,0.0,0.0,0.0,0.0,0.0,0.0,0.0,0.0,0.0,0.0,0.0,0.0,0.0,0.0,0.0,0.0,0.0,0.0,0.0,0.0,0.0,0.0,0.0,0.0,0.0,0.0,0.0,0.0,0.0,0.0,0.0,0.0,0.0,0.0,0.0,0.0,0.0,0.0,0.0,0.0,0.0,0.0,0.0,0.0,0.0,0.0,0.0,0.0,0.0,0.0,0.0,0.0,0.0,0.0,0.0655,0.0761,0.0,0.0,0.0,0.0,0.0,0.0,0.0,0.0,0.0,0.0,0.0,0.0,0.0,0.0,0.0,0.0,0.0,0.0,0.0,0.0,0.0,0.0,0.0,0.0,0.0,0.0,0.0,0.0,0.0,0.0,0.0,0.0,0.0,0.0,0.0,0.0,0.0,0.0,0.0,0.0,-0.4333,-0.4558,-0.4791,-0.5024,-0.4944,-0.4849,-0.4794,-0.4841,-0.4748,-0.4452,-0.4274,0.0,0.0,0.0,0.0,0.0,0.0,0.0,0.0,0.0,0.0,0.0,0.0,0.0,0.0,0.0,0.0,0.0,0.0,0.0,0.0,0.0,0.0,0.0,0.0,0.0,0.0,0.0,0.0,0.0,0.0,0.0,0.0,0.0,0.0,0.0,0.0,0.0,0.0,0.0,0.0,0.0,0.0,0.0,0.0,0.0,0.0,0.0,0.0,0.0,0.0,0.0,0.0,0.0,0.0,0.0,0.0,0.0,0.0,0.0,-0.0713,-0.0739,0.0,0.0,0.0,0.0,0.0,0.0,0.0,0.0,0.0,0.0,0.0,0.0,0.0,0.0,0.0,0.0,0.0,0.0,0.0,0.0,0.0,0.0,0.0,0.0,0.0,0.0,0.0,0.0,0.0,0.0,0.0,0.0,0.0,0.0,0.0,0.0,0.0,0.0,0.0,0.0,-0.4184,-0.4407,-0.4703,-0.4862,-0.4754,-0.4677,-0.4701,-0.4682,-0.4531,-0.434,-0.4132,0.0,0.0,0.0,0.0,0.0,0.0,0.0,0.0,0.0,0.0,0.0,0.0,0.0,0.0,0.0,0.0,0.0,0.0,0.0,0.0,0.0,0.0,0.0,0.0,0.0,0.0,0.0,0.0,0.0,0.0,0.0,0.0,0.0,0.0,0.0,0.0,0.0,0.0,0.0,0.0,0.0,0.0,0.0,0.0,0.0,0.0,0.0,0.0,0.0,0.0,0.0,0.0,0.0,0.0,0.0,0.0,0.0,0.0,0.0,0.0,0.0,0.0,0.0,0.0,0.0,0.0,0.0,0.0,0.0,0.0,0.0,0.0,0.0,0.0,0.0,0.0,0.0,0.0,0.0,0.0,0.0,0.0,0.0,0.0,0.0,0.0,0.0,0.0,0.0,0.0,0.0,0.0,0.0,0.0,0.0,0.0,0.0,0.0,0.0,0.0,0.0,-0.375,-0.4137,-0.4555,-0.4849,-0.4685,-0.4595,-0.4696,-0.4611,-0.4449,-0.4334,0.0,0.0,0.0,0.0,0.0,0.0,0.0,0.0,0.0,0.0,0.0,0.0,0.0,0.0,0.0,0.0,0.0,0.0,0.0,0.0,0.0,0.0,0.0,0.0,0.0,0.0,0.0,0.0,0.0,0.0,0.0,0.0,0.0,0.0,0.0,0.0,0.0,0.0,0.0,0.0,0.0,0.0,0.0,0.0,0.0,0.0,0.0,0.0,0.0,0.0,0.0,0.0,0.0,0.0,0.0,0.0,0.0,0.0,0.0,0.0,0.0,0.0,0.0,0.0,0.0,0.0,0.0,0.0,0.0,0.0,0.0,0.0,0.0,0.0,0.0,0.0,0.0,0.0,0.0,0.0,0.0,0.0,0.0,0.0,0.0,0.0,0.0,0.0,0.0,0.0,0.0,0.0,0.0,0.0,0.0,0.0,0.0,0.0,0.0,0.0,0.0,0.0,-0.3602,-0.4163,-0.4664,-0.486,-0.4674,-0.4584,-0.4693,-0.4603,-0.4319,-0.3803,0.0,0.0,0.0,0.0,0.0,0.0,0.0,0.0,0.0,0.0,0.0,0.0,0.0,0.0,0.0,0.0,0.0,0.0,0.0,0.0,0.0,0.0,0.0,0.0,0.0,0.0,0.0,0.0,0.0,0.0,0.0,0.0,0.0,0.0,0.0,0.0,0.0,0.0,0.0,0.0,0.0,0.0,0.0,0.0,0.0,0.0,0.0,0.0,0.0,0.0,0.0,0.0,0.0,0.0,0.0,0.0,0.0,0.0,0.0,0.0,0.0,0.0,0.0,0.0,0.0,0.0,0.0,0.0,0.0,0.0,0.0,0.0,0.0,0.0,0.0,0.0,0.0,0.0,0.0,0.0,0.0,0.0,0.0,0.0,0.0,0.0,0.0,0.0,0.0,0.0,0.0,0.0,0.0,0.0,0.0,0.0,0.0,0.0,0.0,0.0,0.0,0.0,-0.3638,-0.4171,-0.4711,-0.4862,-0.4613,-0.4523,-0.4738,-0.4494,-0.4105,-0.3575,0.0,0.0,0.0,0.0,0.0,0.0,0.0,0.0,0.0,0.0,0.0,0.0,0.0,0.0,0.0,0.0,0.0,0.0,0.0,0.0,0.0,0.0,0.0,0.0,0.0,0.0,0.0,0.0,0.0,0.0,0.0,0.0,0.0,0.0,0.0,0.0,0.0,0.0,0.0,0.0,0.0,0.0,0.0,0.0,0.0,0.0,0.0,0.0,0.0,0.0,0.0,0.0,0.0,0.0,0.0,0.0,0.0,0.0,0.0,0.0,0.0,0.0,0.0,0.0,0.0,0.0,0.0,0.0,0.0,0.0,0.0,0.0,0.0,0.0,0.0,0.0,0.0,0.0,0.0,0.0,0.0,0.0,0.0,0.0,0.0,0.0,0.0,0.0,0.0,0.0,0.0,0.0,0.0,0.0,0.0,0.0,0.0,0.0,0.0,0.0,0.0,0.0,-0.404,-0.4358,-0.4629,-0.4854,-0.4468,-0.4378,-0.4839,-0.424,-0.379,0.0,0.0,0.0,0.0,0.0,0.0,0.0,0.0,0.0,0.0,0.0,0.0,0.0,0.0,0.0,0.0,0.0,0.0,0.0,0.0,0.0,0.0,0.0,0.0,0.0,0.0,0.0,0.0,0.0,0.0,0.0,0.0,0.0,0.0,0.0,0.0,0.0,0.0,0.0,0.0,0.0,0.0,0.0,0.0,0.0,0.0,0.0,0.0,0.0,0.0,0.0,0.0,0.0,0.0,0.0,0.0,0.0,0.0,0.0,0.0,0.0,0.0,0.0,0.0,0.0,0.0,0.0,0.0,0.0,0.0,0.0,0.0,0.0,0.0,0.0,0.0,0.0,0.0,0.0,0.0,0.0,0.0,0.0,0.0,0.0,0.0,0.0,0.0,0.0,0.0,0.0,0.0,0.0,0.0,0.0,0.0,0.0,0.0,0.0,0.0,0.0,0.0,0.0,-0.3716,-0.4347,-0.4793,-0.4621,-0.4372,-0.4312,-0.4621,-0.4587,-0.4057,-0.2993,0.0,0.0,0.0,0.0,0.0,0.0,0.0,0.0,0.0,0.0,0.0,0.0,0.0,0.0,0.0,0.0,0.0,0.0,0.0,0.0,0.0,0.0,0.0,0.0,0.0,0.0,0.0,0.0,0.0,0.0,0.0,0.0,0.0,0.0,0.0,0.0,0.0,0.0,0.0,0.0,0.0,0.0,0.0,0.0,0.0,0.0,0.0,0.0,0.0,0.0,0.0,0.0,0.0,0.0,0.0,0.0,0.0,0.0,0.0,0.0,0.0,0.0,0.0,0.0,0.0,0.0,0.0,0.0,0.0,0.0,0.0,0.0,0.0,0.0,0.0,0.0,0.0,0.0,0.0,0.0,0.0,0.0,0.0,0.0,0.0,0.0,0.0,0.0,0.0,0.0,0.0,0.0,0.0,0.0,0.0,0.0,0.0,0.0,0.0,0.0,0.0,0.0,0.0,-0.4376,-0.4637,-0.4391,-0.4274,-0.4317,-0.464,-0.4478,-0.3925,-0.2996,0.0,0.0,0.0,0.0,0.0,0.0,0.0,0.0,0.0,0.0,0.0,0.0,0.0,0.0,0.0,0.0,0.0,0.0,0.0,0.0,0.0,0.0,0.0,0.0,0.0,0.0,0.0,0.0,0.0,0.0,0.0,0.0,0.0,0.0,0.0,0.0,0.0,0.0,0.0,0.0,0.0,0.0,0.0,0.0,0.0,0.0,0.0,0.0,0.0,0.0,0.0,0.0,0.0,0.0,0.0,0.0,0.0,0.0,0.0,0.0,0.0,0.0,0.0,0.0,0.0,0.0,0.0,0.0,0.0,0.0,0.0,0.0,0.0,0.0,0.0,0.0,0.0,0.0,0.0,0.0,0.0,0.0,0.0,0.0,0.0,0.0,0.0,0.0,0.0,0.0,0.0,0.0,0.0,0.0,0.0,0.0,0.0,0.0,0.0,0.0,0.0,0.0,0.0,-0.4313,-0.4318,-0.4318,-0.4318,-0.4362,-0.4794,-0.4039,-0.3543,-0.3543,-0.2423,0.0,0.0,0.0,0.0,0.0,0.0,0.0,0.0,0.0,0.0,0.0,0.0,0.0,0.0,0.0,0.0,0.0,0.0,0.0,0.0,0.0,0.0,0.0,0.0,0.0,0.0,0.0,0.0,0.0,0.0,0.0,0.0,0.0,0.0,0.0,0.0,0.0,0.0,0.0,0.0,0.0,0.0,0.0,0.0,0.0,0.0,0.0,0.0,0.0,0.0,0.0,0.0,0.0,0.0,0.0,0.0,0.0,0.0,0.0,0.0,0.0,0.0,0.0,0.0,0.0,0.0,0.0,0.0,0.0,0.0,0.0,0.0,0.0,0.0,0.0,0.0,0.0,0.0,0.0,0.0,0.0,0.0,0.0,0.0,0.0,0.0,0.0,0.0,0.0,0.0,0.0,0.0,0.0,0.0,0.0,0.0,0.0,0.0,0.0,0.0,0.0,0.0,-0.4077,-0.4318,-0.4318,-0.4318,-0.4364,-0.4341,-0.4279,-0.4148,-0.4148,-0.2843,0.0,0.0,0.0,0.0,0.0,0.0,0.0,0.0,0.0,0.0,0.0,0.0,0.0,0.0,0.0,0.0,0.0,0.0,0.0,0.0,0.0,0.0,0.0,0.0,0.0,0.0,0.0,0.0,0.0,0.0,0.0,0.0,0.0,0.0,0.0,0.0,0.0,0.0,0.0,0.0,0.0,0.0,0.0,0.0,0.0,0.0,0.0,0.0,0.0,0.0,0.0,0.0,0.0,0.0,0.0,0.0,0.0,0.0,0.0,0.0,0.0,0.0,0.0,0.0,0.0,0.0,0.0,0.0,0.0,0.0,0.0,0.0,0.0,0.0,0.0,0.0,0.0,0.0,0.0,0.0,0.0,0.0,0.0,0.0,0.0,0.0,0.0,0.0,0.0,0.0,0.0,0.0,0.0,0.0,0.0,0.0,0.0,0.0,0.0,0.0,0.0,0.0,-0.3684,-0.426,-0.4277,-0.4318,-0.4318,-0.4318,-0.4318,-0.4318,-0.4318,-0.267,0.0,0.0,0.0,0.0,0.0,0.0,0.0,0.0,0.0,0.0,0.0,0.0,0.0,0.0,0.0,0.0,0.0,0.0,0.0,0.0,0.0,0.0,0.0,0.0,0.0,0.0,0.0,0.0,0.0,0.0,0.0,0.0,0.0,0.0,0.0,0.0,0.0,0.0,0.0,0.0,0.0,0.0,0.0,0.0,0.0,0.0,0.0,0.0,0.0,0.0,0.0,0.0,0.0,0.0,0.0,0.0,0.0,0.0,0.0,0.0,0.0,0.0,0.0,0.0,0.0,0.0,0.0,0.0,0.0,0.0,0.0,0.0,0.0,0.0,0.0,0.0,0.0,0.0,0.0,0.0,0.0,0.0,0.0,0.0,0.0,0.0,0.0,0.0,0.0,0.0,0.0,0.0,0.0,0.0,0.0,0.0,0.0,0.0,0.0,0.0,0.0,0.0,0.0,-0.4197,-0.4623,-0.4437,-0.4318,-0.4318,-0.4318,-0.4318,-0.4318,0.0,0.0,0.0,0.0,0.0,0.0,0.0,0.0,0.0,0.0,0.0,0.0,0.0,0.0,0.0,0.0,0.0,0.0,0.0,0.0,0.0,0.0,0.0,0.0,0.0,0.0,0.0,0.0,0.0,0.0,0.0,0.0,0.0,0.0,0.0,0.0,0.0,0.0,0.0,0.0,0.0,0.0,0.0,0.0,0.0,0.0,0.0,0.0,0.0,0.0,0.0,0.0,0.0,0.0,0.0,0.0,0.0,0.0,0.0,0.0,0.0,0.0,0.0,0.0,0.0,0.0,0.0,0.0,0.0,0.0,0.0,0.0,0.0,0.0,0.0,0.0,0.0,0.0,0.0,0.0,0.0,0.0,0.0,0.0,0.0,0.0,0.0,0.0,0.0,0.0,0.0,0.0,0.0,0.0,0.0,0.0,0.0,0.0,0.0,0.0,0.0,0.0,0.0,0.0,-0.4761,-0.6556,-0.5307,-0.4318,-0.4318,-0.4318,-0.4318,-0.4318,0.0,0.0,0.0,0.0,0.0,0.0,0.0,0.0,0.0,0.0,0.0,0.0,0.0,0.0]}]]]